Wetterdaten: Dienstag, 20.08.2019
Datum Zeit Temp. A. Feuchte A. Luftdruck Regen Wind Richtung Richtung Sonnenschein ET UV Solar Taupunkt Windchill Windböen
20.08.2019 00:00 15,3 °C 95 % 1017,1 hPa 0,0 mm 3,5 km/h (1 Bft) O 92 ° 0 min 0,000 mm 0,0 UV-I 0 W/m² 14,5 °C 15,3 °C 6,4 km/h (2 Bft)
20.08.2019 00:01 15,3 °C 95 % 1017,0 hPa 0,0 mm 4,6 km/h (1 Bft) O 86 ° 0 min 0,000 mm 0,0 UV-I 0 W/m² 14,5 °C 15,3 °C 6,4 km/h (2 Bft)
20.08.2019 00:02 15,3 °C 95 % 1017,0 hPa 0,0 mm 2,6 km/h (1 Bft) O 86 ° 0 min 0,000 mm 0,0 UV-I 0 W/m² 14,5 °C 15,3 °C 4,8 km/h (1 Bft)
20.08.2019 00:03 15,3 °C 95 % 1017,0 hPa 0,0 mm 0,4 km/h (0 Bft) O 86 ° 0 min 0,000 mm 0,0 UV-I 0 W/m² 14,5 °C 15,3 °C 1,6 km/h (1 Bft)
20.08.2019 00:04 15,3 °C 95 % 1017,0 hPa 0,2 mm 0,0 km/h (0 Bft) O 86 ° 0 min 0,000 mm 0,0 UV-I 0 W/m² 14,5 °C 15,3 °C 0,0 km/h (0 Bft)
20.08.2019 00:05 15,3 °C 95 % 1017,0 hPa 0,0 mm 0,0 km/h (0 Bft) O 86 ° 0 min 0,000 mm 0,0 UV-I 0 W/m² 14,5 °C 15,3 °C 0,0 km/h (0 Bft)
20.08.2019 00:06 15,3 °C 95 % 1017,0 hPa 0,0 mm 0,0 km/h (0 Bft) O 86 ° 0 min 0,000 mm 0,0 UV-I 0 W/m² 14,5 °C 15,3 °C 0,0 km/h (0 Bft)
20.08.2019 00:07 15,3 °C 95 % 1016,9 hPa 0,0 mm 0,2 km/h (0 Bft) O 86 ° 0 min 0,000 mm 0,0 UV-I 0 W/m² 14,5 °C 15,3 °C 1,6 km/h (1 Bft)
20.08.2019 00:08 15,3 °C 95 % 1016,9 hPa 0,0 mm 0,4 km/h (0 Bft) O 97 ° 0 min 0,000 mm 0,0 UV-I 0 W/m² 14,5 °C 15,3 °C 1,6 km/h (1 Bft)
20.08.2019 00:09 15,3 °C 95 % 1016,9 hPa 0,0 mm 0,8 km/h (0 Bft) O 97 ° 0 min 0,000 mm 0,0 UV-I 0 W/m² 14,5 °C 15,3 °C 3,2 km/h (1 Bft)
20.08.2019 00:10 15,3 °C 95 % 1016,9 hPa 0,2 mm 0,0 km/h (0 Bft) S-SO 147 ° 0 min 0,000 mm 0,0 UV-I 0 W/m² 14,5 °C 15,3 °C 0,0 km/h (0 Bft)
20.08.2019 00:11 15,3 °C 95 % 1016,9 hPa 0,0 mm 0,0 km/h (0 Bft) S-SO 147 ° 0 min 0,000 mm 0,0 UV-I 0 W/m² 14,5 °C 15,3 °C 0,0 km/h (0 Bft)
20.08.2019 00:12 15,2 °C 95 % 1016,9 hPa 0,0 mm 0,0 km/h (0 Bft) S-SO 147 ° 0 min 0,000 mm 0,0 UV-I 0 W/m² 14,4 °C 15,2 °C 0,0 km/h (0 Bft)
20.08.2019 00:13 15,3 °C 95 % 1017,0 hPa 0,0 mm 0,0 km/h (0 Bft) S-SO 147 ° 0 min 0,000 mm 0,0 UV-I 0 W/m² 14,5 °C 15,3 °C 0,0 km/h (0 Bft)
20.08.2019 00:14 15,3 °C 95 % 1017,0 hPa 0,0 mm 0,0 km/h (0 Bft) S-SO 147 ° 0 min 0,000 mm 0,0 UV-I 0 W/m² 14,5 °C 15,3 °C 0,0 km/h (0 Bft)
20.08.2019 00:15 15,2 °C 95 % 1017,0 hPa 0,0 mm 0,0 km/h (0 Bft) S-SO 147 ° 0 min 0,000 mm 0,0 UV-I 0 W/m² 14,4 °C 15,2 °C 0,0 km/h (0 Bft)
20.08.2019 00:16 15,2 °C 95 % 1016,9 hPa 0,2 mm 0,0 km/h (0 Bft) S-SO 147 ° 0 min 0,000 mm 0,0 UV-I 0 W/m² 14,4 °C 15,2 °C 0,0 km/h (0 Bft)
20.08.2019 00:17 15,2 °C 95 % 1016,9 hPa 0,0 mm 0,0 km/h (0 Bft) S-SO 147 ° 0 min 0,000 mm 0,0 UV-I 0 W/m² 14,4 °C 15,2 °C 0,0 km/h (0 Bft)
20.08.2019 00:18 15,2 °C 95 % 1017,0 hPa 0,0 mm 0,0 km/h (0 Bft) S-SO 147 ° 0 min 0,000 mm 0,0 UV-I 0 W/m² 14,4 °C 15,2 °C 0,0 km/h (0 Bft)
20.08.2019 00:19 15,2 °C 95 % 1017,0 hPa 0,0 mm 1,3 km/h (1 Bft) SW 236 ° 0 min 0,000 mm 0,0 UV-I 0 W/m² 14,4 °C 15,2 °C 4,8 km/h (1 Bft)
20.08.2019 00:20 15,2 °C 95 % 1017,1 hPa 0,0 mm 1,1 km/h (1 Bft) SW 236 ° 0 min 0,000 mm 0,0 UV-I 0 W/m² 14,4 °C 15,2 °C 3,2 km/h (1 Bft)
20.08.2019 00:21 15,1 °C 95 % 1017,1 hPa 0,0 mm 2,5 km/h (1 Bft) SW 236 ° 0 min 0,000 mm 0,0 UV-I 0 W/m² 14,3 °C 15,1 °C 4,8 km/h (1 Bft)
20.08.2019 00:22 15,1 °C 95 % 1017,2 hPa 0,0 mm 3,2 km/h (1 Bft) W-SW 242 ° 0 min 0,000 mm 0,0 UV-I 0 W/m² 14,3 °C 15,1 °C 6,4 km/h (2 Bft)
20.08.2019 00:23 15,1 °C 95 % 1017,3 hPa 0,2 mm 1,1 km/h (1 Bft) W-SW 242 ° 0 min 0,000 mm 0,0 UV-I 0 W/m² 14,3 °C 15,1 °C 1,6 km/h (1 Bft)
20.08.2019 00:24 15,1 °C 95 % 1017,3 hPa 0,0 mm 0,5 km/h (0 Bft) W-SW 242 ° 0 min 0,000 mm 0,0 UV-I 0 W/m² 14,3 °C 15,1 °C 3,2 km/h (1 Bft)
20.08.2019 00:25 15,1 °C 95 % 1017,3 hPa 0,0 mm 2,3 km/h (1 Bft) W-SW 242 ° 0 min 0,000 mm 0,0 UV-I 0 W/m² 14,3 °C 15,1 °C 3,2 km/h (1 Bft)
20.08.2019 00:26 15,2 °C 95 % 1017,3 hPa 0,0 mm 2,1 km/h (1 Bft) W 278 ° 0 min 0,000 mm 0,0 UV-I 0 W/m² 14,4 °C 15,2 °C 4,8 km/h (1 Bft)
20.08.2019 00:27 15,1 °C 95 % 1017,3 hPa 0,0 mm 3,9 km/h (1 Bft) W 278 ° 0 min 0,000 mm 0,0 UV-I 0 W/m² 14,3 °C 15,1 °C 4,8 km/h (1 Bft)
20.08.2019 00:28 15,1 °C 95 % 1017,4 hPa 0,0 mm 1,2 km/h (1 Bft) W 278 ° 0 min 0,000 mm 0,0 UV-I 0 W/m² 14,3 °C 15,1 °C 3,2 km/h (1 Bft)
20.08.2019 00:29 15,2 °C 95 % 1017,4 hPa 0,0 mm 1,5 km/h (1 Bft) W 278 ° 0 min 0,000 mm 0,0 UV-I 0 W/m² 14,4 °C 15,2 °C 4,8 km/h (1 Bft)
20.08.2019 00:30 15,1 °C 95 % 1017,5 hPa 0,2 mm 0,0 km/h (0 Bft) W 278 ° 0 min 0,000 mm 0,0 UV-I 0 W/m² 14,3 °C 15,1 °C 0,0 km/h (0 Bft)
20.08.2019 00:31 15,1 °C 95 % 1017,4 hPa 0,0 mm 0,0 km/h (0 Bft) W 278 ° 0 min 0,000 mm 0,0 UV-I 0 W/m² 14,3 °C 15,1 °C 0,0 km/h (0 Bft)
20.08.2019 00:32 15,1 °C 95 % 1017,5 hPa 0,0 mm 0,0 km/h (0 Bft) W 278 ° 0 min 0,000 mm 0,0 UV-I 0 W/m² 14,3 °C 15,1 °C 0,0 km/h (0 Bft)
20.08.2019 00:33 15,1 °C 95 % 1017,5 hPa 0,0 mm 0,0 km/h (0 Bft) W 278 ° 0 min 0,000 mm 0,0 UV-I 0 W/m² 14,3 °C 15,1 °C 0,0 km/h (0 Bft)
20.08.2019 00:34 15,1 °C 95 % 1017,5 hPa 0,0 mm 0,0 km/h (0 Bft) W 278 ° 0 min 0,000 mm 0,0 UV-I 0 W/m² 14,3 °C 15,1 °C 0,0 km/h (0 Bft)
20.08.2019 00:35 15,1 °C 95 % 1017,5 hPa 0,0 mm 0,5 km/h (0 Bft) W 278 ° 0 min 0,000 mm 0,0 UV-I 0 W/m² 14,3 °C 15,1 °C 1,6 km/h (1 Bft)
20.08.2019 00:36 15,1 °C 95 % 1017,4 hPa 0,0 mm 0,0 km/h (0 Bft) W 278 ° 0 min 0,000 mm 0,0 UV-I 0 W/m² 14,3 °C 15,1 °C 0,0 km/h (0 Bft)
20.08.2019 00:37 15,1 °C 95 % 1017,4 hPa 0,0 mm 0,0 km/h (0 Bft) W 278 ° 0 min 0,000 mm 0,0 UV-I 0 W/m² 14,3 °C 15,1 °C 0,0 km/h (0 Bft)
20.08.2019 00:38 15,0 °C 95 % 1017,4 hPa 0,0 mm 0,0 km/h (0 Bft) W 278 ° 0 min 0,000 mm 0,0 UV-I 0 W/m² 14,2 °C 15,0 °C 0,0 km/h (0 Bft)
20.08.2019 00:39 15,1 °C 95 % 1017,4 hPa 0,2 mm 0,1 km/h (0 Bft) W 278 ° 0 min 0,000 mm 0,0 UV-I 0 W/m² 14,3 °C 15,1 °C 1,6 km/h (1 Bft)
20.08.2019 00:40 15,0 °C 95 % 1017,4 hPa 0,0 mm 0,0 km/h (0 Bft) W 278 ° 0 min 0,000 mm 0,0 UV-I 0 W/m² 14,2 °C 15,0 °C 0,0 km/h (0 Bft)
20.08.2019 00:41 15,0 °C 95 % 1017,4 hPa 0,0 mm 1,2 km/h (1 Bft) W 278 ° 0 min 0,000 mm 0,0 UV-I 0 W/m² 14,2 °C 15,0 °C 1,6 km/h (1 Bft)
20.08.2019 00:42 14,9 °C 95 % 1017,4 hPa 0,0 mm 0,0 km/h (0 Bft) W 278 ° 0 min 0,000 mm 0,0 UV-I 0 W/m² 14,1 °C 14,9 °C 0,0 km/h (0 Bft)
20.08.2019 00:43 15,0 °C 95 % 1017,4 hPa 0,0 mm 0,0 km/h (0 Bft) W 278 ° 0 min 0,000 mm 0,0 UV-I 0 W/m² 14,2 °C 15,0 °C 0,0 km/h (0 Bft)
20.08.2019 00:44 15,0 °C 95 % 1017,5 hPa 0,0 mm 0,0 km/h (0 Bft) W 278 ° 0 min 0,000 mm 0,0 UV-I 0 W/m² 14,2 °C 15,0 °C 0,0 km/h (0 Bft)
20.08.2019 00:45 15,0 °C 95 % 1017,4 hPa 0,0 mm 0,0 km/h (0 Bft) W 278 ° 0 min 0,000 mm 0,0 UV-I 0 W/m² 14,2 °C 15,0 °C 0,0 km/h (0 Bft)
20.08.2019 00:46 14,9 °C 95 % 1017,4 hPa 0,2 mm 0,0 km/h (0 Bft) W 278 ° 0 min 0,000 mm 0,0 UV-I 0 W/m² 14,1 °C 14,9 °C 0,0 km/h (0 Bft)
20.08.2019 00:47 14,9 °C 95 % 1017,4 hPa 0,0 mm 0,0 km/h (0 Bft) W 278 ° 0 min 0,000 mm 0,0 UV-I 0 W/m² 14,1 °C 14,9 °C 0,0 km/h (0 Bft)
20.08.2019 00:48 14,9 °C 95 % 1017,4 hPa 0,0 mm 0,0 km/h (0 Bft) W 278 ° 0 min 0,000 mm 0,0 UV-I 0 W/m² 14,1 °C 14,9 °C 0,0 km/h (0 Bft)
20.08.2019 00:49 14,9 °C 95 % 1017,4 hPa 0,0 mm 0,0 km/h (0 Bft) W 278 ° 0 min 0,000 mm 0,0 UV-I 0 W/m² 14,1 °C 14,9 °C 0,0 km/h (0 Bft)
20.08.2019 00:50 14,9 °C 95 % 1017,5 hPa 0,0 mm 0,0 km/h (0 Bft) W 278 ° 0 min 0,000 mm 0,0 UV-I 0 W/m² 14,1 °C 14,9 °C 0,0 km/h (0 Bft)
20.08.2019 00:51 14,9 °C 95 % 1017,5 hPa 0,0 mm 0,0 km/h (0 Bft) W 278 ° 0 min 0,000 mm 0,0 UV-I 0 W/m² 14,1 °C 14,9 °C 0,0 km/h (0 Bft)
20.08.2019 00:52 14,9 °C 95 % 1017,5 hPa 0,0 mm 0,0 km/h (0 Bft) W 278 ° 0 min 0,000 mm 0,0 UV-I 0 W/m² 14,1 °C 14,9 °C 0,0 km/h (0 Bft)
20.08.2019 00:53 14,9 °C 95 % 1017,5 hPa 0,0 mm 0,0 km/h (0 Bft) W 278 ° 0 min 0,000 mm 0,0 UV-I 0 W/m² 14,1 °C 14,9 °C 0,0 km/h (0 Bft)
20.08.2019 00:54 14,9 °C 95 % 1017,5 hPa 0,0 mm 0,0 km/h (0 Bft) W 278 ° 0 min 0,000 mm 0,0 UV-I 0 W/m² 14,1 °C 14,9 °C 0,0 km/h (0 Bft)
20.08.2019 00:55 14,9 °C 95 % 1017,5 hPa 0,0 mm 0,0 km/h (0 Bft) W 278 ° 0 min 0,000 mm 0,0 UV-I 0 W/m² 14,1 °C 14,9 °C 0,0 km/h (0 Bft)
20.08.2019 00:56 14,9 °C 95 % 1017,5 hPa 0,2 mm 0,0 km/h (0 Bft) W 278 ° 0 min 0,000 mm 0,0 UV-I 0 W/m² 14,1 °C 14,9 °C 0,0 km/h (0 Bft)
20.08.2019 00:57 14,9 °C 95 % 1017,5 hPa 0,0 mm 0,0 km/h (0 Bft) W 278 ° 0 min 0,000 mm 0,0 UV-I 0 W/m² 14,1 °C 14,9 °C 0,0 km/h (0 Bft)
20.08.2019 00:58 14,9 °C 95 % 1017,5 hPa 0,0 mm 0,0 km/h (0 Bft) W 278 ° 0 min 0,000 mm 0,0 UV-I 0 W/m² 14,1 °C 14,9 °C 0,0 km/h (0 Bft)
20.08.2019 00:59 14,9 °C 95 % 1017,5 hPa 0,0 mm 0,0 km/h (0 Bft) W 278 ° 0 min 0,000 mm 0,0 UV-I 0 W/m² 14,1 °C 14,9 °C 0,0 km/h (0 Bft)
20.08.2019 01:00 14,9 °C 95 % 1017,5 hPa 0,0 mm 0,0 km/h (0 Bft) W 278 ° 0 min 0,000 mm 0,0 UV-I 0 W/m² 14,1 °C 14,9 °C 0,0 km/h (0 Bft)
20.08.2019 01:01 14,9 °C 95 % 1017,5 hPa 0,0 mm 0,0 km/h (0 Bft) W 278 ° 0 min 0,000 mm 0,0 UV-I 0 W/m² 14,1 °C 14,9 °C 0,0 km/h (0 Bft)
20.08.2019 01:02 14,9 °C 95 % 1017,5 hPa 0,0 mm 0,0 km/h (0 Bft) W 278 ° 0 min 0,000 mm 0,0 UV-I 0 W/m² 14,1 °C 14,9 °C 0,0 km/h (0 Bft)
20.08.2019 01:03 14,9 °C 95 % 1017,5 hPa 0,0 mm 0,0 km/h (0 Bft) W 278 ° 0 min 0,000 mm 0,0 UV-I 0 W/m² 14,1 °C 14,9 °C 0,0 km/h (0 Bft)
20.08.2019 01:04 14,9 °C 95 % 1017,5 hPa 0,0 mm 0,0 km/h (0 Bft) W 278 ° 0 min 0,000 mm 0,0 UV-I 0 W/m² 14,1 °C 14,9 °C 0,0 km/h (0 Bft)
20.08.2019 01:05 14,9 °C 95 % 1017,4 hPa 0,2 mm 0,0 km/h (0 Bft) W 278 ° 0 min 0,000 mm 0,0 UV-I 0 W/m² 14,1 °C 14,9 °C 0,0 km/h (0 Bft)
20.08.2019 01:06 14,9 °C 95 % 1017,5 hPa 0,0 mm 0,0 km/h (0 Bft) W 278 ° 0 min 0,000 mm 0,0 UV-I 0 W/m² 14,1 °C 14,9 °C 0,0 km/h (0 Bft)
20.08.2019 01:07 14,9 °C 95 % 1017,5 hPa 0,0 mm 0,0 km/h (0 Bft) W 278 ° 0 min 0,000 mm 0,0 UV-I 0 W/m² 14,1 °C 14,9 °C 0,0 km/h (0 Bft)
20.08.2019 01:08 14,9 °C 95 % 1017,5 hPa 0,0 mm 0,0 km/h (0 Bft) W 278 ° 0 min 0,000 mm 0,0 UV-I 0 W/m² 14,1 °C 14,9 °C 0,0 km/h (0 Bft)
20.08.2019 01:09 14,9 °C 95 % 1017,5 hPa 0,0 mm 0,0 km/h (0 Bft) W 278 ° 0 min 0,000 mm 0,0 UV-I 0 W/m² 14,1 °C 14,9 °C 0,0 km/h (0 Bft)
20.08.2019 01:10 14,9 °C 95 % 1017,5 hPa 0,0 mm 0,0 km/h (0 Bft) W 278 ° 0 min 0,000 mm 0,0 UV-I 0 W/m² 14,1 °C 14,9 °C 0,0 km/h (0 Bft)
20.08.2019 01:11 14,9 °C 95 % 1017,5 hPa 0,0 mm 0,0 km/h (0 Bft) W 278 ° 0 min 0,000 mm 0,0 UV-I 0 W/m² 14,1 °C 14,9 °C 0,0 km/h (0 Bft)
20.08.2019 01:12 14,9 °C 95 % 1017,5 hPa 0,0 mm 0,0 km/h (0 Bft) W 278 ° 0 min 0,000 mm 0,0 UV-I 0 W/m² 14,1 °C 14,9 °C 0,0 km/h (0 Bft)
20.08.2019 01:13 14,9 °C 95 % 1017,5 hPa 0,0 mm 0,0 km/h (0 Bft) W 278 ° 0 min 0,000 mm 0,0 UV-I 0 W/m² 14,1 °C 14,9 °C 0,0 km/h (0 Bft)
20.08.2019 01:14 15,0 °C 95 % 1017,5 hPa 0,0 mm 0,0 km/h (0 Bft) W 278 ° 0 min 0,000 mm 0,0 UV-I 0 W/m² 14,2 °C 15,0 °C 0,0 km/h (0 Bft)
20.08.2019 01:15 15,0 °C 95 % 1017,5 hPa 0,0 mm 0,0 km/h (0 Bft) W 278 ° 0 min 0,000 mm 0,0 UV-I 0 W/m² 14,2 °C 15,0 °C 0,0 km/h (0 Bft)
20.08.2019 01:16 15,0 °C 95 % 1017,5 hPa 0,2 mm 0,0 km/h (0 Bft) W 278 ° 0 min 0,000 mm 0,0 UV-I 0 W/m² 14,2 °C 15,0 °C 0,0 km/h (0 Bft)
20.08.2019 01:17 14,9 °C 95 % 1017,5 hPa 0,0 mm 0,0 km/h (0 Bft) W 278 ° 0 min 0,000 mm 0,0 UV-I 0 W/m² 14,1 °C 14,9 °C 0,0 km/h (0 Bft)
20.08.2019 01:18 15,0 °C 95 % 1017,4 hPa 0,0 mm 0,0 km/h (0 Bft) W 278 ° 0 min 0,000 mm 0,0 UV-I 0 W/m² 14,2 °C 15,0 °C 0,0 km/h (0 Bft)
20.08.2019 01:19 15,0 °C 95 % 1017,4 hPa 0,0 mm 0,0 km/h (0 Bft) W 278 ° 0 min 0,000 mm 0,0 UV-I 0 W/m² 14,2 °C 15,0 °C 0,0 km/h (0 Bft)
20.08.2019 01:20 15,0 °C 95 % 1017,5 hPa 0,0 mm 0,0 km/h (0 Bft) W 278 ° 0 min 0,000 mm 0,0 UV-I 0 W/m² 14,2 °C 15,0 °C 0,0 km/h (0 Bft)
20.08.2019 01:21 15,0 °C 95 % 1017,5 hPa 0,0 mm 0,0 km/h (0 Bft) W 278 ° 0 min 0,000 mm 0,0 UV-I 0 W/m² 14,2 °C 15,0 °C 0,0 km/h (0 Bft)
20.08.2019 01:22 15,0 °C 95 % 1017,6 hPa 0,0 mm 0,0 km/h (0 Bft) W 278 ° 0 min 0,000 mm 0,0 UV-I 0 W/m² 14,2 °C 15,0 °C 0,0 km/h (0 Bft)
20.08.2019 01:23 15,1 °C 95 % 1017,6 hPa 0,0 mm 0,0 km/h (0 Bft) W 278 ° 0 min 0,000 mm 0,0 UV-I 0 W/m² 14,3 °C 15,1 °C 0,0 km/h (0 Bft)
20.08.2019 01:24 15,1 °C 95 % 1017,5 hPa 0,0 mm 0,0 km/h (0 Bft) W 278 ° 0 min 0,000 mm 0,0 UV-I 0 W/m² 14,3 °C 15,1 °C 0,0 km/h (0 Bft)
20.08.2019 01:25 15,0 °C 95 % 1017,6 hPa 0,0 mm 0,0 km/h (0 Bft) W 278 ° 0 min 0,000 mm 0,0 UV-I 0 W/m² 14,2 °C 15,0 °C 0,0 km/h (0 Bft)
20.08.2019 01:26 15,1 °C 95 % 1017,6 hPa 0,0 mm 0,0 km/h (0 Bft) W 278 ° 0 min 0,000 mm 0,0 UV-I 0 W/m² 14,3 °C 15,1 °C 0,0 km/h (0 Bft)
20.08.2019 01:27 15,1 °C 95 % 1017,6 hPa 0,0 mm 0,0 km/h (0 Bft) W 278 ° 0 min 0,000 mm 0,0 UV-I 0 W/m² 14,3 °C 15,1 °C 0,0 km/h (0 Bft)
20.08.2019 01:28 15,1 °C 95 % 1017,6 hPa 0,0 mm 1,7 km/h (1 Bft) S-SW 193 ° 0 min 0,000 mm 0,0 UV-I 0 W/m² 14,3 °C 15,1 °C 4,8 km/h (1 Bft)
20.08.2019 01:29 15,1 °C 95 % 1017,6 hPa 0,0 mm 3,5 km/h (1 Bft) S-SW 196 ° 0 min 0,000 mm 0,0 UV-I 0 W/m² 14,3 °C 15,1 °C 4,8 km/h (1 Bft)
20.08.2019 01:30 15,1 °C 95 % 1017,6 hPa 0,2 mm 1,3 km/h (1 Bft) S-SW 196 ° 0 min 0,000 mm 0,0 UV-I 0 W/m² 14,3 °C 15,1 °C 4,8 km/h (1 Bft)
20.08.2019 01:31 15,1 °C 95 % 1017,6 hPa 0,0 mm 0,0 km/h (0 Bft) S-SW 196 ° 0 min 0,000 mm 0,0 UV-I 0 W/m² 14,3 °C 15,1 °C 0,0 km/h (0 Bft)
20.08.2019 01:32 15,1 °C 95 % 1017,6 hPa 0,0 mm 0,0 km/h (0 Bft) S-SW 196 ° 0 min 0,000 mm 0,0 UV-I 0 W/m² 14,3 °C 15,1 °C 0,0 km/h (0 Bft)
20.08.2019 01:33 15,1 °C 95 % 1017,7 hPa 0,0 mm 0,2 km/h (0 Bft) S 180 ° 0 min 0,000 mm 0,0 UV-I 0 W/m² 14,3 °C 15,1 °C 1,6 km/h (1 Bft)
20.08.2019 01:34 15,2 °C 95 % 1017,6 hPa 0,0 mm 0,0 km/h (0 Bft) S 188 ° 0 min 0,000 mm 0,0 UV-I 0 W/m² 14,4 °C 15,2 °C 0,0 km/h (0 Bft)
20.08.2019 01:35 15,1 °C 95 % 1017,6 hPa 0,0 mm 0,5 km/h (0 Bft) S 188 ° 0 min 0,000 mm 0,0 UV-I 0 W/m² 14,3 °C 15,1 °C 3,2 km/h (1 Bft)
20.08.2019 01:36 15,2 °C 95 % 1017,6 hPa 0,0 mm 0,0 km/h (0 Bft) S 188 ° 0 min 0,000 mm 0,0 UV-I 0 W/m² 14,4 °C 15,2 °C 0,0 km/h (0 Bft)
20.08.2019 01:37 15,1 °C 95 % 1017,7 hPa 0,0 mm 0,0 km/h (0 Bft) S 188 ° 0 min 0,000 mm 0,0 UV-I 0 W/m² 14,3 °C 15,1 °C 0,0 km/h (0 Bft)
20.08.2019 01:38 15,2 °C 95 % 1017,7 hPa 0,0 mm 0,0 km/h (0 Bft) S 188 ° 0 min 0,000 mm 0,0 UV-I 0 W/m² 14,4 °C 15,2 °C 0,0 km/h (0 Bft)
20.08.2019 01:39 15,2 °C 95 % 1017,7 hPa 0,0 mm 0,0 km/h (0 Bft) S 187 ° 0 min 0,000 mm 0,0 UV-I 0 W/m² 14,4 °C 15,2 °C 0,0 km/h (0 Bft)
20.08.2019 01:40 15,2 °C 95 % 1017,7 hPa 0,0 mm 0,0 km/h (0 Bft) S 187 ° 0 min 0,000 mm 0,0 UV-I 0 W/m² 14,4 °C 15,2 °C 0,0 km/h (0 Bft)
20.08.2019 01:41 15,2 °C 95 % 1017,7 hPa 0,0 mm 0,0 km/h (0 Bft) S 187 ° 0 min 0,000 mm 0,0 UV-I 0 W/m² 14,4 °C 15,2 °C 0,0 km/h (0 Bft)
20.08.2019 01:42 15,2 °C 95 % 1017,6 hPa 0,0 mm 0,0 km/h (0 Bft) S 187 ° 0 min 0,000 mm 0,0 UV-I 0 W/m² 14,4 °C 15,2 °C 0,0 km/h (0 Bft)
20.08.2019 01:43 15,2 °C 95 % 1017,6 hPa 0,0 mm 0,0 km/h (0 Bft) S 187 ° 0 min 0,000 mm 0,0 UV-I 0 W/m² 14,4 °C 15,2 °C 0,0 km/h (0 Bft)
20.08.2019 01:44 15,2 °C 95 % 1017,5 hPa 0,0 mm 0,0 km/h (0 Bft) S 187 ° 0 min 0,000 mm 0,0 UV-I 0 W/m² 14,4 °C 15,2 °C 0,0 km/h (0 Bft)
20.08.2019 01:45 15,2 °C 95 % 1017,5 hPa 0,2 mm 0,0 km/h (0 Bft) S 187 ° 0 min 0,000 mm 0,0 UV-I 0 W/m² 14,4 °C 15,2 °C 0,0 km/h (0 Bft)
20.08.2019 01:46 15,2 °C 95 % 1017,5 hPa 0,0 mm 0,0 km/h (0 Bft) S 187 ° 0 min 0,000 mm 0,0 UV-I 0 W/m² 14,4 °C 15,2 °C 0,0 km/h (0 Bft)
20.08.2019 01:47 15,2 °C 95 % 1017,4 hPa 0,0 mm 0,0 km/h (0 Bft) S 187 ° 0 min 0,000 mm 0,0 UV-I 0 W/m² 14,4 °C 15,2 °C 0,0 km/h (0 Bft)
20.08.2019 01:48 15,2 °C 95 % 1017,4 hPa 0,0 mm 0,0 km/h (0 Bft) S 187 ° 0 min 0,000 mm 0,0 UV-I 0 W/m² 14,4 °C 15,2 °C 0,0 km/h (0 Bft)
20.08.2019 01:49 15,2 °C 95 % 1017,3 hPa 0,0 mm 0,0 km/h (0 Bft) S 187 ° 0 min 0,000 mm 0,0 UV-I 0 W/m² 14,4 °C 15,2 °C 0,0 km/h (0 Bft)
20.08.2019 01:50 15,2 °C 95 % 1017,3 hPa 0,0 mm 0,0 km/h (0 Bft) S 187 ° 0 min 0,000 mm 0,0 UV-I 0 W/m² 14,4 °C 15,2 °C 0,0 km/h (0 Bft)
20.08.2019 01:51 15,2 °C 95 % 1017,3 hPa 0,0 mm 0,0 km/h (0 Bft) S 187 ° 0 min 0,000 mm 0,0 UV-I 0 W/m² 14,4 °C 15,2 °C 0,0 km/h (0 Bft)
20.08.2019 01:52 15,2 °C 95 % 1017,3 hPa 0,0 mm 0,0 km/h (0 Bft) S 187 ° 0 min 0,000 mm 0,0 UV-I 0 W/m² 14,4 °C 15,2 °C 0,0 km/h (0 Bft)
20.08.2019 01:53 15,2 °C 95 % 1017,4 hPa 0,0 mm 0,0 km/h (0 Bft) S 187 ° 0 min 0,000 mm 0,0 UV-I 0 W/m² 14,4 °C 15,2 °C 0,0 km/h (0 Bft)
20.08.2019 01:54 15,2 °C 95 % 1017,4 hPa 0,0 mm 0,9 km/h (0 Bft) S 188 ° 0 min 0,000 mm 0,0 UV-I 0 W/m² 14,4 °C 15,2 °C 3,2 km/h (1 Bft)
20.08.2019 01:55 15,2 °C 95 % 1017,5 hPa 0,0 mm 3,4 km/h (1 Bft) W 264 ° 0 min 0,000 mm 0,0 UV-I 0 W/m² 14,4 °C 15,2 °C 4,8 km/h (1 Bft)
20.08.2019 01:56 15,2 °C 95 % 1017,5 hPa 0,2 mm 2,8 km/h (1 Bft) W-NW 288 ° 0 min 0,000 mm 0,0 UV-I 0 W/m² 14,4 °C 15,2 °C 4,8 km/h (1 Bft)
20.08.2019 01:57 15,2 °C 95 % 1017,6 hPa 0,0 mm 3,6 km/h (1 Bft) W-NW 287 ° 0 min 0,000 mm 0,0 UV-I 0 W/m² 14,4 °C 15,2 °C 4,8 km/h (1 Bft)
20.08.2019 01:58 15,2 °C 95 % 1017,6 hPa 0,0 mm 3,0 km/h (1 Bft) W-NW 287 ° 0 min 0,000 mm 0,0 UV-I 0 W/m² 14,4 °C 15,2 °C 4,8 km/h (1 Bft)
20.08.2019 01:59 15,2 °C 95 % 1017,6 hPa 0,0 mm 2,0 km/h (1 Bft) W-NW 287 ° 0 min 0,000 mm 0,0 UV-I 0 W/m² 14,4 °C 15,2 °C 3,2 km/h (1 Bft)
20.08.2019 02:00 15,2 °C 95 % 1017,6 hPa 0,0 mm 0,9 km/h (0 Bft) W-NW 287 ° 0 min 0,000 mm 0,0 UV-I 0 W/m² 14,4 °C 15,2 °C 1,6 km/h (1 Bft)
20.08.2019 02:01 15,2 °C 95 % 1017,6 hPa 0,0 mm 0,0 km/h (0 Bft) W-NW 287 ° 0 min 0,000 mm 0,0 UV-I 0 W/m² 14,4 °C 15,2 °C 0,0 km/h (0 Bft)
20.08.2019 02:02 15,2 °C 95 % 1017,6 hPa 0,0 mm 0,0 km/h (0 Bft) W-NW 287 ° 0 min 0,000 mm 0,0 UV-I 0 W/m² 14,4 °C 15,2 °C 0,0 km/h (0 Bft)
20.08.2019 02:03 15,2 °C 95 % 1017,6 hPa 0,0 mm 0,0 km/h (0 Bft) W-NW 287 ° 0 min 0,000 mm 0,0 UV-I 0 W/m² 14,4 °C 15,2 °C 0,0 km/h (0 Bft)
20.08.2019 02:04 15,2 °C 95 % 1017,7 hPa 0,0 mm 0,0 km/h (0 Bft) W-NW 287 ° 0 min 0,000 mm 0,0 UV-I 0 W/m² 14,4 °C 15,2 °C 0,0 km/h (0 Bft)
20.08.2019 02:05 15,2 °C 95 % 1017,7 hPa 0,0 mm 0,0 km/h (0 Bft) W-NW 287 ° 0 min 0,000 mm 0,0 UV-I 0 W/m² 14,4 °C 15,2 °C 0,0 km/h (0 Bft)
20.08.2019 02:06 15,2 °C 95 % 1017,7 hPa 0,0 mm 0,0 km/h (0 Bft) W-NW 287 ° 0 min 0,000 mm 0,0 UV-I 0 W/m² 14,4 °C 15,2 °C 0,0 km/h (0 Bft)
20.08.2019 02:07 15,2 °C 95 % 1017,7 hPa 0,0 mm 0,0 km/h (0 Bft) W-NW 287 ° 0 min 0,000 mm 0,0 UV-I 0 W/m² 14,4 °C 15,2 °C 0,0 km/h (0 Bft)
20.08.2019 02:08 15,2 °C 95 % 1017,7 hPa 0,2 mm 0,5 km/h (0 Bft) W-NW 287 ° 0 min 0,000 mm 0,0 UV-I 0 W/m² 14,4 °C 15,2 °C 1,6 km/h (1 Bft)
20.08.2019 02:09 15,1 °C 95 % 1017,7 hPa 0,0 mm 0,6 km/h (0 Bft) W-NW 287 ° 0 min 0,000 mm 0,0 UV-I 0 W/m² 14,3 °C 15,1 °C 3,2 km/h (1 Bft)
20.08.2019 02:10 15,1 °C 95 % 1017,6 hPa 0,0 mm 0,0 km/h (0 Bft) W-NW 287 ° 0 min 0,000 mm 0,0 UV-I 0 W/m² 14,3 °C 15,1 °C 0,0 km/h (0 Bft)
20.08.2019 02:11 15,2 °C 95 % 1017,7 hPa 0,0 mm 0,0 km/h (0 Bft) W-NW 287 ° 0 min 0,000 mm 0,0 UV-I 0 W/m² 14,4 °C 15,2 °C 0,0 km/h (0 Bft)
20.08.2019 02:12 15,1 °C 95 % 1017,7 hPa 0,0 mm 0,0 km/h (0 Bft) W-NW 287 ° 0 min 0,000 mm 0,0 UV-I 0 W/m² 14,3 °C 15,1 °C 0,0 km/h (0 Bft)
20.08.2019 02:13 15,1 °C 95 % 1017,8 hPa 0,0 mm 0,4 km/h (0 Bft) W-NW 287 ° 0 min 0,000 mm 0,0 UV-I 0 W/m² 14,3 °C 15,1 °C 1,6 km/h (1 Bft)
20.08.2019 02:14 15,1 °C 95 % 1017,8 hPa 0,0 mm 1,7 km/h (1 Bft) W-NW 287 ° 0 min 0,000 mm 0,0 UV-I 0 W/m² 14,3 °C 15,1 °C 3,2 km/h (1 Bft)
20.08.2019 02:15 15,1 °C 95 % 1017,8 hPa 0,0 mm 2,0 km/h (1 Bft) W-NW 287 ° 0 min 0,000 mm 0,0 UV-I 0 W/m² 14,3 °C 15,1 °C 3,2 km/h (1 Bft)
20.08.2019 02:16 15,1 °C 95 % 1017,9 hPa 0,0 mm 1,4 km/h (1 Bft) W-NW 287 ° 0 min 0,000 mm 0,0 UV-I 0 W/m² 14,3 °C 15,1 °C 3,2 km/h (1 Bft)
20.08.2019 02:17 15,1 °C 95 % 1017,9 hPa 0,0 mm 0,0 km/h (0 Bft) W-NW 287 ° 0 min 0,000 mm 0,0 UV-I 0 W/m² 14,3 °C 15,1 °C 0,0 km/h (0 Bft)
20.08.2019 02:18 15,1 °C 95 % 1018,0 hPa 0,2 mm 0,8 km/h (0 Bft) W-NW 287 ° 0 min 0,000 mm 0,0 UV-I 0 W/m² 14,3 °C 15,1 °C 3,2 km/h (1 Bft)
20.08.2019 02:19 15,1 °C 95 % 1018,0 hPa 0,0 mm 0,1 km/h (0 Bft) W-NW 287 ° 0 min 0,000 mm 0,0 UV-I 0 W/m² 14,3 °C 15,1 °C 1,6 km/h (1 Bft)
20.08.2019 02:20 15,1 °C 95 % 1018,0 hPa 0,0 mm 0,6 km/h (0 Bft) W-NW 287 ° 0 min 0,000 mm 0,0 UV-I 0 W/m² 14,3 °C 15,1 °C 1,6 km/h (1 Bft)
20.08.2019 02:21 15,1 °C 95 % 1018,0 hPa 0,0 mm 0,1 km/h (0 Bft) W-NW 287 ° 0 min 0,000 mm 0,0 UV-I 0 W/m² 14,3 °C 15,1 °C 1,6 km/h (1 Bft)
20.08.2019 02:22 15,1 °C 95 % 1017,9 hPa 0,0 mm 0,0 km/h (0 Bft) W-NW 287 ° 0 min 0,000 mm 0,0 UV-I 0 W/m² 14,3 °C 15,1 °C 0,0 km/h (0 Bft)
20.08.2019 02:23 15,1 °C 95 % 1017,9 hPa 0,0 mm 0,1 km/h (0 Bft) W-NW 287 ° 0 min 0,000 mm 0,0 UV-I 0 W/m² 14,3 °C 15,1 °C 1,6 km/h (1 Bft)
20.08.2019 02:24 15,0 °C 95 % 1018,0 hPa 0,0 mm 0,2 km/h (0 Bft) W-NW 287 ° 0 min 0,000 mm 0,0 UV-I 0 W/m² 14,2 °C 15,0 °C 1,6 km/h (1 Bft)
20.08.2019 02:25 15,1 °C 95 % 1018,0 hPa 0,0 mm 2,3 km/h (1 Bft) S 183 ° 0 min 0,000 mm 0,0 UV-I 0 W/m² 14,3 °C 15,1 °C 4,8 km/h (1 Bft)
20.08.2019 02:26 15,1 °C 95 % 1017,9 hPa 0,0 mm 2,1 km/h (1 Bft) S 182 ° 0 min 0,000 mm 0,0 UV-I 0 W/m² 14,3 °C 15,1 °C 4,8 km/h (1 Bft)
20.08.2019 02:27 15,1 °C 95 % 1017,9 hPa 0,0 mm 0,1 km/h (0 Bft) S 171 ° 0 min 0,000 mm 0,0 UV-I 0 W/m² 14,3 °C 15,1 °C 1,6 km/h (1 Bft)
20.08.2019 02:28 15,1 °C 95 % 1017,9 hPa 0,0 mm 0,0 km/h (0 Bft) S 171 ° 0 min 0,000 mm 0,0 UV-I 0 W/m² 14,3 °C 15,1 °C 0,0 km/h (0 Bft)
20.08.2019 02:29 15,1 °C 95 % 1017,9 hPa 0,0 mm 2,7 km/h (1 Bft) S-SW 199 ° 0 min 0,000 mm 0,0 UV-I 0 W/m² 14,3 °C 15,1 °C 6,4 km/h (2 Bft)
20.08.2019 02:30 15,1 °C 95 % 1017,9 hPa 0,0 mm 1,8 km/h (1 Bft) S-SW 192 ° 0 min 0,000 mm 0,0 UV-I 0 W/m² 14,3 °C 15,1 °C 3,2 km/h (1 Bft)
20.08.2019 02:31 15,2 °C 95 % 1018,0 hPa 0,0 mm 0,4 km/h (0 Bft) S-SW 192 ° 0 min 0,000 mm 0,0 UV-I 0 W/m² 14,4 °C 15,2 °C 1,6 km/h (1 Bft)
20.08.2019 02:32 15,2 °C 95 % 1018,0 hPa 0,2 mm 1,8 km/h (1 Bft) W-SW 239 ° 0 min 0,000 mm 0,0 UV-I 0 W/m² 14,4 °C 15,2 °C 6,4 km/h (2 Bft)
20.08.2019 02:33 15,2 °C 95 % 1018,0 hPa 0,0 mm 0,5 km/h (0 Bft) W-SW 239 ° 0 min 0,000 mm 0,0 UV-I 0 W/m² 14,4 °C 15,2 °C 3,2 km/h (1 Bft)
20.08.2019 02:34 15,2 °C 95 % 1017,9 hPa 0,0 mm 0,9 km/h (0 Bft) W-SW 239 ° 0 min 0,000 mm 0,0 UV-I 0 W/m² 14,4 °C 15,2 °C 3,2 km/h (1 Bft)
20.08.2019 02:35 15,2 °C 95 % 1017,9 hPa 0,0 mm 0,0 km/h (0 Bft) W-SW 239 ° 0 min 0,000 mm 0,0 UV-I 0 W/m² 14,4 °C 15,2 °C 0,0 km/h (0 Bft)
20.08.2019 02:36 15,2 °C 95 % 1017,9 hPa 0,0 mm 0,3 km/h (0 Bft) W-SW 239 ° 0 min 0,000 mm 0,0 UV-I 0 W/m² 14,4 °C 15,2 °C 1,6 km/h (1 Bft)
20.08.2019 02:37 15,3 °C 95 % 1017,9 hPa 0,0 mm 2,3 km/h (1 Bft) S-SW 197 ° 0 min 0,000 mm 0,0 UV-I 0 W/m² 14,5 °C 15,3 °C 3,2 km/h (1 Bft)
20.08.2019 02:38 15,3 °C 95 % 1017,8 hPa 0,0 mm 0,9 km/h (0 Bft) S-SW 194 ° 0 min 0,000 mm 0,0 UV-I 0 W/m² 14,5 °C 15,3 °C 1,6 km/h (1 Bft)
20.08.2019 02:39 15,2 °C 95 % 1017,8 hPa 0,0 mm 0,0 km/h (0 Bft) S-SW 194 ° 0 min 0,000 mm 0,0 UV-I 0 W/m² 14,4 °C 15,2 °C 0,0 km/h (0 Bft)
20.08.2019 02:40 15,3 °C 95 % 1017,8 hPa 0,0 mm 0,0 km/h (0 Bft) S-SW 194 ° 0 min 0,000 mm 0,0 UV-I 0 W/m² 14,5 °C 15,3 °C 0,0 km/h (0 Bft)
20.08.2019 02:41 15,2 °C 95 % 1017,7 hPa 0,0 mm 0,0 km/h (0 Bft) S-SW 194 ° 0 min 0,000 mm 0,0 UV-I 0 W/m² 14,4 °C 15,2 °C 0,0 km/h (0 Bft)
20.08.2019 02:42 15,2 °C 95 % 1017,8 hPa 0,0 mm 0,0 km/h (0 Bft) S-SW 194 ° 0 min 0,000 mm 0,0 UV-I 0 W/m² 14,4 °C 15,2 °C 0,0 km/h (0 Bft)
20.08.2019 02:43 15,2 °C 95 % 1017,7 hPa 0,0 mm 0,0 km/h (0 Bft) S-SW 194 ° 0 min 0,000 mm 0,0 UV-I 0 W/m² 14,4 °C 15,2 °C 0,0 km/h (0 Bft)
20.08.2019 02:44 15,3 °C 95 % 1017,7 hPa 0,0 mm 0,0 km/h (0 Bft) S-SW 194 ° 0 min 0,000 mm 0,0 UV-I 0 W/m² 14,5 °C 15,3 °C 0,0 km/h (0 Bft)
20.08.2019 02:45 15,3 °C 95 % 1017,7 hPa 0,0 mm 0,0 km/h (0 Bft) S-SW 194 ° 0 min 0,000 mm 0,0 UV-I 0 W/m² 14,5 °C 15,3 °C 0,0 km/h (0 Bft)
20.08.2019 02:46 15,3 °C 95 % 1017,6 hPa 0,0 mm 0,0 km/h (0 Bft) S-SW 194 ° 0 min 0,000 mm 0,0 UV-I 0 W/m² 14,5 °C 15,3 °C 0,0 km/h (0 Bft)
20.08.2019 02:47 15,3 °C 95 % 1017,7 hPa 0,0 mm 0,0 km/h (0 Bft) S-SW 194 ° 0 min 0,000 mm 0,0 UV-I 0 W/m² 14,5 °C 15,3 °C 0,0 km/h (0 Bft)
20.08.2019 02:48 15,3 °C 95 % 1017,6 hPa 0,2 mm 0,0 km/h (0 Bft) S-SW 194 ° 0 min 0,000 mm 0,0 UV-I 0 W/m² 14,5 °C 15,3 °C 0,0 km/h (0 Bft)
20.08.2019 02:49 15,3 °C 95 % 1017,6 hPa 0,0 mm 0,0 km/h (0 Bft) S-SW 194 ° 0 min 0,000 mm 0,0 UV-I 0 W/m² 14,5 °C 15,3 °C 0,0 km/h (0 Bft)
20.08.2019 02:50 15,3 °C 95 % 1017,6 hPa 0,0 mm 0,0 km/h (0 Bft) S-SW 194 ° 0 min 0,000 mm 0,0 UV-I 0 W/m² 14,5 °C 15,3 °C 0,0 km/h (0 Bft)
20.08.2019 02:51 15,3 °C 95 % 1017,6 hPa 0,0 mm 0,0 km/h (0 Bft) S-SW 194 ° 0 min 0,000 mm 0,0 UV-I 0 W/m² 14,5 °C 15,3 °C 0,0 km/h (0 Bft)
20.08.2019 02:52 15,3 °C 95 % 1017,6 hPa 0,0 mm 0,0 km/h (0 Bft) S-SW 194 ° 0 min 0,000 mm 0,0 UV-I 0 W/m² 14,5 °C 15,3 °C 0,0 km/h (0 Bft)
20.08.2019 02:53 15,3 °C 95 % 1017,6 hPa 0,0 mm 0,0 km/h (0 Bft) S-SW 194 ° 0 min 0,000 mm 0,0 UV-I 0 W/m² 14,5 °C 15,3 °C 0,0 km/h (0 Bft)
20.08.2019 02:54 15,3 °C 95 % 1017,6 hPa 0,0 mm 0,0 km/h (0 Bft) S-SW 194 ° 0 min 0,000 mm 0,0 UV-I 0 W/m² 14,5 °C 15,3 °C 0,0 km/h (0 Bft)
20.08.2019 02:55 15,3 °C 95 % 1017,6 hPa 0,0 mm 0,0 km/h (0 Bft) S-SW 194 ° 0 min 0,000 mm 0,0 UV-I 0 W/m² 14,5 °C 15,3 °C 0,0 km/h (0 Bft)
20.08.2019 02:56 15,3 °C 95 % 1017,5 hPa 0,0 mm 0,0 km/h (0 Bft) S-SW 194 ° 0 min 0,000 mm 0,0 UV-I 0 W/m² 14,5 °C 15,3 °C 0,0 km/h (0 Bft)
20.08.2019 02:57 15,3 °C 95 % 1017,5 hPa 0,0 mm 0,0 km/h (0 Bft) S-SW 194 ° 0 min 0,000 mm 0,0 UV-I 0 W/m² 14,5 °C 15,3 °C 0,0 km/h (0 Bft)
20.08.2019 02:58 15,3 °C 95 % 1017,5 hPa 0,0 mm 0,0 km/h (0 Bft) S-SW 194 ° 0 min 0,000 mm 0,0 UV-I 0 W/m² 14,5 °C 15,3 °C 0,0 km/h (0 Bft)
20.08.2019 02:59 15,3 °C 95 % 1017,5 hPa 0,0 mm 0,0 km/h (0 Bft) S-SW 194 ° 0 min 0,000 mm 0,0 UV-I 0 W/m² 14,5 °C 15,3 °C 0,0 km/h (0 Bft)
20.08.2019 03:00 15,2 °C 95 % 1017,5 hPa 0,0 mm 0,0 km/h (0 Bft) S-SW 194 ° 0 min 0,000 mm 0,0 UV-I 0 W/m² 14,4 °C 15,2 °C 0,0 km/h (0 Bft)
20.08.2019 03:01 15,2 °C 95 % 1017,5 hPa 0,2 mm 0,0 km/h (0 Bft) S-SW 194 ° 0 min 0,000 mm 0,0 UV-I 0 W/m² 14,4 °C 15,2 °C 0,0 km/h (0 Bft)
20.08.2019 03:02 15,3 °C 95 % 1017,5 hPa 0,0 mm 0,0 km/h (0 Bft) S-SW 194 ° 0 min 0,000 mm 0,0 UV-I 0 W/m² 14,5 °C 15,3 °C 0,0 km/h (0 Bft)
20.08.2019 03:03 15,2 °C 95 % 1017,5 hPa 0,0 mm 0,0 km/h (0 Bft) S-SW 194 ° 0 min 0,000 mm 0,0 UV-I 0 W/m² 14,4 °C 15,2 °C 0,0 km/h (0 Bft)
20.08.2019 03:04 15,2 °C 95 % 1017,5 hPa 0,0 mm 0,0 km/h (0 Bft) S-SW 194 ° 0 min 0,000 mm 0,0 UV-I 0 W/m² 14,4 °C 15,2 °C 0,0 km/h (0 Bft)
20.08.2019 03:05 15,2 °C 95 % 1017,5 hPa 0,0 mm 0,0 km/h (0 Bft) S-SW 194 ° 0 min 0,000 mm 0,0 UV-I 0 W/m² 14,4 °C 15,2 °C 0,0 km/h (0 Bft)
20.08.2019 03:06 15,2 °C 95 % 1017,5 hPa 0,0 mm 0,0 km/h (0 Bft) S-SW 194 ° 0 min 0,000 mm 0,0 UV-I 0 W/m² 14,4 °C 15,2 °C 0,0 km/h (0 Bft)
20.08.2019 03:07 15,2 °C 95 % 1017,4 hPa 0,0 mm 0,0 km/h (0 Bft) S-SW 194 ° 0 min 0,000 mm 0,0 UV-I 0 W/m² 14,4 °C 15,2 °C 0,0 km/h (0 Bft)
20.08.2019 03:08 15,2 °C 95 % 1017,4 hPa 0,0 mm 0,0 km/h (0 Bft) S-SW 194 ° 0 min 0,000 mm 0,0 UV-I 0 W/m² 14,4 °C 15,2 °C 0,0 km/h (0 Bft)
20.08.2019 03:09 15,2 °C 95 % 1017,3 hPa 0,0 mm 0,0 km/h (0 Bft) S-SW 194 ° 0 min 0,000 mm 0,0 UV-I 0 W/m² 14,4 °C 15,2 °C 0,0 km/h (0 Bft)
20.08.2019 03:10 15,2 °C 95 % 1017,2 hPa 0,0 mm 0,0 km/h (0 Bft) S-SW 194 ° 0 min 0,000 mm 0,0 UV-I 0 W/m² 14,4 °C 15,2 °C 0,0 km/h (0 Bft)
20.08.2019 03:11 15,2 °C 95 % 1017,2 hPa 0,0 mm 0,0 km/h (0 Bft) S-SW 194 ° 0 min 0,000 mm 0,0 UV-I 0 W/m² 14,4 °C 15,2 °C 0,0 km/h (0 Bft)
20.08.2019 03:12 15,2 °C 95 % 1017,2 hPa 0,0 mm 0,0 km/h (0 Bft) S-SW 194 ° 0 min 0,000 mm 0,0 UV-I 0 W/m² 14,4 °C 15,2 °C 0,0 km/h (0 Bft)
20.08.2019 03:13 15,1 °C 95 % 1017,2 hPa 0,0 mm 0,0 km/h (0 Bft) S-SW 194 ° 0 min 0,000 mm 0,0 UV-I 0 W/m² 14,3 °C 15,1 °C 0,0 km/h (0 Bft)
20.08.2019 03:14 15,1 °C 95 % 1017,2 hPa 0,0 mm 0,0 km/h (0 Bft) S-SW 194 ° 0 min 0,000 mm 0,0 UV-I 0 W/m² 14,3 °C 15,1 °C 0,0 km/h (0 Bft)
20.08.2019 03:15 15,1 °C 95 % 1017,2 hPa 0,0 mm 0,0 km/h (0 Bft) S-SW 195 ° 0 min 0,000 mm 0,0 UV-I 0 W/m² 14,3 °C 15,1 °C 0,0 km/h (0 Bft)
20.08.2019 03:16 15,1 °C 95 % 1017,2 hPa 0,2 mm 0,0 km/h (0 Bft) S-SW 195 ° 0 min 0,000 mm 0,0 UV-I 0 W/m² 14,3 °C 15,1 °C 0,0 km/h (0 Bft)
20.08.2019 03:17 15,1 °C 95 % 1017,2 hPa 0,0 mm 0,0 km/h (0 Bft) S-SW 195 ° 0 min 0,000 mm 0,0 UV-I 0 W/m² 14,3 °C 15,1 °C 0,0 km/h (0 Bft)
20.08.2019 03:18 15,1 °C 95 % 1017,2 hPa 0,0 mm 0,0 km/h (0 Bft) S-SW 195 ° 0 min 0,000 mm 0,0 UV-I 0 W/m² 14,3 °C 15,1 °C 0,0 km/h (0 Bft)
20.08.2019 03:19 15,1 °C 95 % 1017,2 hPa 0,0 mm 0,0 km/h (0 Bft) S-SW 195 ° 0 min 0,000 mm 0,0 UV-I 0 W/m² 14,3 °C 15,1 °C 0,0 km/h (0 Bft)
20.08.2019 03:20 15,1 °C 95 % 1017,2 hPa 0,0 mm 0,0 km/h (0 Bft) S-SW 195 ° 0 min 0,000 mm 0,0 UV-I 0 W/m² 14,3 °C 15,1 °C 0,0 km/h (0 Bft)
20.08.2019 03:21 15,1 °C 95 % 1017,1 hPa 0,0 mm 0,0 km/h (0 Bft) S-SW 195 ° 0 min 0,000 mm 0,0 UV-I 0 W/m² 14,3 °C 15,1 °C 0,0 km/h (0 Bft)
20.08.2019 03:22 15,1 °C 95 % 1017,2 hPa 0,0 mm 0,0 km/h (0 Bft) S-SW 195 ° 0 min 0,000 mm 0,0 UV-I 0 W/m² 14,3 °C 15,1 °C 0,0 km/h (0 Bft)
20.08.2019 03:23 15,1 °C 95 % 1017,2 hPa 0,0 mm 0,0 km/h (0 Bft) S-SW 195 ° 0 min 0,000 mm 0,0 UV-I 0 W/m² 14,3 °C 15,1 °C 0,0 km/h (0 Bft)
20.08.2019 03:24 15,1 °C 95 % 1017,2 hPa 0,0 mm 0,0 km/h (0 Bft) S-SW 195 ° 0 min 0,000 mm 0,0 UV-I 0 W/m² 14,3 °C 15,1 °C 0,0 km/h (0 Bft)
20.08.2019 03:25 15,1 °C 95 % 1017,2 hPa 0,0 mm 0,0 km/h (0 Bft) S-SW 195 ° 0 min 0,000 mm 0,0 UV-I 0 W/m² 14,3 °C 15,1 °C 0,0 km/h (0 Bft)
20.08.2019 03:26 15,1 °C 95 % 1017,1 hPa 0,0 mm 0,0 km/h (0 Bft) S-SW 195 ° 0 min 0,000 mm 0,0 UV-I 0 W/m² 14,3 °C 15,1 °C 0,0 km/h (0 Bft)
20.08.2019 03:27 15,1 °C 95 % 1017,2 hPa 0,0 mm 0,0 km/h (0 Bft) S-SW 195 ° 0 min 0,000 mm 0,0 UV-I 0 W/m² 14,3 °C 15,1 °C 0,0 km/h (0 Bft)
20.08.2019 03:28 15,1 °C 96 % 1017,2 hPa 0,0 mm 0,0 km/h (0 Bft) S-SW 195 ° 0 min 0,000 mm 0,0 UV-I 0 W/m² 14,5 °C 15,1 °C 0,0 km/h (0 Bft)
20.08.2019 03:29 15,1 °C 95 % 1017,2 hPa 0,0 mm 0,0 km/h (0 Bft) O-NO 74 ° 0 min 0,000 mm 0,0 UV-I 0 W/m² 14,3 °C 15,1 °C 0,0 km/h (0 Bft)
20.08.2019 03:30 15,0 °C 95 % 1017,1 hPa 0,0 mm 0,0 km/h (0 Bft) O-NO 75 ° 0 min 0,000 mm 0,0 UV-I 0 W/m² 14,2 °C 15,0 °C 0,0 km/h (0 Bft)
20.08.2019 03:31 15,0 °C 95 % 1017,1 hPa 0,0 mm 0,0 km/h (0 Bft) O-NO 75 ° 0 min 0,000 mm 0,0 UV-I 0 W/m² 14,2 °C 15,0 °C 0,0 km/h (0 Bft)
20.08.2019 03:32 15,1 °C 96 % 1017,1 hPa 0,0 mm 0,0 km/h (0 Bft) O-NO 75 ° 0 min 0,000 mm 0,0 UV-I 0 W/m² 14,5 °C 15,1 °C 0,0 km/h (0 Bft)
20.08.2019 03:33 15,1 °C 96 % 1017,0 hPa 0,2 mm 0,0 km/h (0 Bft) O-NO 75 ° 0 min 0,000 mm 0,0 UV-I 0 W/m² 14,5 °C 15,1 °C 0,0 km/h (0 Bft)
20.08.2019 03:34 15,1 °C 96 % 1017,1 hPa 0,0 mm 0,0 km/h (0 Bft) O-NO 75 ° 0 min 0,000 mm 0,0 UV-I 0 W/m² 14,5 °C 15,1 °C 0,0 km/h (0 Bft)
20.08.2019 03:35 15,1 °C 96 % 1017,1 hPa 0,0 mm 0,0 km/h (0 Bft) O-NO 75 ° 0 min 0,000 mm 0,0 UV-I 0 W/m² 14,5 °C 15,1 °C 0,0 km/h (0 Bft)
20.08.2019 03:36 15,1 °C 96 % 1017,1 hPa 0,0 mm 0,8 km/h (0 Bft) W 269 ° 0 min 0,000 mm 0,0 UV-I 0 W/m² 14,5 °C 15,1 °C 3,2 km/h (1 Bft)
20.08.2019 03:37 15,1 °C 96 % 1017,1 hPa 0,0 mm 1,0 km/h (0 Bft) SW 223 ° 0 min 0,000 mm 0,0 UV-I 0 W/m² 14,5 °C 15,1 °C 3,2 km/h (1 Bft)
20.08.2019 03:38 15,0 °C 96 % 1017,1 hPa 0,0 mm 0,0 km/h (0 Bft) SW 223 ° 0 min 0,000 mm 0,0 UV-I 0 W/m² 14,4 °C 15,0 °C 0,0 km/h (0 Bft)
20.08.2019 03:39 15,1 °C 96 % 1017,0 hPa 0,0 mm 0,0 km/h (0 Bft) SW 223 ° 0 min 0,000 mm 0,0 UV-I 0 W/m² 14,5 °C 15,1 °C 0,0 km/h (0 Bft)
20.08.2019 03:40 15,0 °C 96 % 1017,1 hPa 0,0 mm 0,4 km/h (0 Bft) SW 223 ° 0 min 0,000 mm 0,0 UV-I 0 W/m² 14,4 °C 15,0 °C 1,6 km/h (1 Bft)
20.08.2019 03:41 15,0 °C 95 % 1017,1 hPa 0,0 mm 0,0 km/h (0 Bft) SW 223 ° 0 min 0,000 mm 0,0 UV-I 0 W/m² 14,2 °C 15,0 °C 0,0 km/h (0 Bft)
20.08.2019 03:42 14,9 °C 95 % 1017,0 hPa 0,0 mm 0,0 km/h (0 Bft) SW 223 ° 0 min 0,000 mm 0,0 UV-I 0 W/m² 14,1 °C 14,9 °C 0,0 km/h (0 Bft)
20.08.2019 03:43 15,0 °C 95 % 1017,0 hPa 0,0 mm 0,0 km/h (0 Bft) SW 223 ° 0 min 0,000 mm 0,0 UV-I 0 W/m² 14,2 °C 15,0 °C 0,0 km/h (0 Bft)
20.08.2019 03:44 14,9 °C 95 % 1017,0 hPa 0,0 mm 0,0 km/h (0 Bft) SW 223 ° 0 min 0,000 mm 0,0 UV-I 0 W/m² 14,1 °C 14,9 °C 0,0 km/h (0 Bft)
20.08.2019 03:45 14,9 °C 95 % 1017,1 hPa 0,0 mm 0,0 km/h (0 Bft) SW 223 ° 0 min 0,000 mm 0,0 UV-I 0 W/m² 14,1 °C 14,9 °C 0,0 km/h (0 Bft)
20.08.2019 03:46 14,9 °C 95 % 1017,0 hPa 0,0 mm 0,0 km/h (0 Bft) SW 223 ° 0 min 0,000 mm 0,0 UV-I 0 W/m² 14,1 °C 14,9 °C 0,0 km/h (0 Bft)
20.08.2019 03:47 14,9 °C 95 % 1017,1 hPa 0,0 mm 0,0 km/h (0 Bft) SW 223 ° 0 min 0,000 mm 0,0 UV-I 0 W/m² 14,1 °C 14,9 °C 0,0 km/h (0 Bft)
20.08.2019 03:48 14,9 °C 95 % 1017,0 hPa 0,0 mm 0,0 km/h (0 Bft) SW 223 ° 0 min 0,000 mm 0,0 UV-I 0 W/m² 14,1 °C 14,9 °C 0,0 km/h (0 Bft)
20.08.2019 03:49 14,9 °C 95 % 1017,1 hPa 0,0 mm 0,0 km/h (0 Bft) SW 223 ° 0 min 0,000 mm 0,0 UV-I 0 W/m² 14,1 °C 14,9 °C 0,0 km/h (0 Bft)
20.08.2019 03:50 14,9 °C 95 % 1017,1 hPa 0,0 mm 0,0 km/h (0 Bft) SW 223 ° 0 min 0,000 mm 0,0 UV-I 0 W/m² 14,1 °C 14,9 °C 0,0 km/h (0 Bft)
20.08.2019 03:51 14,9 °C 95 % 1017,1 hPa 0,0 mm 0,0 km/h (0 Bft) SW 223 ° 0 min 0,000 mm 0,0 UV-I 0 W/m² 14,1 °C 14,9 °C 0,0 km/h (0 Bft)
20.08.2019 03:52 14,9 °C 95 % 1017,1 hPa 0,0 mm 0,0 km/h (0 Bft) SW 223 ° 0 min 0,000 mm 0,0 UV-I 0 W/m² 14,1 °C 14,9 °C 0,0 km/h (0 Bft)
20.08.2019 03:53 14,9 °C 95 % 1017,1 hPa 0,0 mm 0,0 km/h (0 Bft) SW 223 ° 0 min 0,000 mm 0,0 UV-I 0 W/m² 14,1 °C 14,9 °C 0,0 km/h (0 Bft)
20.08.2019 03:54 14,9 °C 95 % 1017,1 hPa 0,0 mm 0,0 km/h (0 Bft) SW 223 ° 0 min 0,000 mm 0,0 UV-I 0 W/m² 14,1 °C 14,9 °C 0,0 km/h (0 Bft)
20.08.2019 03:55 15,0 °C 95 % 1017,1 hPa 0,0 mm 0,0 km/h (0 Bft) SW 223 ° 0 min 0,000 mm 0,0 UV-I 0 W/m² 14,2 °C 15,0 °C 0,0 km/h (0 Bft)
20.08.2019 03:56 15,0 °C 95 % 1017,0 hPa 0,0 mm 0,0 km/h (0 Bft) SW 223 ° 0 min 0,000 mm 0,0 UV-I 0 W/m² 14,2 °C 15,0 °C 0,0 km/h (0 Bft)
20.08.2019 03:57 15,0 °C 95 % 1017,0 hPa 0,0 mm 0,0 km/h (0 Bft) SW 223 ° 0 min 0,000 mm 0,0 UV-I 0 W/m² 14,2 °C 15,0 °C 0,0 km/h (0 Bft)
20.08.2019 03:58 15,0 °C 95 % 1017,0 hPa 0,0 mm 0,0 km/h (0 Bft) SW 223 ° 0 min 0,000 mm 0,0 UV-I 0 W/m² 14,2 °C 15,0 °C 0,0 km/h (0 Bft)
20.08.2019 03:59 15,0 °C 95 % 1017,0 hPa 0,0 mm 0,0 km/h (0 Bft) SW 223 ° 0 min 0,000 mm 0,0 UV-I 0 W/m² 14,2 °C 15,0 °C 0,0 km/h (0 Bft)
20.08.2019 04:00 15,1 °C 95 % 1017,0 hPa 0,0 mm 0,1 km/h (0 Bft) SW 223 ° 0 min 0,000 mm 0,0 UV-I 0 W/m² 14,3 °C 15,1 °C 1,6 km/h (1 Bft)
20.08.2019 04:01 15,0 °C 95 % 1017,0 hPa 0,0 mm 0,0 km/h (0 Bft) SW 223 ° 0 min 0,000 mm 0,0 UV-I 0 W/m² 14,2 °C 15,0 °C 0,0 km/h (0 Bft)
20.08.2019 04:02 15,0 °C 96 % 1017,0 hPa 0,0 mm 0,0 km/h (0 Bft) SW 223 ° 0 min 0,000 mm 0,0 UV-I 0 W/m² 14,4 °C 15,0 °C 0,0 km/h (0 Bft)
20.08.2019 04:03 15,0 °C 96 % 1017,0 hPa 0,0 mm 0,0 km/h (0 Bft) SW 223 ° 0 min 0,000 mm 0,0 UV-I 0 W/m² 14,4 °C 15,0 °C 0,0 km/h (0 Bft)
20.08.2019 04:04 15,0 °C 96 % 1017,0 hPa 0,0 mm 0,0 km/h (0 Bft) SW 223 ° 0 min 0,000 mm 0,0 UV-I 0 W/m² 14,4 °C 15,0 °C 0,0 km/h (0 Bft)
20.08.2019 04:05 15,1 °C 96 % 1017,0 hPa 0,0 mm 0,0 km/h (0 Bft) SW 223 ° 0 min 0,000 mm 0,0 UV-I 0 W/m² 14,5 °C 15,1 °C 0,0 km/h (0 Bft)
20.08.2019 04:06 15,0 °C 96 % 1017,0 hPa 0,0 mm 0,0 km/h (0 Bft) SW 223 ° 0 min 0,000 mm 0,0 UV-I 0 W/m² 14,4 °C 15,0 °C 0,0 km/h (0 Bft)
20.08.2019 04:07 15,0 °C 95 % 1017,0 hPa 0,0 mm 0,0 km/h (0 Bft) SW 223 ° 0 min 0,000 mm 0,0 UV-I 0 W/m² 14,2 °C 15,0 °C 0,0 km/h (0 Bft)
20.08.2019 04:08 15,0 °C 95 % 1017,0 hPa 0,0 mm 0,0 km/h (0 Bft) SW 223 ° 0 min 0,000 mm 0,0 UV-I 0 W/m² 14,2 °C 15,0 °C 0,0 km/h (0 Bft)
20.08.2019 04:09 14,9 °C 95 % 1016,9 hPa 0,0 mm 0,0 km/h (0 Bft) SW 223 ° 0 min 0,000 mm 0,0 UV-I 0 W/m² 14,1 °C 14,9 °C 0,0 km/h (0 Bft)
20.08.2019 04:10 14,9 °C 95 % 1016,8 hPa 0,0 mm 0,0 km/h (0 Bft) SW 223 ° 0 min 0,000 mm 0,0 UV-I 0 W/m² 14,1 °C 14,9 °C 0,0 km/h (0 Bft)
20.08.2019 04:11 14,9 °C 95 % 1016,8 hPa 0,0 mm 0,0 km/h (0 Bft) SW 223 ° 0 min 0,000 mm 0,0 UV-I 0 W/m² 14,1 °C 14,9 °C 0,0 km/h (0 Bft)
20.08.2019 04:12 14,9 °C 95 % 1016,8 hPa 0,0 mm 0,0 km/h (0 Bft) SW 223 ° 0 min 0,000 mm 0,0 UV-I 0 W/m² 14,1 °C 14,9 °C 0,0 km/h (0 Bft)
20.08.2019 04:13 14,9 °C 95 % 1016,8 hPa 0,0 mm 0,0 km/h (0 Bft) SW 223 ° 0 min 0,000 mm 0,0 UV-I 0 W/m² 14,1 °C 14,9 °C 0,0 km/h (0 Bft)
20.08.2019 04:14 14,9 °C 95 % 1016,8 hPa 0,0 mm 0,0 km/h (0 Bft) SW 223 ° 0 min 0,000 mm 0,0 UV-I 0 W/m² 14,1 °C 14,9 °C 0,0 km/h (0 Bft)
20.08.2019 04:15 14,9 °C 95 % 1016,8 hPa 0,0 mm 0,0 km/h (0 Bft) SW 223 ° 0 min 0,000 mm 0,0 UV-I 0 W/m² 14,1 °C 14,9 °C 0,0 km/h (0 Bft)
20.08.2019 04:16 14,9 °C 95 % 1016,8 hPa 0,0 mm 0,0 km/h (0 Bft) SW 223 ° 0 min 0,000 mm 0,0 UV-I 0 W/m² 14,1 °C 14,9 °C 0,0 km/h (0 Bft)
20.08.2019 04:17 14,9 °C 95 % 1016,7 hPa 0,0 mm 0,0 km/h (0 Bft) SW 223 ° 0 min 0,000 mm 0,0 UV-I 0 W/m² 14,1 °C 14,9 °C 0,0 km/h (0 Bft)
20.08.2019 04:18 14,9 °C 95 % 1016,7 hPa 0,0 mm 0,0 km/h (0 Bft) SW 223 ° 0 min 0,000 mm 0,0 UV-I 0 W/m² 14,1 °C 14,9 °C 0,0 km/h (0 Bft)
20.08.2019 04:19 14,9 °C 95 % 1016,7 hPa 0,0 mm 0,0 km/h (0 Bft) SW 223 ° 0 min 0,000 mm 0,0 UV-I 0 W/m² 14,1 °C 14,9 °C 0,0 km/h (0 Bft)
20.08.2019 04:20 14,9 °C 95 % 1016,7 hPa 0,0 mm 0,0 km/h (0 Bft) SW 223 ° 0 min 0,000 mm 0,0 UV-I 0 W/m² 14,1 °C 14,9 °C 0,0 km/h (0 Bft)
20.08.2019 04:21 14,9 °C 95 % 1016,7 hPa 0,0 mm 0,0 km/h (0 Bft) SW 223 ° 0 min 0,000 mm 0,0 UV-I 0 W/m² 14,1 °C 14,9 °C 0,0 km/h (0 Bft)
20.08.2019 04:22 14,9 °C 95 % 1016,7 hPa 0,0 mm 0,0 km/h (0 Bft) SW 223 ° 0 min 0,000 mm 0,0 UV-I 0 W/m² 14,1 °C 14,9 °C 0,0 km/h (0 Bft)
20.08.2019 04:23 14,9 °C 95 % 1016,7 hPa 0,0 mm 0,0 km/h (0 Bft) SW 223 ° 0 min 0,000 mm 0,0 UV-I 0 W/m² 14,1 °C 14,9 °C 0,0 km/h (0 Bft)
20.08.2019 04:24 14,9 °C 95 % 1016,8 hPa 0,0 mm 0,0 km/h (0 Bft) SW 223 ° 0 min 0,000 mm 0,0 UV-I 0 W/m² 14,1 °C 14,9 °C 0,0 km/h (0 Bft)
20.08.2019 04:25 14,8 °C 96 % 1016,8 hPa 0,0 mm 0,0 km/h (0 Bft) SW 223 ° 0 min 0,000 mm 0,0 UV-I 0 W/m² 14,2 °C 14,8 °C 0,0 km/h (0 Bft)
20.08.2019 04:26 14,8 °C 96 % 1016,8 hPa 0,0 mm 0,0 km/h (0 Bft) SW 223 ° 0 min 0,000 mm 0,0 UV-I 0 W/m² 14,2 °C 14,8 °C 0,0 km/h (0 Bft)
20.08.2019 04:27 14,8 °C 96 % 1016,7 hPa 0,0 mm 0,0 km/h (0 Bft) SW 223 ° 0 min 0,000 mm 0,0 UV-I 0 W/m² 14,2 °C 14,8 °C 0,0 km/h (0 Bft)
20.08.2019 04:28 14,8 °C 96 % 1016,7 hPa 0,0 mm 0,0 km/h (0 Bft) SW 223 ° 0 min 0,000 mm 0,0 UV-I 0 W/m² 14,2 °C 14,8 °C 0,0 km/h (0 Bft)
20.08.2019 04:29 14,8 °C 96 % 1016,7 hPa 0,0 mm 0,0 km/h (0 Bft) SW 223 ° 0 min 0,000 mm 0,0 UV-I 0 W/m² 14,2 °C 14,8 °C 0,0 km/h (0 Bft)
20.08.2019 04:30 14,8 °C 96 % 1016,8 hPa 0,0 mm 0,0 km/h (0 Bft) SW 223 ° 0 min 0,000 mm 0,0 UV-I 0 W/m² 14,2 °C 14,8 °C 0,0 km/h (0 Bft)
20.08.2019 04:31 14,8 °C 96 % 1016,7 hPa 0,0 mm 0,0 km/h (0 Bft) SW 223 ° 0 min 0,000 mm 0,0 UV-I 0 W/m² 14,2 °C 14,8 °C 0,0 km/h (0 Bft)
20.08.2019 04:32 14,9 °C 96 % 1016,7 hPa 0,0 mm 0,0 km/h (0 Bft) SW 223 ° 0 min 0,000 mm 0,0 UV-I 0 W/m² 14,3 °C 14,9 °C 0,0 km/h (0 Bft)
20.08.2019 04:33 14,9 °C 96 % 1016,7 hPa 0,0 mm 0,0 km/h (0 Bft) SW 223 ° 0 min 0,000 mm 0,0 UV-I 0 W/m² 14,3 °C 14,9 °C 0,0 km/h (0 Bft)
20.08.2019 04:34 14,9 °C 96 % 1016,7 hPa 0,0 mm 0,0 km/h (0 Bft) SW 223 ° 0 min 0,000 mm 0,0 UV-I 0 W/m² 14,3 °C 14,9 °C 0,0 km/h (0 Bft)
20.08.2019 04:35 14,9 °C 96 % 1016,6 hPa 0,0 mm 0,0 km/h (0 Bft) SW 223 ° 0 min 0,000 mm 0,0 UV-I 0 W/m² 14,3 °C 14,9 °C 0,0 km/h (0 Bft)
20.08.2019 04:36 14,9 °C 96 % 1016,6 hPa 0,0 mm 0,0 km/h (0 Bft) SW 223 ° 0 min 0,000 mm 0,0 UV-I 0 W/m² 14,3 °C 14,9 °C 0,0 km/h (0 Bft)
20.08.2019 04:37 14,9 °C 96 % 1016,6 hPa 0,0 mm 0,0 km/h (0 Bft) SW 223 ° 0 min 0,000 mm 0,0 UV-I 0 W/m² 14,3 °C 14,9 °C 0,0 km/h (0 Bft)
20.08.2019 04:38 14,8 °C 96 % 1016,6 hPa 0,0 mm 0,0 km/h (0 Bft) SW 223 ° 0 min 0,000 mm 0,0 UV-I 0 W/m² 14,2 °C 14,8 °C 0,0 km/h (0 Bft)
20.08.2019 04:39 14,8 °C 96 % 1016,7 hPa 0,0 mm 0,0 km/h (0 Bft) SW 223 ° 0 min 0,000 mm 0,0 UV-I 0 W/m² 14,2 °C 14,8 °C 0,0 km/h (0 Bft)
20.08.2019 04:40 14,8 °C 96 % 1016,7 hPa 0,0 mm 0,0 km/h (0 Bft) SW 223 ° 0 min 0,000 mm 0,0 UV-I 0 W/m² 14,2 °C 14,8 °C 0,0 km/h (0 Bft)
20.08.2019 04:41 14,8 °C 96 % 1016,7 hPa 0,0 mm 0,0 km/h (0 Bft) SW 223 ° 0 min 0,000 mm 0,0 UV-I 0 W/m² 14,2 °C 14,8 °C 0,0 km/h (0 Bft)
20.08.2019 04:42 14,7 °C 96 % 1016,7 hPa 0,0 mm 0,0 km/h (0 Bft) SW 223 ° 0 min 0,000 mm 0,0 UV-I 0 W/m² 14,1 °C 14,7 °C 0,0 km/h (0 Bft)
20.08.2019 04:43 14,7 °C 96 % 1016,7 hPa 0,0 mm 0,0 km/h (0 Bft) SW 223 ° 0 min 0,000 mm 0,0 UV-I 0 W/m² 14,1 °C 14,7 °C 0,0 km/h (0 Bft)
20.08.2019 04:44 14,7 °C 96 % 1016,7 hPa 0,0 mm 0,0 km/h (0 Bft) SW 223 ° 0 min 0,000 mm 0,0 UV-I 0 W/m² 14,1 °C 14,7 °C 0,0 km/h (0 Bft)
20.08.2019 04:45 14,7 °C 96 % 1016,7 hPa 0,0 mm 0,0 km/h (0 Bft) SW 223 ° 0 min 0,000 mm 0,0 UV-I 0 W/m² 14,1 °C 14,7 °C 0,0 km/h (0 Bft)
20.08.2019 04:46 14,7 °C 95 % 1016,7 hPa 0,0 mm 0,0 km/h (0 Bft) SW 223 ° 0 min 0,000 mm 0,0 UV-I 0 W/m² 13,9 °C 14,7 °C 0,0 km/h (0 Bft)
20.08.2019 04:47 14,7 °C 95 % 1016,7 hPa 0,0 mm 0,0 km/h (0 Bft) SW 223 ° 0 min 0,000 mm 0,0 UV-I 0 W/m² 13,9 °C 14,7 °C 0,0 km/h (0 Bft)
20.08.2019 04:48 14,7 °C 95 % 1016,7 hPa 0,0 mm 0,0 km/h (0 Bft) SW 223 ° 0 min 0,000 mm 0,0 UV-I 0 W/m² 13,9 °C 14,7 °C 0,0 km/h (0 Bft)
20.08.2019 04:49 14,7 °C 95 % 1016,7 hPa 0,0 mm 0,0 km/h (0 Bft) SW 223 ° 0 min 0,000 mm 0,0 UV-I 0 W/m² 13,9 °C 14,7 °C 0,0 km/h (0 Bft)
20.08.2019 04:50 14,7 °C 96 % 1016,7 hPa 0,0 mm 0,0 km/h (0 Bft) SW 223 ° 0 min 0,000 mm 0,0 UV-I 0 W/m² 14,1 °C 14,7 °C 0,0 km/h (0 Bft)
20.08.2019 04:51 14,7 °C 96 % 1016,7 hPa 0,0 mm 0,0 km/h (0 Bft) SW 223 ° 0 min 0,000 mm 0,0 UV-I 0 W/m² 14,1 °C 14,7 °C 0,0 km/h (0 Bft)
20.08.2019 04:52 14,7 °C 96 % 1016,7 hPa 0,0 mm 0,0 km/h (0 Bft) SW 223 ° 0 min 0,000 mm 0,0 UV-I 0 W/m² 14,1 °C 14,7 °C 0,0 km/h (0 Bft)
20.08.2019 04:53 14,7 °C 96 % 1016,6 hPa 0,0 mm 0,0 km/h (0 Bft) SW 223 ° 0 min 0,000 mm 0,0 UV-I 0 W/m² 14,1 °C 14,7 °C 0,0 km/h (0 Bft)
20.08.2019 04:54 14,8 °C 96 % 1016,6 hPa 0,0 mm 0,0 km/h (0 Bft) SW 223 ° 0 min 0,000 mm 0,0 UV-I 0 W/m² 14,2 °C 14,8 °C 0,0 km/h (0 Bft)
20.08.2019 04:55 14,8 °C 96 % 1016,6 hPa 0,0 mm 0,0 km/h (0 Bft) SW 223 ° 0 min 0,000 mm 0,0 UV-I 0 W/m² 14,2 °C 14,8 °C 0,0 km/h (0 Bft)
20.08.2019 04:56 14,8 °C 96 % 1016,6 hPa 0,0 mm 0,0 km/h (0 Bft) SW 223 ° 0 min 0,000 mm 0,0 UV-I 0 W/m² 14,2 °C 14,8 °C 0,0 km/h (0 Bft)
20.08.2019 04:57 14,8 °C 96 % 1016,6 hPa 0,0 mm 0,0 km/h (0 Bft) SW 223 ° 0 min 0,000 mm 0,0 UV-I 0 W/m² 14,2 °C 14,8 °C 0,0 km/h (0 Bft)
20.08.2019 04:58 14,8 °C 96 % 1016,6 hPa 0,0 mm 0,0 km/h (0 Bft) SW 223 ° 0 min 0,000 mm 0,0 UV-I 0 W/m² 14,2 °C 14,8 °C 0,0 km/h (0 Bft)
20.08.2019 04:59 14,8 °C 96 % 1016,6 hPa 0,0 mm 0,0 km/h (0 Bft) SW 223 ° 0 min 0,000 mm 0,0 UV-I 0 W/m² 14,2 °C 14,8 °C 0,0 km/h (0 Bft)
20.08.2019 05:00 14,8 °C 96 % 1016,6 hPa 0,0 mm 0,0 km/h (0 Bft) SW 223 ° 0 min 0,000 mm 0,0 UV-I 0 W/m² 14,2 °C 14,8 °C 0,0 km/h (0 Bft)
20.08.2019 05:01 14,8 °C 96 % 1016,5 hPa 0,0 mm 0,0 km/h (0 Bft) SW 223 ° 0 min 0,000 mm 0,0 UV-I 0 W/m² 14,2 °C 14,8 °C 0,0 km/h (0 Bft)
20.08.2019 05:02 14,8 °C 96 % 1016,5 hPa 0,0 mm 0,0 km/h (0 Bft) SW 223 ° 0 min 0,000 mm 0,0 UV-I 0 W/m² 14,2 °C 14,8 °C 0,0 km/h (0 Bft)
20.08.2019 05:03 14,8 °C 96 % 1016,5 hPa 0,0 mm 0,0 km/h (0 Bft) SW 223 ° 0 min 0,000 mm 0,0 UV-I 0 W/m² 14,2 °C 14,8 °C 0,0 km/h (0 Bft)
20.08.2019 05:04 14,8 °C 96 % 1016,5 hPa 0,0 mm 0,0 km/h (0 Bft) SW 223 ° 0 min 0,000 mm 0,0 UV-I 0 W/m² 14,2 °C 14,8 °C 0,0 km/h (0 Bft)
20.08.2019 05:05 14,8 °C 96 % 1016,6 hPa 0,0 mm 0,0 km/h (0 Bft) SW 223 ° 0 min 0,000 mm 0,0 UV-I 0 W/m² 14,2 °C 14,8 °C 0,0 km/h (0 Bft)
20.08.2019 05:06 14,8 °C 96 % 1016,6 hPa 0,0 mm 0,0 km/h (0 Bft) SW 223 ° 0 min 0,000 mm 0,0 UV-I 0 W/m² 14,2 °C 14,8 °C 0,0 km/h (0 Bft)
20.08.2019 05:07 14,8 °C 96 % 1016,6 hPa 0,0 mm 0,0 km/h (0 Bft) SW 223 ° 0 min 0,000 mm 0,0 UV-I 0 W/m² 14,2 °C 14,8 °C 0,0 km/h (0 Bft)
20.08.2019 05:08 14,8 °C 96 % 1016,7 hPa 0,0 mm 0,0 km/h (0 Bft) SW 223 ° 0 min 0,000 mm 0,0 UV-I 0 W/m² 14,2 °C 14,8 °C 0,0 km/h (0 Bft)
20.08.2019 05:09 14,8 °C 96 % 1016,6 hPa 0,0 mm 0,0 km/h (0 Bft) SW 223 ° 0 min 0,000 mm 0,0 UV-I 0 W/m² 14,2 °C 14,8 °C 0,0 km/h (0 Bft)
20.08.2019 05:10 14,8 °C 96 % 1016,7 hPa 0,0 mm 0,0 km/h (0 Bft) SW 223 ° 0 min 0,000 mm 0,0 UV-I 0 W/m² 14,2 °C 14,8 °C 0,0 km/h (0 Bft)
20.08.2019 05:11 14,8 °C 96 % 1016,7 hPa 0,0 mm 0,0 km/h (0 Bft) SW 223 ° 0 min 0,000 mm 0,0 UV-I 0 W/m² 14,2 °C 14,8 °C 0,0 km/h (0 Bft)
20.08.2019 05:12 14,8 °C 96 % 1016,7 hPa 0,0 mm 0,0 km/h (0 Bft) SW 223 ° 0 min 0,000 mm 0,0 UV-I 0 W/m² 14,2 °C 14,8 °C 0,0 km/h (0 Bft)
20.08.2019 05:13 14,8 °C 96 % 1016,7 hPa 0,0 mm 0,0 km/h (0 Bft) SW 223 ° 0 min 0,000 mm 0,0 UV-I 0 W/m² 14,2 °C 14,8 °C 0,0 km/h (0 Bft)
20.08.2019 05:14 14,8 °C 96 % 1016,7 hPa 0,0 mm 0,0 km/h (0 Bft) SW 223 ° 0 min 0,000 mm 0,0 UV-I 0 W/m² 14,2 °C 14,8 °C 0,0 km/h (0 Bft)
20.08.2019 05:15 14,8 °C 96 % 1016,7 hPa 0,0 mm 0,0 km/h (0 Bft) SW 223 ° 0 min 0,000 mm 0,0 UV-I 0 W/m² 14,2 °C 14,8 °C 0,0 km/h (0 Bft)
20.08.2019 05:16 14,8 °C 96 % 1016,7 hPa 0,0 mm 0,0 km/h (0 Bft) SW 223 ° 0 min 0,000 mm 0,0 UV-I 0 W/m² 14,2 °C 14,8 °C 0,0 km/h (0 Bft)
20.08.2019 05:17 14,7 °C 96 % 1016,7 hPa 0,0 mm 0,0 km/h (0 Bft) SW 223 ° 0 min 0,000 mm 0,0 UV-I 0 W/m² 14,1 °C 14,7 °C 0,0 km/h (0 Bft)
20.08.2019 05:18 14,7 °C 96 % 1016,7 hPa 0,0 mm 0,0 km/h (0 Bft) SW 223 ° 0 min 0,000 mm 0,0 UV-I 0 W/m² 14,1 °C 14,7 °C 0,0 km/h (0 Bft)
20.08.2019 05:19 14,7 °C 96 % 1016,7 hPa 0,0 mm 0,0 km/h (0 Bft) SW 223 ° 0 min 0,000 mm 0,0 UV-I 0 W/m² 14,1 °C 14,7 °C 0,0 km/h (0 Bft)
20.08.2019 05:20 14,7 °C 96 % 1016,7 hPa 0,0 mm 0,0 km/h (0 Bft) SW 223 ° 0 min 0,000 mm 0,0 UV-I 0 W/m² 14,1 °C 14,7 °C 0,0 km/h (0 Bft)
20.08.2019 05:21 14,7 °C 96 % 1016,7 hPa 0,0 mm 0,0 km/h (0 Bft) SW 223 ° 0 min 0,000 mm 0,0 UV-I 0 W/m² 14,1 °C 14,7 °C 0,0 km/h (0 Bft)
20.08.2019 05:22 14,8 °C 96 % 1016,7 hPa 0,0 mm 0,0 km/h (0 Bft) SW 223 ° 0 min 0,000 mm 0,0 UV-I 0 W/m² 14,2 °C 14,8 °C 0,0 km/h (0 Bft)
20.08.2019 05:23 14,7 °C 96 % 1016,7 hPa 0,0 mm 0,0 km/h (0 Bft) SW 223 ° 0 min 0,000 mm 0,0 UV-I 0 W/m² 14,1 °C 14,7 °C 0,0 km/h (0 Bft)
20.08.2019 05:24 14,7 °C 96 % 1016,7 hPa 0,0 mm 0,0 km/h (0 Bft) SW 223 ° 0 min 0,000 mm 0,0 UV-I 0 W/m² 14,1 °C 14,7 °C 0,0 km/h (0 Bft)
20.08.2019 05:25 14,7 °C 96 % 1016,7 hPa 0,0 mm 0,0 km/h (0 Bft) SW 223 ° 0 min 0,000 mm 0,0 UV-I 0 W/m² 14,1 °C 14,7 °C 0,0 km/h (0 Bft)
20.08.2019 05:26 14,7 °C 96 % 1016,7 hPa 0,0 mm 0,0 km/h (0 Bft) SW 223 ° 0 min 0,000 mm 0,0 UV-I 0 W/m² 14,1 °C 14,7 °C 0,0 km/h (0 Bft)
20.08.2019 05:27 14,7 °C 96 % 1016,7 hPa 0,0 mm 0,0 km/h (0 Bft) SW 223 ° 0 min 0,000 mm 0,0 UV-I 0 W/m² 14,1 °C 14,7 °C 0,0 km/h (0 Bft)
20.08.2019 05:28 14,7 °C 96 % 1016,7 hPa 0,0 mm 0,0 km/h (0 Bft) SW 223 ° 0 min 0,000 mm 0,0 UV-I 0 W/m² 14,1 °C 14,7 °C 0,0 km/h (0 Bft)
20.08.2019 05:29 14,7 °C 96 % 1016,7 hPa 0,0 mm 0,0 km/h (0 Bft) SW 223 ° 0 min 0,000 mm 0,0 UV-I 0 W/m² 14,1 °C 14,7 °C 0,0 km/h (0 Bft)
20.08.2019 05:30 14,7 °C 96 % 1016,7 hPa 0,0 mm 0,0 km/h (0 Bft) SW 223 ° 0 min 0,000 mm 0,0 UV-I 0 W/m² 14,1 °C 14,7 °C 0,0 km/h (0 Bft)
20.08.2019 05:31 14,7 °C 96 % 1016,7 hPa 0,0 mm 0,0 km/h (0 Bft) SW 223 ° 0 min 0,000 mm 0,0 UV-I 0 W/m² 14,1 °C 14,7 °C 0,0 km/h (0 Bft)
20.08.2019 05:32 14,7 °C 96 % 1016,8 hPa 0,0 mm 0,0 km/h (0 Bft) SW 223 ° 0 min 0,000 mm 0,0 UV-I 0 W/m² 14,1 °C 14,7 °C 0,0 km/h (0 Bft)
20.08.2019 05:33 14,7 °C 96 % 1016,9 hPa 0,0 mm 0,0 km/h (0 Bft) SW 223 ° 0 min 0,000 mm 0,0 UV-I 0 W/m² 14,1 °C 14,7 °C 0,0 km/h (0 Bft)
20.08.2019 05:34 14,7 °C 96 % 1016,9 hPa 0,0 mm 0,0 km/h (0 Bft) SW 223 ° 0 min 0,000 mm 0,0 UV-I 0 W/m² 14,1 °C 14,7 °C 0,0 km/h (0 Bft)
20.08.2019 05:35 14,7 °C 96 % 1017,0 hPa 0,0 mm 0,0 km/h (0 Bft) SW 223 ° 0 min 0,000 mm 0,0 UV-I 0 W/m² 14,1 °C 14,7 °C 0,0 km/h (0 Bft)
20.08.2019 05:36 14,7 °C 96 % 1017,0 hPa 0,0 mm 0,0 km/h (0 Bft) SW 223 ° 0 min 0,000 mm 0,0 UV-I 0 W/m² 14,1 °C 14,7 °C 0,0 km/h (0 Bft)
20.08.2019 05:37 14,7 °C 96 % 1017,0 hPa 0,0 mm 0,0 km/h (0 Bft) SW 223 ° 0 min 0,000 mm 0,0 UV-I 0 W/m² 14,1 °C 14,7 °C 0,0 km/h (0 Bft)
20.08.2019 05:38 14,8 °C 96 % 1017,0 hPa 0,0 mm 0,0 km/h (0 Bft) SW 223 ° 0 min 0,000 mm 0,0 UV-I 0 W/m² 14,2 °C 14,8 °C 0,0 km/h (0 Bft)
20.08.2019 05:39 14,8 °C 96 % 1017,0 hPa 0,0 mm 0,9 km/h (0 Bft) SW 223 ° 0 min 0,000 mm 0,0 UV-I 0 W/m² 14,2 °C 14,8 °C 3,2 km/h (1 Bft)
20.08.2019 05:40 14,8 °C 96 % 1017,1 hPa 0,0 mm 3,0 km/h (1 Bft) SW 232 ° 0 min 0,000 mm 0,0 UV-I 0 W/m² 14,2 °C 14,8 °C 4,8 km/h (1 Bft)
20.08.2019 05:41 14,7 °C 96 % 1017,1 hPa 0,0 mm 2,7 km/h (1 Bft) SW 232 ° 0 min 0,000 mm 0,0 UV-I 0 W/m² 14,1 °C 14,7 °C 4,8 km/h (1 Bft)
20.08.2019 05:42 14,7 °C 96 % 1017,1 hPa 0,0 mm 3,7 km/h (1 Bft) SW 232 ° 0 min 0,000 mm 0,0 UV-I 0 W/m² 14,1 °C 14,7 °C 4,8 km/h (1 Bft)
20.08.2019 05:43 14,7 °C 96 % 1017,1 hPa 0,0 mm 3,5 km/h (1 Bft) W-SW 252 ° 0 min 0,000 mm 0,0 UV-I 0 W/m² 14,1 °C 14,7 °C 4,8 km/h (1 Bft)
20.08.2019 05:44 14,8 °C 96 % 1017,1 hPa 0,0 mm 3,1 km/h (1 Bft) W-SW 251 ° 0 min 0,000 mm 0,0 UV-I 0 W/m² 14,2 °C 14,8 °C 6,4 km/h (2 Bft)
20.08.2019 05:45 14,8 °C 96 % 1017,1 hPa 0,0 mm 2,7 km/h (1 Bft) W-SW 251 ° 0 min 0,000 mm 0,0 UV-I 0 W/m² 14,2 °C 14,8 °C 4,8 km/h (1 Bft)
20.08.2019 05:46 14,8 °C 96 % 1017,1 hPa 0,0 mm 3,0 km/h (1 Bft) W-SW 251 ° 0 min 0,000 mm 0,0 UV-I 0 W/m² 14,2 °C 14,8 °C 3,2 km/h (1 Bft)
20.08.2019 05:47 14,8 °C 96 % 1017,2 hPa 0,0 mm 2,9 km/h (1 Bft) W-SW 251 ° 0 min 0,000 mm 0,0 UV-I 0 W/m² 14,2 °C 14,8 °C 4,8 km/h (1 Bft)
20.08.2019 05:48 14,8 °C 96 % 1017,2 hPa 0,0 mm 3,4 km/h (1 Bft) W-SW 251 ° 0 min 0,000 mm 0,0 UV-I 0 W/m² 14,2 °C 14,8 °C 4,8 km/h (1 Bft)
20.08.2019 05:49 14,8 °C 96 % 1017,2 hPa 0,0 mm 0,7 km/h (0 Bft) W-SW 251 ° 0 min 0,000 mm 0,0 UV-I 0 W/m² 14,2 °C 14,8 °C 1,6 km/h (1 Bft)
20.08.2019 05:50 14,8 °C 96 % 1017,2 hPa 0,0 mm 0,0 km/h (0 Bft) W-SW 251 ° 0 min 0,000 mm 0,0 UV-I 0 W/m² 14,2 °C 14,8 °C 0,0 km/h (0 Bft)
20.08.2019 05:51 14,8 °C 96 % 1017,2 hPa 0,0 mm 0,0 km/h (0 Bft) W-SW 251 ° 0 min 0,000 mm 0,0 UV-I 0 W/m² 14,2 °C 14,8 °C 0,0 km/h (0 Bft)
20.08.2019 05:52 14,8 °C 96 % 1017,2 hPa 0,0 mm 0,0 km/h (0 Bft) W-SW 251 ° 0 min 0,000 mm 0,0 UV-I 0 W/m² 14,2 °C 14,8 °C 0,0 km/h (0 Bft)
20.08.2019 05:53 14,8 °C 96 % 1017,1 hPa 0,0 mm 0,0 km/h (0 Bft) W-SW 251 ° 0 min 0,000 mm 0,0 UV-I 0 W/m² 14,2 °C 14,8 °C 0,0 km/h (0 Bft)
20.08.2019 05:54 14,8 °C 96 % 1017,1 hPa 0,0 mm 0,0 km/h (0 Bft) W-SW 251 ° 0 min 0,000 mm 0,0 UV-I 0 W/m² 14,2 °C 14,8 °C 0,0 km/h (0 Bft)
20.08.2019 05:55 14,9 °C 96 % 1017,1 hPa 0,0 mm 0,0 km/h (0 Bft) W-SW 251 ° 0 min 0,000 mm 0,0 UV-I 0 W/m² 14,3 °C 14,9 °C 0,0 km/h (0 Bft)
20.08.2019 05:56 14,9 °C 96 % 1017,1 hPa 0,0 mm 0,0 km/h (0 Bft) W-SW 251 ° 0 min 0,000 mm 0,0 UV-I 0 W/m² 14,3 °C 14,9 °C 0,0 km/h (0 Bft)
20.08.2019 05:57 14,8 °C 96 % 1017,0 hPa 0,0 mm 0,0 km/h (0 Bft) W-SW 251 ° 0 min 0,000 mm 0,0 UV-I 0 W/m² 14,2 °C 14,8 °C 0,0 km/h (0 Bft)
20.08.2019 05:58 14,9 °C 96 % 1017,0 hPa 0,0 mm 0,0 km/h (0 Bft) W-SW 251 ° 0 min 0,000 mm 0,0 UV-I 0 W/m² 14,3 °C 14,9 °C 0,0 km/h (0 Bft)
20.08.2019 05:59 14,8 °C 96 % 1017,0 hPa 0,0 mm 0,0 km/h (0 Bft) W-SW 251 ° 0 min 0,000 mm 0,0 UV-I 0 W/m² 14,2 °C 14,8 °C 0,0 km/h (0 Bft)
20.08.2019 06:00 14,8 °C 96 % 1016,9 hPa 0,0 mm 0,0 km/h (0 Bft) W-SW 251 ° 0 min 0,000 mm 0,0 UV-I 0 W/m² 14,2 °C 14,8 °C 0,0 km/h (0 Bft)
20.08.2019 06:01 14,8 °C 96 % 1016,9 hPa 0,0 mm 0,0 km/h (0 Bft) W-SW 251 ° 0 min 0,000 mm 0,0 UV-I 0 W/m² 14,2 °C 14,8 °C 0,0 km/h (0 Bft)
20.08.2019 06:02 14,8 °C 96 % 1016,9 hPa 0,0 mm 0,0 km/h (0 Bft) W-SW 251 ° 0 min 0,000 mm 0,0 UV-I 0 W/m² 14,2 °C 14,8 °C 0,0 km/h (0 Bft)
20.08.2019 06:03 14,8 °C 96 % 1016,9 hPa 0,0 mm 0,0 km/h (0 Bft) W-SW 251 ° 0 min 0,000 mm 0,0 UV-I 0 W/m² 14,2 °C 14,8 °C 0,0 km/h (0 Bft)
20.08.2019 06:04 14,8 °C 96 % 1016,9 hPa 0,0 mm 0,0 km/h (0 Bft) W-SW 251 ° 0 min 0,000 mm 0,0 UV-I 0 W/m² 14,2 °C 14,8 °C 0,0 km/h (0 Bft)
20.08.2019 06:05 14,8 °C 96 % 1017,0 hPa 0,0 mm 0,0 km/h (0 Bft) W-SW 251 ° 0 min 0,000 mm 0,0 UV-I 0 W/m² 14,2 °C 14,8 °C 0,0 km/h (0 Bft)
20.08.2019 06:06 14,9 °C 96 % 1017,0 hPa 0,0 mm 0,0 km/h (0 Bft) W-SW 251 ° 0 min 0,000 mm 0,0 UV-I 0 W/m² 14,3 °C 14,9 °C 0,0 km/h (0 Bft)
20.08.2019 06:07 14,8 °C 96 % 1017,0 hPa 0,0 mm 0,0 km/h (0 Bft) W-SW 251 ° 0 min 0,000 mm 0,0 UV-I 0 W/m² 14,2 °C 14,8 °C 0,0 km/h (0 Bft)
20.08.2019 06:08 14,9 °C 96 % 1017,1 hPa 0,0 mm 0,0 km/h (0 Bft) W-SW 251 ° 0 min 0,000 mm 0,0 UV-I 0 W/m² 14,3 °C 14,9 °C 0,0 km/h (0 Bft)
20.08.2019 06:09 14,9 °C 96 % 1017,1 hPa 0,0 mm 0,0 km/h (0 Bft) W-SW 251 ° 0 min 0,000 mm 0,0 UV-I 0 W/m² 14,3 °C 14,9 °C 0,0 km/h (0 Bft)
20.08.2019 06:10 14,9 °C 96 % 1017,1 hPa 0,0 mm 0,0 km/h (0 Bft) W-SW 251 ° 0 min 0,000 mm 0,0 UV-I 0 W/m² 14,3 °C 14,9 °C 0,0 km/h (0 Bft)
20.08.2019 06:11 14,9 °C 96 % 1017,0 hPa 0,0 mm 0,0 km/h (0 Bft) W-SW 251 ° 0 min 0,000 mm 0,0 UV-I 0 W/m² 14,3 °C 14,9 °C 0,0 km/h (0 Bft)
20.08.2019 06:12 14,9 °C 96 % 1017,0 hPa 0,0 mm 0,0 km/h (0 Bft) W-SW 251 ° 0 min 0,000 mm 0,0 UV-I 0 W/m² 14,3 °C 14,9 °C 0,0 km/h (0 Bft)
20.08.2019 06:13 14,9 °C 96 % 1017,0 hPa 0,0 mm 0,0 km/h (0 Bft) W-SW 251 ° 0 min 0,000 mm 0,0 UV-I 0 W/m² 14,3 °C 14,9 °C 0,0 km/h (0 Bft)
20.08.2019 06:14 14,9 °C 96 % 1017,0 hPa 0,0 mm 0,0 km/h (0 Bft) W-SW 251 ° 0 min 0,000 mm 0,0 UV-I 0 W/m² 14,3 °C 14,9 °C 0,0 km/h (0 Bft)
20.08.2019 06:15 14,9 °C 96 % 1017,0 hPa 0,0 mm 0,0 km/h (0 Bft) W-SW 251 ° 0 min 0,000 mm 0,0 UV-I 0 W/m² 14,3 °C 14,9 °C 0,0 km/h (0 Bft)
20.08.2019 06:16 14,9 °C 96 % 1017,0 hPa 0,0 mm 0,0 km/h (0 Bft) W-SW 251 ° 0 min 0,000 mm 0,0 UV-I 0 W/m² 14,3 °C 14,9 °C 0,0 km/h (0 Bft)
20.08.2019 06:17 14,9 °C 96 % 1017,1 hPa 0,0 mm 0,0 km/h (0 Bft) W-SW 251 ° 0 min 0,000 mm 0,0 UV-I 0 W/m² 14,3 °C 14,9 °C 0,0 km/h (0 Bft)
20.08.2019 06:18 14,9 °C 96 % 1017,1 hPa 0,0 mm 0,0 km/h (0 Bft) W-SW 251 ° 0 min 0,000 mm 0,0 UV-I 0 W/m² 14,3 °C 14,9 °C 0,0 km/h (0 Bft)
20.08.2019 06:19 14,9 °C 96 % 1017,1 hPa 0,0 mm 0,0 km/h (0 Bft) W-SW 251 ° 0 min 0,000 mm 0,0 UV-I 0 W/m² 14,3 °C 14,9 °C 0,0 km/h (0 Bft)
20.08.2019 06:20 14,9 °C 96 % 1017,1 hPa 0,0 mm 0,0 km/h (0 Bft) W-SW 251 ° 0 min 0,000 mm 0,0 UV-I 0 W/m² 14,3 °C 14,9 °C 0,0 km/h (0 Bft)
20.08.2019 06:21 15,0 °C 96 % 1017,1 hPa 0,0 mm 0,0 km/h (0 Bft) W-SW 251 ° 0 min 0,000 mm 0,0 UV-I 0 W/m² 14,4 °C 15,0 °C 0,0 km/h (0 Bft)
20.08.2019 06:22 15,0 °C 96 % 1017,1 hPa 0,0 mm 0,0 km/h (0 Bft) W-SW 251 ° 0 min 0,000 mm 0,0 UV-I 0 W/m² 14,4 °C 15,0 °C 0,0 km/h (0 Bft)
20.08.2019 06:23 15,0 °C 96 % 1017,1 hPa 0,0 mm 0,0 km/h (0 Bft) W-SW 251 ° 0 min 0,000 mm 0,0 UV-I 0 W/m² 14,4 °C 15,0 °C 0,0 km/h (0 Bft)
20.08.2019 06:24 15,0 °C 96 % 1017,1 hPa 0,0 mm 0,0 km/h (0 Bft) W-SW 251 ° 0 min 0,000 mm 0,0 UV-I 0 W/m² 14,4 °C 15,0 °C 0,0 km/h (0 Bft)
20.08.2019 06:25 15,0 °C 96 % 1017,1 hPa 0,0 mm 0,0 km/h (0 Bft) W-SW 251 ° 0 min 0,000 mm 0,0 UV-I 0 W/m² 14,4 °C 15,0 °C 0,0 km/h (0 Bft)
20.08.2019 06:26 15,0 °C 96 % 1017,0 hPa 0,0 mm 0,0 km/h (0 Bft) W-SW 251 ° 0 min 0,000 mm 0,0 UV-I 0 W/m² 14,4 °C 15,0 °C 0,0 km/h (0 Bft)
20.08.2019 06:27 15,0 °C 96 % 1017,0 hPa 0,0 mm 0,0 km/h (0 Bft) W-SW 251 ° 0 min 0,000 mm 0,0 UV-I 0 W/m² 14,4 °C 15,0 °C 0,0 km/h (0 Bft)
20.08.2019 06:28 15,0 °C 96 % 1017,0 hPa 0,0 mm 0,0 km/h (0 Bft) W-SW 251 ° 0 min 0,000 mm 0,0 UV-I 5 W/m² 14,4 °C 15,0 °C 0,0 km/h (0 Bft)
20.08.2019 06:29 15,0 °C 96 % 1017,0 hPa 0,0 mm 0,0 km/h (0 Bft) W-SW 251 ° 0 min 0,000 mm 0,0 UV-I 5 W/m² 14,4 °C 15,0 °C 0,0 km/h (0 Bft)
20.08.2019 06:30 15,0 °C 96 % 1017,0 hPa 0,0 mm 0,0 km/h (0 Bft) W-SW 251 ° 0 min 0,000 mm 0,0 UV-I 5 W/m² 14,4 °C 15,0 °C 0,0 km/h (0 Bft)
20.08.2019 06:31 14,9 °C 96 % 1017,0 hPa 0,0 mm 0,0 km/h (0 Bft) W-SW 251 ° 0 min 0,000 mm 0,0 UV-I 5 W/m² 14,3 °C 14,9 °C 0,0 km/h (0 Bft)
20.08.2019 06:32 15,0 °C 96 % 1017,0 hPa 0,0 mm 0,0 km/h (0 Bft) W-SW 251 ° 0 min 0,000 mm 0,0 UV-I 5 W/m² 14,4 °C 15,0 °C 0,0 km/h (0 Bft)
20.08.2019 06:33 15,0 °C 96 % 1017,1 hPa 0,0 mm 0,0 km/h (0 Bft) W-SW 251 ° 0 min 0,000 mm 0,0 UV-I 7 W/m² 14,4 °C 15,0 °C 0,0 km/h (0 Bft)
20.08.2019 06:34 15,0 °C 96 % 1017,1 hPa 0,0 mm 0,0 km/h (0 Bft) W-SW 251 ° 0 min 0,000 mm 0,0 UV-I 7 W/m² 14,4 °C 15,0 °C 0,0 km/h (0 Bft)
20.08.2019 06:35 15,1 °C 96 % 1017,1 hPa 0,0 mm 0,0 km/h (0 Bft) W-SW 251 ° 0 min 0,000 mm 0,0 UV-I 7 W/m² 14,5 °C 15,1 °C 0,0 km/h (0 Bft)
20.08.2019 06:36 15,1 °C 96 % 1017,1 hPa 0,0 mm 0,0 km/h (0 Bft) W-SW 251 ° 0 min 0,000 mm 0,0 UV-I 9 W/m² 14,5 °C 15,1 °C 0,0 km/h (0 Bft)
20.08.2019 06:37 15,1 °C 96 % 1017,1 hPa 0,0 mm 0,0 km/h (0 Bft) W-SW 251 ° 0 min 0,000 mm 0,0 UV-I 7 W/m² 14,5 °C 15,1 °C 0,0 km/h (0 Bft)
20.08.2019 06:38 15,1 °C 96 % 1017,1 hPa 0,0 mm 0,0 km/h (0 Bft) W-SW 251 ° 0 min 0,000 mm 0,0 UV-I 7 W/m² 14,5 °C 15,1 °C 0,0 km/h (0 Bft)
20.08.2019 06:39 15,1 °C 96 % 1017,2 hPa 0,0 mm 0,0 km/h (0 Bft) W-SW 251 ° 0 min 0,000 mm 0,0 UV-I 7 W/m² 14,5 °C 15,1 °C 0,0 km/h (0 Bft)
20.08.2019 06:40 15,1 °C 96 % 1017,2 hPa 0,0 mm 0,0 km/h (0 Bft) W-SW 251 ° 0 min 0,000 mm 0,0 UV-I 7 W/m² 14,5 °C 15,1 °C 0,0 km/h (0 Bft)
20.08.2019 06:41 15,1 °C 96 % 1017,2 hPa 0,0 mm 0,0 km/h (0 Bft) W-SW 251 ° 0 min 0,000 mm 0,0 UV-I 7 W/m² 14,5 °C 15,1 °C 0,0 km/h (0 Bft)
20.08.2019 06:42 15,1 °C 96 % 1017,2 hPa 0,0 mm 0,0 km/h (0 Bft) W-SW 251 ° 0 min 0,000 mm 0,0 UV-I 7 W/m² 14,5 °C 15,1 °C 0,0 km/h (0 Bft)
20.08.2019 06:43 15,1 °C 96 % 1017,2 hPa 0,0 mm 0,0 km/h (0 Bft) W-SW 251 ° 0 min 0,000 mm 0,0 UV-I 7 W/m² 14,5 °C 15,1 °C 0,0 km/h (0 Bft)
20.08.2019 06:44 15,1 °C 96 % 1017,3 hPa 0,0 mm 0,0 km/h (0 Bft) W-SW 251 ° 0 min 0,000 mm 0,0 UV-I 9 W/m² 14,5 °C 15,1 °C 0,0 km/h (0 Bft)
20.08.2019 06:45 15,1 °C 96 % 1017,3 hPa 0,0 mm 0,0 km/h (0 Bft) W-SW 251 ° 0 min 0,000 mm 0,0 UV-I 9 W/m² 14,5 °C 15,1 °C 0,0 km/h (0 Bft)
20.08.2019 06:46 15,1 °C 96 % 1017,3 hPa 0,0 mm 0,0 km/h (0 Bft) W-SW 251 ° 0 min 0,000 mm 0,0 UV-I 9 W/m² 14,5 °C 15,1 °C 0,0 km/h (0 Bft)
20.08.2019 06:47 15,1 °C 96 % 1017,3 hPa 0,0 mm 0,0 km/h (0 Bft) W-SW 251 ° 0 min 0,000 mm 0,0 UV-I 9 W/m² 14,5 °C 15,1 °C 0,0 km/h (0 Bft)
20.08.2019 06:48 15,2 °C 96 % 1017,4 hPa 0,0 mm 0,0 km/h (0 Bft) W-SW 251 ° 0 min 0,000 mm 0,0 UV-I 9 W/m² 14,6 °C 15,2 °C 0,0 km/h (0 Bft)
20.08.2019 06:49 15,2 °C 96 % 1017,4 hPa 0,0 mm 0,0 km/h (0 Bft) W-SW 251 ° 0 min 0,000 mm 0,0 UV-I 9 W/m² 14,6 °C 15,2 °C 0,0 km/h (0 Bft)
20.08.2019 06:50 15,2 °C 96 % 1017,4 hPa 0,0 mm 0,0 km/h (0 Bft) W-SW 251 ° 0 min 0,000 mm 0,0 UV-I 11 W/m² 14,6 °C 15,2 °C 0,0 km/h (0 Bft)
20.08.2019 06:51 15,1 °C 96 % 1017,4 hPa 0,0 mm 0,0 km/h (0 Bft) W-SW 251 ° 0 min 0,000 mm 0,0 UV-I 12 W/m² 14,5 °C 15,1 °C 0,0 km/h (0 Bft)
20.08.2019 06:52 15,2 °C 96 % 1017,3 hPa 0,0 mm 0,0 km/h (0 Bft) W-SW 251 ° 0 min 0,000 mm 0,0 UV-I 12 W/m² 14,6 °C 15,2 °C 0,0 km/h (0 Bft)
20.08.2019 06:53 15,2 °C 96 % 1017,3 hPa 0,0 mm 0,0 km/h (0 Bft) W-SW 251 ° 0 min 0,000 mm 0,0 UV-I 14 W/m² 14,6 °C 15,2 °C 0,0 km/h (0 Bft)
20.08.2019 06:54 15,2 °C 96 % 1017,4 hPa 0,0 mm 0,0 km/h (0 Bft) W-SW 251 ° 0 min 0,000 mm 0,0 UV-I 16 W/m² 14,6 °C 15,2 °C 0,0 km/h (0 Bft)
20.08.2019 06:55 15,2 °C 96 % 1017,4 hPa 0,0 mm 0,0 km/h (0 Bft) W-SW 251 ° 0 min 0,000 mm 0,0 UV-I 19 W/m² 14,6 °C 15,2 °C 0,0 km/h (0 Bft)
20.08.2019 06:56 15,2 °C 96 % 1017,3 hPa 0,0 mm 0,0 km/h (0 Bft) W-SW 251 ° 0 min 0,000 mm 0,0 UV-I 21 W/m² 14,6 °C 15,2 °C 0,0 km/h (0 Bft)
20.08.2019 06:57 15,2 °C 96 % 1017,3 hPa 0,0 mm 0,0 km/h (0 Bft) W-SW 251 ° 0 min 0,000 mm 0,0 UV-I 21 W/m² 14,6 °C 15,2 °C 0,0 km/h (0 Bft)
20.08.2019 06:58 15,2 °C 96 % 1017,3 hPa 0,0 mm 0,0 km/h (0 Bft) W-SW 251 ° 0 min 0,000 mm 0,0 UV-I 21 W/m² 14,6 °C 15,2 °C 0,0 km/h (0 Bft)
20.08.2019 06:59 15,2 °C 96 % 1017,2 hPa 0,0 mm 0,0 km/h (0 Bft) W-SW 251 ° 0 min 0,000 mm 0,0 UV-I 21 W/m² 14,6 °C 15,2 °C 0,0 km/h (0 Bft)
20.08.2019 07:00 15,1 °C 96 % 1017,2 hPa 0,0 mm 0,0 km/h (0 Bft) W-SW 251 ° 0 min 0,000 mm 0,0 UV-I 21 W/m² 14,5 °C 15,1 °C 0,0 km/h (0 Bft)
20.08.2019 07:01 15,1 °C 96 % 1017,3 hPa 0,0 mm 0,0 km/h (0 Bft) W-SW 251 ° 0 min 0,000 mm 0,0 UV-I 21 W/m² 14,5 °C 15,1 °C 0,0 km/h (0 Bft)
20.08.2019 07:02 15,1 °C 96 % 1017,3 hPa 0,0 mm 0,0 km/h (0 Bft) W-SW 251 ° 0 min 0,000 mm 0,0 UV-I 21 W/m² 14,5 °C 15,1 °C 0,0 km/h (0 Bft)
20.08.2019 07:03 15,2 °C 96 % 1017,3 hPa 0,0 mm 0,0 km/h (0 Bft) W-SW 251 ° 0 min 0,000 mm 0,0 UV-I 21 W/m² 14,6 °C 15,2 °C 0,0 km/h (0 Bft)
20.08.2019 07:04 15,2 °C 96 % 1017,3 hPa 0,0 mm 0,0 km/h (0 Bft) W-SW 251 ° 0 min 0,000 mm 0,0 UV-I 21 W/m² 14,6 °C 15,2 °C 0,0 km/h (0 Bft)
20.08.2019 07:05 15,2 °C 96 % 1017,3 hPa 0,0 mm 0,0 km/h (0 Bft) W-SW 251 ° 0 min 0,000 mm 0,0 UV-I 21 W/m² 14,6 °C 15,2 °C 0,0 km/h (0 Bft)
20.08.2019 07:06 15,2 °C 96 % 1017,4 hPa 0,0 mm 0,0 km/h (0 Bft) W-SW 251 ° 0 min 0,000 mm 0,0 UV-I 19 W/m² 14,6 °C 15,2 °C 0,0 km/h (0 Bft)
20.08.2019 07:07 15,2 °C 96 % 1017,3 hPa 0,0 mm 0,0 km/h (0 Bft) W-SW 251 ° 0 min 0,000 mm 0,0 UV-I 16 W/m² 14,6 °C 15,2 °C 0,0 km/h (0 Bft)
20.08.2019 07:08 15,2 °C 96 % 1017,4 hPa 0,0 mm 0,0 km/h (0 Bft) W-SW 251 ° 0 min 0,000 mm 0,0 UV-I 16 W/m² 14,6 °C 15,2 °C 0,0 km/h (0 Bft)
20.08.2019 07:09 15,2 °C 96 % 1017,4 hPa 0,0 mm 0,0 km/h (0 Bft) W-SW 251 ° 0 min 0,000 mm 0,0 UV-I 14 W/m² 14,6 °C 15,2 °C 0,0 km/h (0 Bft)
20.08.2019 07:10 15,2 °C 96 % 1017,4 hPa 0,0 mm 0,0 km/h (0 Bft) W-SW 251 ° 0 min 0,000 mm 0,0 UV-I 14 W/m² 14,6 °C 15,2 °C 0,0 km/h (0 Bft)
20.08.2019 07:11 15,2 °C 96 % 1017,4 hPa 0,0 mm 0,0 km/h (0 Bft) W-SW 251 ° 0 min 0,000 mm 0,0 UV-I 14 W/m² 14,6 °C 15,2 °C 0,0 km/h (0 Bft)
20.08.2019 07:12 15,2 °C 96 % 1017,5 hPa 0,0 mm 0,0 km/h (0 Bft) W-SW 251 ° 0 min 0,000 mm 0,0 UV-I 14 W/m² 14,6 °C 15,2 °C 0,0 km/h (0 Bft)
20.08.2019 07:13 15,2 °C 96 % 1017,5 hPa 0,0 mm 0,0 km/h (0 Bft) W-SW 251 ° 0 min 0,000 mm 0,0 UV-I 12 W/m² 14,6 °C 15,2 °C 0,0 km/h (0 Bft)
20.08.2019 07:14 15,2 °C 96 % 1017,5 hPa 0,0 mm 0,0 km/h (0 Bft) W-SW 251 ° 0 min 0,000 mm 0,0 UV-I 11 W/m² 14,6 °C 15,2 °C 0,0 km/h (0 Bft)
20.08.2019 07:15 15,3 °C 96 % 1017,5 hPa 0,0 mm 0,0 km/h (0 Bft) W-SW 251 ° 0 min 0,000 mm 0,0 UV-I 11 W/m² 14,7 °C 15,3 °C 0,0 km/h (0 Bft)
20.08.2019 07:16 15,3 °C 96 % 1017,5 hPa 0,0 mm 0,0 km/h (0 Bft) W-SW 251 ° 0 min 0,000 mm 0,0 UV-I 11 W/m² 14,7 °C 15,3 °C 0,0 km/h (0 Bft)
20.08.2019 07:17 15,3 °C 96 % 1017,5 hPa 0,0 mm 0,0 km/h (0 Bft) W-SW 251 ° 0 min 0,000 mm 0,0 UV-I 11 W/m² 14,7 °C 15,3 °C 0,0 km/h (0 Bft)
20.08.2019 07:18 15,3 °C 96 % 1017,5 hPa 0,0 mm 0,0 km/h (0 Bft) W-SW 251 ° 0 min 0,000 mm 0,0 UV-I 11 W/m² 14,7 °C 15,3 °C 0,0 km/h (0 Bft)
20.08.2019 07:19 15,3 °C 96 % 1017,5 hPa 0,0 mm 0,0 km/h (0 Bft) W-SW 251 ° 0 min 0,000 mm 0,0 UV-I 11 W/m² 14,7 °C 15,3 °C 0,0 km/h (0 Bft)
20.08.2019 07:20 15,2 °C 96 % 1017,4 hPa 0,0 mm 0,0 km/h (0 Bft) W-SW 251 ° 0 min 0,000 mm 0,0 UV-I 11 W/m² 14,6 °C 15,2 °C 0,0 km/h (0 Bft)
20.08.2019 07:21 15,2 °C 96 % 1017,5 hPa 0,0 mm 0,0 km/h (0 Bft) W-SW 251 ° 0 min 0,000 mm 0,0 UV-I 11 W/m² 14,6 °C 15,2 °C 0,0 km/h (0 Bft)
20.08.2019 07:22 15,2 °C 96 % 1017,5 hPa 0,0 mm 0,0 km/h (0 Bft) W-SW 251 ° 0 min 0,000 mm 0,0 UV-I 12 W/m² 14,6 °C 15,2 °C 0,0 km/h (0 Bft)
20.08.2019 07:23 15,2 °C 96 % 1017,4 hPa 0,0 mm 0,0 km/h (0 Bft) W-SW 251 ° 0 min 0,000 mm 0,0 UV-I 12 W/m² 14,6 °C 15,2 °C 0,0 km/h (0 Bft)
20.08.2019 07:24 15,2 °C 96 % 1017,4 hPa 0,0 mm 0,0 km/h (0 Bft) W-SW 251 ° 0 min 0,000 mm 0,0 UV-I 12 W/m² 14,6 °C 15,2 °C 0,0 km/h (0 Bft)
20.08.2019 07:25 15,2 °C 96 % 1017,4 hPa 0,0 mm 0,0 km/h (0 Bft) W-SW 251 ° 0 min 0,000 mm 0,0 UV-I 12 W/m² 14,6 °C 15,2 °C 0,0 km/h (0 Bft)
20.08.2019 07:26 15,2 °C 96 % 1017,5 hPa 0,0 mm 0,0 km/h (0 Bft) W-SW 251 ° 0 min 0,000 mm 0,0 UV-I 12 W/m² 14,6 °C 15,2 °C 0,0 km/h (0 Bft)
20.08.2019 07:27 15,3 °C 96 % 1017,4 hPa 0,0 mm 0,0 km/h (0 Bft) W-SW 251 ° 0 min 0,000 mm 0,0 UV-I 12 W/m² 14,7 °C 15,3 °C 0,0 km/h (0 Bft)
20.08.2019 07:28 15,3 °C 96 % 1017,4 hPa 0,0 mm 0,0 km/h (0 Bft) W-SW 251 ° 0 min 0,000 mm 0,0 UV-I 12 W/m² 14,7 °C 15,3 °C 0,0 km/h (0 Bft)
20.08.2019 07:29 15,2 °C 96 % 1017,4 hPa 0,0 mm 0,0 km/h (0 Bft) W-SW 251 ° 0 min 0,000 mm 0,0 UV-I 12 W/m² 14,6 °C 15,2 °C 0,0 km/h (0 Bft)
20.08.2019 07:30 15,2 °C 96 % 1017,4 hPa 0,0 mm 0,0 km/h (0 Bft) W-SW 251 ° 0 min 0,000 mm 0,0 UV-I 12 W/m² 14,6 °C 15,2 °C 0,0 km/h (0 Bft)
20.08.2019 07:31 15,2 °C 96 % 1017,4 hPa 0,0 mm 0,0 km/h (0 Bft) W-SW 251 ° 0 min 0,000 mm 0,0 UV-I 14 W/m² 14,6 °C 15,2 °C 0,0 km/h (0 Bft)
20.08.2019 07:32 15,2 °C 96 % 1017,4 hPa 0,0 mm 0,0 km/h (0 Bft) W-SW 251 ° 0 min 0,000 mm 0,0 UV-I 14 W/m² 14,6 °C 15,2 °C 0,0 km/h (0 Bft)
20.08.2019 07:33 15,2 °C 96 % 1017,4 hPa 0,0 mm 0,0 km/h (0 Bft) W-SW 251 ° 0 min 0,000 mm 0,0 UV-I 16 W/m² 14,6 °C 15,2 °C 0,0 km/h (0 Bft)
20.08.2019 07:34 15,3 °C 96 % 1017,3 hPa 0,0 mm 0,0 km/h (0 Bft) W-SW 251 ° 0 min 0,000 mm 0,0 UV-I 18 W/m² 14,7 °C 15,3 °C 0,0 km/h (0 Bft)
20.08.2019 07:35 15,3 °C 96 % 1017,3 hPa 0,0 mm 0,0 km/h (0 Bft) W-SW 251 ° 0 min 0,000 mm 0,0 UV-I 19 W/m² 14,7 °C 15,3 °C 0,0 km/h (0 Bft)
20.08.2019 07:36 15,3 °C 96 % 1017,3 hPa 0,0 mm 0,0 km/h (0 Bft) W-SW 251 ° 0 min 0,000 mm 0,0 UV-I 23 W/m² 14,7 °C 15,3 °C 0,0 km/h (0 Bft)
20.08.2019 07:37 15,2 °C 96 % 1017,2 hPa 0,0 mm 0,0 km/h (0 Bft) W-SW 251 ° 0 min 0,000 mm 0,0 UV-I 25 W/m² 14,6 °C 15,2 °C 0,0 km/h (0 Bft)
20.08.2019 07:38 15,2 °C 96 % 1017,3 hPa 0,0 mm 0,0 km/h (0 Bft) W-SW 251 ° 0 min 0,000 mm 0,0 UV-I 25 W/m² 14,6 °C 15,2 °C 0,0 km/h (0 Bft)
20.08.2019 07:39 15,3 °C 96 % 1017,2 hPa 0,0 mm 0,0 km/h (0 Bft) W-SW 251 ° 0 min 0,000 mm 0,0 UV-I 26 W/m² 14,7 °C 15,3 °C 0,0 km/h (0 Bft)
20.08.2019 07:40 15,3 °C 96 % 1017,2 hPa 0,0 mm 0,0 km/h (0 Bft) W-SW 251 ° 0 min 0,000 mm 0,0 UV-I 26 W/m² 14,7 °C 15,3 °C 0,0 km/h (0 Bft)
20.08.2019 07:41 15,3 °C 96 % 1017,3 hPa 0,0 mm 0,0 km/h (0 Bft) W-SW 251 ° 0 min 0,000 mm 0,0 UV-I 28 W/m² 14,7 °C 15,3 °C 0,0 km/h (0 Bft)
20.08.2019 07:42 15,3 °C 96 % 1017,4 hPa 0,0 mm 0,0 km/h (0 Bft) W-SW 251 ° 0 min 0,000 mm 0,0 UV-I 32 W/m² 14,7 °C 15,3 °C 0,0 km/h (0 Bft)
20.08.2019 07:43 15,3 °C 96 % 1017,4 hPa 0,0 mm 0,0 km/h (0 Bft) W-SW 251 ° 0 min 0,000 mm 0,0 UV-I 33 W/m² 14,7 °C 15,3 °C 0,0 km/h (0 Bft)
20.08.2019 07:44 15,3 °C 96 % 1017,4 hPa 0,0 mm 0,0 km/h (0 Bft) W-SW 251 ° 0 min 0,000 mm 0,0 UV-I 35 W/m² 14,7 °C 15,3 °C 0,0 km/h (0 Bft)
20.08.2019 07:45 15,3 °C 96 % 1017,4 hPa 0,0 mm 0,0 km/h (0 Bft) W-SW 251 ° 0 min 0,000 mm 0,0 UV-I 37 W/m² 14,7 °C 15,3 °C 0,0 km/h (0 Bft)
20.08.2019 07:46 15,3 °C 96 % 1017,4 hPa 0,0 mm 0,0 km/h (0 Bft) W-SW 251 ° 0 min 0,000 mm 0,0 UV-I 37 W/m² 14,7 °C 15,3 °C 0,0 km/h (0 Bft)
20.08.2019 07:47 15,3 °C 96 % 1017,4 hPa 0,0 mm 0,0 km/h (0 Bft) W-SW 251 ° 0 min 0,000 mm 0,0 UV-I 37 W/m² 14,7 °C 15,3 °C 0,0 km/h (0 Bft)
20.08.2019 07:48 15,4 °C 96 % 1017,4 hPa 0,0 mm 0,0 km/h (0 Bft) W-SW 251 ° 0 min 0,000 mm 0,0 UV-I 37 W/m² 14,8 °C 15,4 °C 0,0 km/h (0 Bft)
20.08.2019 07:49 15,4 °C 96 % 1017,4 hPa 0,0 mm 0,0 km/h (0 Bft) W-SW 251 ° 0 min 0,000 mm 0,0 UV-I 37 W/m² 14,8 °C 15,4 °C 0,0 km/h (0 Bft)
20.08.2019 07:50 15,4 °C 96 % 1017,4 hPa 0,0 mm 0,0 km/h (0 Bft) W-SW 251 ° 0 min 0,000 mm 0,0 UV-I 39 W/m² 14,8 °C 15,4 °C 0,0 km/h (0 Bft)
20.08.2019 07:51 15,4 °C 96 % 1017,4 hPa 0,0 mm 0,0 km/h (0 Bft) W-SW 251 ° 0 min 0,000 mm 0,0 UV-I 40 W/m² 14,8 °C 15,4 °C 0,0 km/h (0 Bft)
20.08.2019 07:52 15,4 °C 96 % 1017,4 hPa 0,0 mm 0,0 km/h (0 Bft) W-SW 251 ° 0 min 0,000 mm 0,0 UV-I 42 W/m² 14,8 °C 15,4 °C 0,0 km/h (0 Bft)
20.08.2019 07:53 15,4 °C 96 % 1017,4 hPa 0,0 mm 0,0 km/h (0 Bft) W-SW 251 ° 0 min 0,000 mm 0,0 UV-I 46 W/m² 14,8 °C 15,4 °C 0,0 km/h (0 Bft)
20.08.2019 07:54 15,4 °C 96 % 1017,3 hPa 0,0 mm 0,0 km/h (0 Bft) W-SW 251 ° 0 min 0,000 mm 0,0 UV-I 58 W/m² 14,8 °C 15,4 °C 0,0 km/h (0 Bft)
20.08.2019 07:55 15,4 °C 96 % 1017,3 hPa 0,0 mm 0,0 km/h (0 Bft) W-SW 251 ° 0 min 0,000 mm 0,0 UV-I 65 W/m² 14,8 °C 15,4 °C 0,0 km/h (0 Bft)
20.08.2019 07:56 15,4 °C 96 % 1017,4 hPa 0,0 mm 0,0 km/h (0 Bft) W-SW 251 ° 0 min 0,000 mm 0,0 UV-I 70 W/m² 14,8 °C 15,4 °C 0,0 km/h (0 Bft)
20.08.2019 07:57 15,6 °C 96 % 1017,3 hPa 0,0 mm 0,0 km/h (0 Bft) W-SW 251 ° 0 min 0,000 mm 0,0 UV-I 74 W/m² 15,0 °C 15,6 °C 0,0 km/h (0 Bft)
20.08.2019 07:58 15,6 °C 96 % 1017,3 hPa 0,0 mm 0,0 km/h (0 Bft) W-SW 251 ° 0 min 0,000 mm 0,0 UV-I 72 W/m² 15,0 °C 15,6 °C 0,0 km/h (0 Bft)
20.08.2019 07:59 15,6 °C 96 % 1017,3 hPa 0,0 mm 0,0 km/h (0 Bft) W-SW 251 ° 0 min 0,000 mm 0,0 UV-I 70 W/m² 15,0 °C 15,6 °C 0,0 km/h (0 Bft)
20.08.2019 08:00 15,6 °C 96 % 1017,3 hPa 0,0 mm 0,0 km/h (0 Bft) W-SW 251 ° 0 min 0,000 mm 0,0 UV-I 65 W/m² 15,0 °C 15,6 °C 0,0 km/h (0 Bft)
20.08.2019 08:01 15,6 °C 96 % 1017,4 hPa 0,0 mm 0,0 km/h (0 Bft) W-SW 251 ° 0 min 0,025 mm 0,0 UV-I 65 W/m² 15,0 °C 15,6 °C 0,0 km/h (0 Bft)
20.08.2019 08:02 15,6 °C 96 % 1017,4 hPa 0,0 mm 0,0 km/h (0 Bft) W-SW 251 ° 0 min 0,000 mm 0,0 UV-I 67 W/m² 15,0 °C 15,6 °C 0,0 km/h (0 Bft)
20.08.2019 08:03 15,6 °C 96 % 1017,4 hPa 0,0 mm 0,0 km/h (0 Bft) W-SW 251 ° 0 min 0,000 mm 0,0 UV-I 72 W/m² 15,0 °C 15,6 °C 0,0 km/h (0 Bft)
20.08.2019 08:04 15,6 °C 96 % 1017,4 hPa 0,0 mm 0,0 km/h (0 Bft) W-SW 251 ° 0 min 0,000 mm 0,5 UV-I 77 W/m² 15,0 °C 15,6 °C 0,0 km/h (0 Bft)
20.08.2019 08:05 15,7 °C 96 % 1017,4 hPa 0,0 mm 0,0 km/h (0 Bft) W-SW 251 ° 0 min 0,000 mm 0,5 UV-I 81 W/m² 15,1 °C 15,7 °C 0,0 km/h (0 Bft)
20.08.2019 08:06 15,7 °C 96 % 1017,4 hPa 0,0 mm 0,0 km/h (0 Bft) W-SW 251 ° 0 min 0,000 mm 0,5 UV-I 81 W/m² 15,1 °C 15,7 °C 0,0 km/h (0 Bft)
20.08.2019 08:07 15,7 °C 96 % 1017,4 hPa 0,0 mm 0,0 km/h (0 Bft) W-SW 251 ° 0 min 0,000 mm 0,5 UV-I 79 W/m² 15,1 °C 15,7 °C 0,0 km/h (0 Bft)
20.08.2019 08:08 15,7 °C 96 % 1017,4 hPa 0,0 mm 0,0 km/h (0 Bft) W-SW 251 ° 0 min 0,000 mm 0,5 UV-I 77 W/m² 15,1 °C 15,7 °C 0,0 km/h (0 Bft)
20.08.2019 08:09 15,7 °C 96 % 1017,4 hPa 0,0 mm 0,0 km/h (0 Bft) W-SW 251 ° 0 min 0,000 mm 0,5 UV-I 76 W/m² 15,1 °C 15,7 °C 0,0 km/h (0 Bft)
20.08.2019 08:10 15,6 °C 96 % 1017,4 hPa 0,0 mm 0,0 km/h (0 Bft) W-SW 251 ° 0 min 0,000 mm 0,0 UV-I 72 W/m² 15,0 °C 15,6 °C 0,0 km/h (0 Bft)
20.08.2019 08:11 15,6 °C 96 % 1017,4 hPa 0,0 mm 0,0 km/h (0 Bft) W-SW 251 ° 0 min 0,000 mm 0,0 UV-I 60 W/m² 15,0 °C 15,6 °C 0,0 km/h (0 Bft)
20.08.2019 08:12 15,6 °C 96 % 1017,5 hPa 0,0 mm 0,0 km/h (0 Bft) W-SW 251 ° 0 min 0,000 mm 0,0 UV-I 53 W/m² 15,0 °C 15,6 °C 0,0 km/h (0 Bft)
20.08.2019 08:13 15,6 °C 96 % 1017,4 hPa 0,0 mm 0,0 km/h (0 Bft) W-SW 251 ° 0 min 0,000 mm 0,0 UV-I 47 W/m² 15,0 °C 15,6 °C 0,0 km/h (0 Bft)
20.08.2019 08:14 15,6 °C 96 % 1017,5 hPa 0,0 mm 0,0 km/h (0 Bft) W-SW 251 ° 0 min 0,000 mm 0,0 UV-I 44 W/m² 15,0 °C 15,6 °C 0,0 km/h (0 Bft)
20.08.2019 08:15 15,7 °C 96 % 1017,5 hPa 0,0 mm 0,0 km/h (0 Bft) W-SW 251 ° 0 min 0,000 mm 0,0 UV-I 42 W/m² 15,1 °C 15,7 °C 0,0 km/h (0 Bft)
20.08.2019 08:16 15,7 °C 96 % 1017,5 hPa 0,0 mm 2,2 km/h (1 Bft) W 263 ° 0 min 0,000 mm 0,0 UV-I 40 W/m² 15,1 °C 15,7 °C 4,8 km/h (1 Bft)
20.08.2019 08:17 15,7 °C 96 % 1017,5 hPa 0,0 mm 3,6 km/h (1 Bft) W 263 ° 0 min 0,000 mm 0,0 UV-I 44 W/m² 15,1 °C 15,7 °C 4,8 km/h (1 Bft)
20.08.2019 08:18 15,7 °C 96 % 1017,5 hPa 0,0 mm 1,1 km/h (1 Bft) W 263 ° 0 min 0,000 mm 0,0 UV-I 47 W/m² 15,1 °C 15,7 °C 3,2 km/h (1 Bft)
20.08.2019 08:19 15,7 °C 96 % 1017,5 hPa 0,0 mm 0,0 km/h (0 Bft) W 263 ° 0 min 0,000 mm 0,0 UV-I 51 W/m² 15,1 °C 15,7 °C 0,0 km/h (0 Bft)
20.08.2019 08:20 15,7 °C 96 % 1017,4 hPa 0,0 mm 0,0 km/h (0 Bft) W 263 ° 0 min 0,000 mm 0,0 UV-I 54 W/m² 15,1 °C 15,7 °C 0,0 km/h (0 Bft)
20.08.2019 08:21 15,7 °C 96 % 1017,4 hPa 0,0 mm 0,0 km/h (0 Bft) W 263 ° 0 min 0,000 mm 0,0 UV-I 58 W/m² 15,1 °C 15,7 °C 0,0 km/h (0 Bft)
20.08.2019 08:22 15,7 °C 96 % 1017,4 hPa 0,0 mm 0,0 km/h (0 Bft) W 263 ° 0 min 0,000 mm 0,0 UV-I 62 W/m² 15,1 °C 15,7 °C 0,0 km/h (0 Bft)
20.08.2019 08:23 15,7 °C 96 % 1017,4 hPa 0,0 mm 0,0 km/h (0 Bft) W 263 ° 0 min 0,000 mm 0,5 UV-I 69 W/m² 15,1 °C 15,7 °C 0,0 km/h (0 Bft)
20.08.2019 08:24 15,7 °C 96 % 1017,4 hPa 0,0 mm 0,3 km/h (0 Bft) W 263 ° 0 min 0,000 mm 0,5 UV-I 74 W/m² 15,1 °C 15,7 °C 1,6 km/h (1 Bft)
20.08.2019 08:25 15,7 °C 96 % 1017,4 hPa 0,0 mm 0,0 km/h (0 Bft) W 263 ° 0 min 0,000 mm 0,6 UV-I 77 W/m² 15,1 °C 15,7 °C 0,0 km/h (0 Bft)
20.08.2019 08:26 15,7 °C 96 % 1017,3 hPa 0,0 mm 0,0 km/h (0 Bft) W 263 ° 0 min 0,000 mm 0,6 UV-I 81 W/m² 15,1 °C 15,7 °C 0,0 km/h (0 Bft)
20.08.2019 08:27 15,7 °C 96 % 1017,4 hPa 0,0 mm 0,0 km/h (0 Bft) W 263 ° 0 min 0,000 mm 0,6 UV-I 83 W/m² 15,1 °C 15,7 °C 0,0 km/h (0 Bft)
20.08.2019 08:28 15,8 °C 96 % 1017,4 hPa 0,0 mm 0,0 km/h (0 Bft) W 263 ° 0 min 0,000 mm 0,6 UV-I 83 W/m² 15,2 °C 15,8 °C 0,0 km/h (0 Bft)
20.08.2019 08:29 15,8 °C 96 % 1017,4 hPa 0,0 mm 0,7 km/h (0 Bft) W 263 ° 0 min 0,000 mm 0,6 UV-I 81 W/m² 15,2 °C 15,8 °C 1,6 km/h (1 Bft)
20.08.2019 08:30 15,7 °C 96 % 1017,4 hPa 0,0 mm 0,5 km/h (0 Bft) W 263 ° 0 min 0,000 mm 0,6 UV-I 79 W/m² 15,1 °C 15,7 °C 1,6 km/h (1 Bft)
20.08.2019 08:31 15,7 °C 96 % 1017,4 hPa 0,0 mm 0,4 km/h (0 Bft) W 263 ° 0 min 0,000 mm 0,5 UV-I 76 W/m² 15,1 °C 15,7 °C 1,6 km/h (1 Bft)
20.08.2019 08:32 15,8 °C 96 % 1017,4 hPa 0,0 mm 0,0 km/h (0 Bft) W 263 ° 0 min 0,000 mm 0,6 UV-I 77 W/m² 15,2 °C 15,8 °C 0,0 km/h (0 Bft)
20.08.2019 08:33 15,8 °C 96 % 1017,4 hPa 0,0 mm 0,0 km/h (0 Bft) W 263 ° 0 min 0,000 mm 0,6 UV-I 81 W/m² 15,2 °C 15,8 °C 0,0 km/h (0 Bft)
20.08.2019 08:34 15,8 °C 96 % 1017,3 hPa 0,0 mm 0,0 km/h (0 Bft) W 263 ° 0 min 0,000 mm 0,6 UV-I 83 W/m² 15,2 °C 15,8 °C 0,0 km/h (0 Bft)
20.08.2019 08:35 15,8 °C 96 % 1017,4 hPa 0,0 mm 0,0 km/h (0 Bft) W 263 ° 0 min 0,000 mm 0,6 UV-I 83 W/m² 15,2 °C 15,8 °C 0,0 km/h (0 Bft)
20.08.2019 08:36 15,8 °C 96 % 1017,4 hPa 0,0 mm 0,0 km/h (0 Bft) W 263 ° 0 min 0,000 mm 0,6 UV-I 83 W/m² 15,2 °C 15,8 °C 0,0 km/h (0 Bft)
20.08.2019 08:37 15,8 °C 96 % 1017,4 hPa 0,0 mm 0,0 km/h (0 Bft) W 263 ° 0 min 0,000 mm 0,6 UV-I 83 W/m² 15,2 °C 15,8 °C 0,0 km/h (0 Bft)
20.08.2019 08:38 15,8 °C 96 % 1017,4 hPa 0,0 mm 0,0 km/h (0 Bft) W 263 ° 0 min 0,000 mm 0,6 UV-I 83 W/m² 15,2 °C 15,8 °C 0,0 km/h (0 Bft)
20.08.2019 08:39 15,8 °C 96 % 1017,4 hPa 0,0 mm 0,0 km/h (0 Bft) W 263 ° 0 min 0,000 mm 0,6 UV-I 84 W/m² 15,2 °C 15,8 °C 0,0 km/h (0 Bft)
20.08.2019 08:40 15,8 °C 96 % 1017,4 hPa 0,0 mm 0,0 km/h (0 Bft) W 263 ° 0 min 0,000 mm 0,6 UV-I 88 W/m² 15,2 °C 15,8 °C 0,0 km/h (0 Bft)
20.08.2019 08:41 15,8 °C 96 % 1017,4 hPa 0,0 mm 0,0 km/h (0 Bft) W 263 ° 0 min 0,000 mm 0,7 UV-I 93 W/m² 15,2 °C 15,8 °C 0,0 km/h (0 Bft)
20.08.2019 08:42 15,8 °C 96 % 1017,4 hPa 0,0 mm 0,0 km/h (0 Bft) W 263 ° 0 min 0,000 mm 0,7 UV-I 95 W/m² 15,2 °C 15,8 °C 0,0 km/h (0 Bft)
20.08.2019 08:43 15,8 °C 96 % 1017,4 hPa 0,0 mm 0,0 km/h (0 Bft) W 263 ° 0 min 0,000 mm 0,7 UV-I 95 W/m² 15,2 °C 15,8 °C 0,0 km/h (0 Bft)
20.08.2019 08:44 15,9 °C 96 % 1017,4 hPa 0,0 mm 0,0 km/h (0 Bft) W 263 ° 0 min 0,000 mm 0,7 UV-I 91 W/m² 15,3 °C 15,9 °C 0,0 km/h (0 Bft)
20.08.2019 08:45 15,9 °C 96 % 1017,4 hPa 0,0 mm 0,0 km/h (0 Bft) W 263 ° 0 min 0,000 mm 0,6 UV-I 88 W/m² 15,3 °C 15,9 °C 0,0 km/h (0 Bft)
20.08.2019 08:46 15,9 °C 96 % 1017,4 hPa 0,0 mm 0,0 km/h (0 Bft) W 263 ° 0 min 0,000 mm 0,7 UV-I 88 W/m² 15,3 °C 15,9 °C 0,0 km/h (0 Bft)
20.08.2019 08:47 15,9 °C 96 % 1017,4 hPa 0,0 mm 0,0 km/h (0 Bft) W 263 ° 0 min 0,000 mm 0,6 UV-I 86 W/m² 15,3 °C 15,9 °C 0,0 km/h (0 Bft)
20.08.2019 08:48 15,9 °C 96 % 1017,4 hPa 0,0 mm 0,0 km/h (0 Bft) W 263 ° 0 min 0,000 mm 0,6 UV-I 81 W/m² 15,3 °C 15,9 °C 0,0 km/h (0 Bft)
20.08.2019 08:49 15,8 °C 96 % 1017,4 hPa 0,0 mm 0,0 km/h (0 Bft) W 263 ° 0 min 0,000 mm 0,6 UV-I 77 W/m² 15,2 °C 15,8 °C 0,0 km/h (0 Bft)
20.08.2019 08:50 15,8 °C 96 % 1017,4 hPa 0,0 mm 0,0 km/h (0 Bft) W 263 ° 0 min 0,000 mm 0,6 UV-I 74 W/m² 15,2 °C 15,8 °C 0,0 km/h (0 Bft)
20.08.2019 08:51 15,9 °C 96 % 1017,4 hPa 0,0 mm 0,0 km/h (0 Bft) W 263 ° 0 min 0,000 mm 0,5 UV-I 72 W/m² 15,3 °C 15,9 °C 0,0 km/h (0 Bft)
20.08.2019 08:52 15,9 °C 96 % 1017,4 hPa 0,0 mm 0,0 km/h (0 Bft) W 263 ° 0 min 0,000 mm 0,5 UV-I 70 W/m² 15,3 °C 15,9 °C 0,0 km/h (0 Bft)
20.08.2019 08:53 15,9 °C 96 % 1017,4 hPa 0,0 mm 0,0 km/h (0 Bft) W 263 ° 0 min 0,000 mm 0,5 UV-I 72 W/m² 15,3 °C 15,9 °C 0,0 km/h (0 Bft)
20.08.2019 08:54 15,9 °C 96 % 1017,4 hPa 0,0 mm 0,0 km/h (0 Bft) W 263 ° 0 min 0,000 mm 0,6 UV-I 74 W/m² 15,3 °C 15,9 °C 0,0 km/h (0 Bft)
20.08.2019 08:55 15,9 °C 96 % 1017,4 hPa 0,0 mm 0,0 km/h (0 Bft) W 263 ° 0 min 0,000 mm 0,6 UV-I 76 W/m² 15,3 °C 15,9 °C 0,0 km/h (0 Bft)
20.08.2019 08:56 15,9 °C 96 % 1017,4 hPa 0,0 mm 0,0 km/h (0 Bft) W 263 ° 0 min 0,000 mm 0,6 UV-I 79 W/m² 15,3 °C 15,9 °C 0,0 km/h (0 Bft)
20.08.2019 08:57 15,9 °C 96 % 1017,4 hPa 0,0 mm 0,0 km/h (0 Bft) W 263 ° 0 min 0,000 mm 0,7 UV-I 83 W/m² 15,3 °C 15,9 °C 0,0 km/h (0 Bft)
20.08.2019 08:58 15,9 °C 96 % 1017,4 hPa 0,0 mm 0,0 km/h (0 Bft) W 263 ° 0 min 0,000 mm 0,7 UV-I 90 W/m² 15,3 °C 15,9 °C 0,0 km/h (0 Bft)
20.08.2019 08:59 15,9 °C 96 % 1017,4 hPa 0,0 mm 0,0 km/h (0 Bft) W 263 ° 0 min 0,000 mm 0,8 UV-I 91 W/m² 15,3 °C 15,9 °C 0,0 km/h (0 Bft)
20.08.2019 09:00 15,9 °C 96 % 1017,4 hPa 0,0 mm 0,0 km/h (0 Bft) W 263 ° 0 min 0,051 mm 0,8 UV-I 93 W/m² 15,3 °C 15,9 °C 0,0 km/h (0 Bft)
20.08.2019 09:01 16,0 °C 96 % 1017,4 hPa 0,0 mm 0,0 km/h (0 Bft) W 263 ° 0 min 0,000 mm 0,8 UV-I 93 W/m² 15,4 °C 16,0 °C 0,0 km/h (0 Bft)
20.08.2019 09:02 16,0 °C 96 % 1017,4 hPa 0,0 mm 0,0 km/h (0 Bft) W 263 ° 0 min 0,000 mm 0,7 UV-I 91 W/m² 15,4 °C 16,0 °C 0,0 km/h (0 Bft)
20.08.2019 09:03 16,0 °C 96 % 1017,4 hPa 0,0 mm 0,0 km/h (0 Bft) W 263 ° 0 min 0,000 mm 0,7 UV-I 88 W/m² 15,4 °C 16,0 °C 0,0 km/h (0 Bft)
20.08.2019 09:04 16,0 °C 96 % 1017,4 hPa 0,0 mm 0,0 km/h (0 Bft) W 263 ° 0 min 0,000 mm 0,6 UV-I 77 W/m² 15,4 °C 16,0 °C 0,0 km/h (0 Bft)
20.08.2019 09:05 16,1 °C 96 % 1017,4 hPa 0,0 mm 0,0 km/h (0 Bft) W 263 ° 0 min 0,000 mm 0,6 UV-I 72 W/m² 15,5 °C 16,1 °C 0,0 km/h (0 Bft)
20.08.2019 09:06 16,1 °C 96 % 1017,5 hPa 0,0 mm 0,0 km/h (0 Bft) W 263 ° 0 min 0,000 mm 0,5 UV-I 67 W/m² 15,5 °C 16,1 °C 0,0 km/h (0 Bft)
20.08.2019 09:07 16,1 °C 96 % 1017,5 hPa 0,0 mm 0,0 km/h (0 Bft) W 263 ° 0 min 0,000 mm 0,5 UV-I 63 W/m² 15,5 °C 16,1 °C 0,0 km/h (0 Bft)
20.08.2019 09:08 16,1 °C 96 % 1017,5 hPa 0,0 mm 0,0 km/h (0 Bft) W 263 ° 0 min 0,000 mm 0,5 UV-I 63 W/m² 15,5 °C 16,1 °C 0,0 km/h (0 Bft)
20.08.2019 09:09 16,1 °C 96 % 1017,5 hPa 0,0 mm 0,0 km/h (0 Bft) W 263 ° 0 min 0,000 mm 0,5 UV-I 65 W/m² 15,5 °C 16,1 °C 0,0 km/h (0 Bft)
20.08.2019 09:10 16,1 °C 96 % 1017,5 hPa 0,0 mm 0,0 km/h (0 Bft) W 263 ° 0 min 0,000 mm 0,5 UV-I 67 W/m² 15,5 °C 16,1 °C 0,0 km/h (0 Bft)
20.08.2019 09:11 16,1 °C 96 % 1017,5 hPa 0,0 mm 0,0 km/h (0 Bft) W 263 ° 0 min 0,000 mm 0,5 UV-I 65 W/m² 15,5 °C 16,1 °C 0,0 km/h (0 Bft)
20.08.2019 09:12 16,1 °C 96 % 1017,5 hPa 0,0 mm 0,0 km/h (0 Bft) W 263 ° 0 min 0,000 mm 0,5 UV-I 63 W/m² 15,5 °C 16,1 °C 0,0 km/h (0 Bft)
20.08.2019 09:13 16,1 °C 96 % 1017,5 hPa 0,0 mm 0,0 km/h (0 Bft) W 263 ° 0 min 0,000 mm 0,5 UV-I 62 W/m² 15,5 °C 16,1 °C 0,0 km/h (0 Bft)
20.08.2019 09:14 16,1 °C 96 % 1017,5 hPa 0,0 mm 0,0 km/h (0 Bft) W 263 ° 0 min 0,000 mm 0,5 UV-I 62 W/m² 15,5 °C 16,1 °C 0,0 km/h (0 Bft)
20.08.2019 09:15 16,1 °C 96 % 1017,5 hPa 0,0 mm 0,0 km/h (0 Bft) W 263 ° 0 min 0,000 mm 0,5 UV-I 62 W/m² 15,5 °C 16,1 °C 0,0 km/h (0 Bft)
20.08.2019 09:16 16,1 °C 96 % 1017,5 hPa 0,0 mm 0,0 km/h (0 Bft) W 263 ° 0 min 0,000 mm 0,5 UV-I 63 W/m² 15,5 °C 16,1 °C 0,0 km/h (0 Bft)
20.08.2019 09:17 16,1 °C 96 % 1017,5 hPa 0,0 mm 0,0 km/h (0 Bft) W 263 ° 0 min 0,000 mm 0,5 UV-I 63 W/m² 15,5 °C 16,1 °C 0,0 km/h (0 Bft)
20.08.2019 09:18 16,1 °C 96 % 1017,5 hPa 0,0 mm 0,0 km/h (0 Bft) W 263 ° 0 min 0,000 mm 0,5 UV-I 63 W/m² 15,5 °C 16,1 °C 0,0 km/h (0 Bft)
20.08.2019 09:19 16,1 °C 96 % 1017,5 hPa 0,0 mm 0,0 km/h (0 Bft) W 263 ° 0 min 0,000 mm 0,5 UV-I 62 W/m² 15,5 °C 16,1 °C 0,0 km/h (0 Bft)
20.08.2019 09:20 16,1 °C 96 % 1017,5 hPa 0,0 mm 0,0 km/h (0 Bft) W 263 ° 0 min 0,000 mm 0,5 UV-I 62 W/m² 15,5 °C 16,1 °C 0,0 km/h (0 Bft)
20.08.2019 09:21 16,1 °C 96 % 1017,6 hPa 0,0 mm 0,0 km/h (0 Bft) W 263 ° 0 min 0,000 mm 0,5 UV-I 62 W/m² 15,5 °C 16,1 °C 0,0 km/h (0 Bft)
20.08.2019 09:22 16,1 °C 96 % 1017,6 hPa 0,0 mm 0,0 km/h (0 Bft) W 263 ° 0 min 0,000 mm 0,5 UV-I 62 W/m² 15,5 °C 16,1 °C 0,0 km/h (0 Bft)
20.08.2019 09:23 16,1 °C 96 % 1017,5 hPa 0,0 mm 0,0 km/h (0 Bft) W 263 ° 0 min 0,000 mm 0,5 UV-I 62 W/m² 15,5 °C 16,1 °C 0,0 km/h (0 Bft)
20.08.2019 09:24 16,1 °C 96 % 1017,5 hPa 0,0 mm 0,0 km/h (0 Bft) W 263 ° 0 min 0,000 mm 0,5 UV-I 62 W/m² 15,5 °C 16,1 °C 0,0 km/h (0 Bft)
20.08.2019 09:25 16,1 °C 96 % 1017,5 hPa 0,0 mm 0,0 km/h (0 Bft) W 263 ° 0 min 0,000 mm 0,5 UV-I 63 W/m² 15,5 °C 16,1 °C 0,0 km/h (0 Bft)
20.08.2019 09:26 16,1 °C 96 % 1017,6 hPa 0,0 mm 0,0 km/h (0 Bft) W 263 ° 0 min 0,000 mm 0,5 UV-I 63 W/m² 15,5 °C 16,1 °C 0,0 km/h (0 Bft)
20.08.2019 09:27 16,1 °C 96 % 1017,5 hPa 0,0 mm 0,0 km/h (0 Bft) W 263 ° 0 min 0,000 mm 0,5 UV-I 65 W/m² 15,5 °C 16,1 °C 0,0 km/h (0 Bft)
20.08.2019 09:28 16,2 °C 96 % 1017,6 hPa 0,0 mm 0,0 km/h (0 Bft) W 263 ° 0 min 0,000 mm 0,5 UV-I 65 W/m² 15,6 °C 16,2 °C 0,0 km/h (0 Bft)
20.08.2019 09:29 16,2 °C 96 % 1017,6 hPa 0,0 mm 0,0 km/h (0 Bft) W 263 ° 0 min 0,000 mm 0,5 UV-I 65 W/m² 15,6 °C 16,2 °C 0,0 km/h (0 Bft)
20.08.2019 09:30 16,1 °C 96 % 1017,6 hPa 0,0 mm 0,0 km/h (0 Bft) W 263 ° 0 min 0,000 mm 0,5 UV-I 65 W/m² 15,5 °C 16,1 °C 0,0 km/h (0 Bft)
20.08.2019 09:31 16,1 °C 96 % 1017,6 hPa 0,0 mm 0,0 km/h (0 Bft) W 263 ° 0 min 0,000 mm 0,6 UV-I 67 W/m² 15,5 °C 16,1 °C 0,0 km/h (0 Bft)
20.08.2019 09:32 16,1 °C 96 % 1017,5 hPa 0,0 mm 0,0 km/h (0 Bft) W 263 ° 0 min 0,000 mm 0,6 UV-I 69 W/m² 15,5 °C 16,1 °C 0,0 km/h (0 Bft)
20.08.2019 09:33 16,1 °C 96 % 1017,5 hPa 0,0 mm 0,0 km/h (0 Bft) W 263 ° 0 min 0,000 mm 0,6 UV-I 76 W/m² 15,5 °C 16,1 °C 0,0 km/h (0 Bft)
20.08.2019 09:34 16,1 °C 96 % 1017,5 hPa 0,0 mm 0,0 km/h (0 Bft) W 263 ° 0 min 0,000 mm 0,7 UV-I 79 W/m² 15,5 °C 16,1 °C 0,0 km/h (0 Bft)
20.08.2019 09:35 16,1 °C 96 % 1017,5 hPa 0,0 mm 0,0 km/h (0 Bft) W 263 ° 0 min 0,000 mm 0,7 UV-I 81 W/m² 15,5 °C 16,1 °C 0,0 km/h (0 Bft)
20.08.2019 09:36 16,1 °C 96 % 1017,6 hPa 0,0 mm 0,0 km/h (0 Bft) W 263 ° 0 min 0,000 mm 0,7 UV-I 79 W/m² 15,5 °C 16,1 °C 0,0 km/h (0 Bft)
20.08.2019 09:37 16,2 °C 96 % 1017,5 hPa 0,0 mm 0,0 km/h (0 Bft) W 263 ° 0 min 0,000 mm 0,7 UV-I 77 W/m² 15,6 °C 16,2 °C 0,0 km/h (0 Bft)
20.08.2019 09:38 16,1 °C 96 % 1017,5 hPa 0,0 mm 0,0 km/h (0 Bft) W 263 ° 0 min 0,000 mm 0,7 UV-I 74 W/m² 15,5 °C 16,1 °C 0,0 km/h (0 Bft)
20.08.2019 09:39 16,1 °C 96 % 1017,6 hPa 0,0 mm 0,0 km/h (0 Bft) W 263 ° 0 min 0,000 mm 0,6 UV-I 70 W/m² 15,5 °C 16,1 °C 0,0 km/h (0 Bft)
20.08.2019 09:40 16,1 °C 96 % 1017,6 hPa 0,0 mm 0,0 km/h (0 Bft) W 263 ° 0 min 0,000 mm 0,6 UV-I 69 W/m² 15,5 °C 16,1 °C 0,0 km/h (0 Bft)
20.08.2019 09:41 16,2 °C 96 % 1017,6 hPa 0,0 mm 0,0 km/h (0 Bft) W 263 ° 0 min 0,000 mm 0,6 UV-I 69 W/m² 15,6 °C 16,2 °C 0,0 km/h (0 Bft)
20.08.2019 09:42 16,2 °C 96 % 1017,6 hPa 0,2 mm 0,0 km/h (0 Bft) W 263 ° 0 min 0,000 mm 0,6 UV-I 69 W/m² 15,6 °C 16,2 °C 0,0 km/h (0 Bft)
20.08.2019 09:43 16,2 °C 96 % 1017,6 hPa 0,0 mm 0,0 km/h (0 Bft) W 263 ° 0 min 0,000 mm 0,6 UV-I 70 W/m² 15,6 °C 16,2 °C 0,0 km/h (0 Bft)
20.08.2019 09:44 16,2 °C 96 % 1017,6 hPa 0,0 mm 0,0 km/h (0 Bft) W 263 ° 0 min 0,000 mm 0,6 UV-I 72 W/m² 15,6 °C 16,2 °C 0,0 km/h (0 Bft)
20.08.2019 09:45 16,2 °C 96 % 1017,6 hPa 0,0 mm 0,0 km/h (0 Bft) W 263 ° 0 min 0,000 mm 0,6 UV-I 74 W/m² 15,6 °C 16,2 °C 0,0 km/h (0 Bft)
20.08.2019 09:46 16,2 °C 96 % 1017,6 hPa 0,0 mm 0,0 km/h (0 Bft) W 263 ° 0 min 0,000 mm 0,7 UV-I 76 W/m² 15,6 °C 16,2 °C 0,0 km/h (0 Bft)
20.08.2019 09:47 16,2 °C 96 % 1017,6 hPa 0,0 mm 0,0 km/h (0 Bft) W 263 ° 0 min 0,000 mm 0,7 UV-I 77 W/m² 15,6 °C 16,2 °C 0,0 km/h (0 Bft)
20.08.2019 09:48 16,2 °C 96 % 1017,5 hPa 0,0 mm 0,0 km/h (0 Bft) W 263 ° 0 min 0,000 mm 0,7 UV-I 81 W/m² 15,6 °C 16,2 °C 0,0 km/h (0 Bft)
20.08.2019 09:49 16,2 °C 96 % 1017,5 hPa 0,0 mm 0,0 km/h (0 Bft) W 263 ° 0 min 0,000 mm 0,7 UV-I 83 W/m² 15,6 °C 16,2 °C 0,0 km/h (0 Bft)
20.08.2019 09:50 16,2 °C 96 % 1017,5 hPa 0,0 mm 0,0 km/h (0 Bft) W 263 ° 0 min 0,000 mm 0,7 UV-I 84 W/m² 15,6 °C 16,2 °C 0,0 km/h (0 Bft)
20.08.2019 09:51 16,2 °C 96 % 1017,5 hPa 0,0 mm 0,0 km/h (0 Bft) W 263 ° 0 min 0,000 mm 0,7 UV-I 86 W/m² 15,6 °C 16,2 °C 0,0 km/h (0 Bft)
20.08.2019 09:52 16,3 °C 96 % 1017,5 hPa 0,0 mm 0,0 km/h (0 Bft) W 263 ° 0 min 0,000 mm 0,7 UV-I 86 W/m² 15,7 °C 16,3 °C 0,0 km/h (0 Bft)
20.08.2019 09:53 16,3 °C 96 % 1017,5 hPa 0,0 mm 0,0 km/h (0 Bft) W 263 ° 0 min 0,000 mm 0,7 UV-I 84 W/m² 15,7 °C 16,3 °C 0,0 km/h (0 Bft)
20.08.2019 09:54 16,3 °C 96 % 1017,5 hPa 0,0 mm 0,0 km/h (0 Bft) W 263 ° 0 min 0,000 mm 0,7 UV-I 83 W/m² 15,7 °C 16,3 °C 0,0 km/h (0 Bft)
20.08.2019 09:55 16,3 °C 96 % 1017,6 hPa 0,0 mm 0,0 km/h (0 Bft) W 263 ° 0 min 0,000 mm 0,7 UV-I 81 W/m² 15,7 °C 16,3 °C 0,0 km/h (0 Bft)
20.08.2019 09:56 16,4 °C 96 % 1017,7 hPa 0,0 mm 0,0 km/h (0 Bft) W 263 ° 0 min 0,000 mm 0,7 UV-I 81 W/m² 15,8 °C 16,4 °C 0,0 km/h (0 Bft)
20.08.2019 09:57 16,4 °C 96 % 1017,7 hPa 0,0 mm 0,0 km/h (0 Bft) W 263 ° 0 min 0,000 mm 0,7 UV-I 83 W/m² 15,8 °C 16,4 °C 0,0 km/h (0 Bft)
20.08.2019 09:58 16,5 °C 96 % 1017,7 hPa 0,0 mm 0,0 km/h (0 Bft) W 263 ° 0 min 0,000 mm 0,7 UV-I 84 W/m² 15,9 °C 16,5 °C 0,0 km/h (0 Bft)
20.08.2019 09:59 16,5 °C 96 % 1017,7 hPa 0,0 mm 0,0 km/h (0 Bft) W 263 ° 0 min 0,000 mm 0,8 UV-I 84 W/m² 15,9 °C 16,5 °C 0,0 km/h (0 Bft)
20.08.2019 10:00 16,5 °C 96 % 1017,7 hPa 0,0 mm 0,0 km/h (0 Bft) W 263 ° 0 min 0,051 mm 0,8 UV-I 90 W/m² 15,9 °C 16,5 °C 0,0 km/h (0 Bft)
20.08.2019 10:01 16,5 °C 96 % 1017,8 hPa 0,0 mm 0,0 km/h (0 Bft) W 263 ° 0 min 0,000 mm 0,8 UV-I 91 W/m² 15,9 °C 16,5 °C 0,0 km/h (0 Bft)
20.08.2019 10:02 16,4 °C 96 % 1017,8 hPa 0,0 mm 0,0 km/h (0 Bft) W 263 ° 0 min 0,000 mm 0,8 UV-I 95 W/m² 15,8 °C 16,4 °C 0,0 km/h (0 Bft)
20.08.2019 10:03 16,4 °C 96 % 1017,8 hPa 0,0 mm 0,0 km/h (0 Bft) W 263 ° 0 min 0,000 mm 0,8 UV-I 95 W/m² 15,8 °C 16,4 °C 0,0 km/h (0 Bft)
20.08.2019 10:04 16,4 °C 96 % 1017,8 hPa 0,0 mm 0,0 km/h (0 Bft) W 263 ° 0 min 0,000 mm 0,9 UV-I 98 W/m² 15,8 °C 16,4 °C 0,0 km/h (0 Bft)
20.08.2019 10:05 16,5 °C 96 % 1017,8 hPa 0,0 mm 0,0 km/h (0 Bft) W 263 ° 0 min 0,000 mm 0,9 UV-I 102 W/m² 15,9 °C 16,5 °C 0,0 km/h (0 Bft)
20.08.2019 10:06 16,5 °C 96 % 1017,8 hPa 0,0 mm 0,0 km/h (0 Bft) W 263 ° 0 min 0,000 mm 0,9 UV-I 104 W/m² 15,9 °C 16,5 °C 0,0 km/h (0 Bft)
20.08.2019 10:07 16,5 °C 96 % 1017,8 hPa 0,0 mm 0,0 km/h (0 Bft) W 263 ° 0 min 0,000 mm 0,9 UV-I 107 W/m² 15,9 °C 16,5 °C 0,0 km/h (0 Bft)
20.08.2019 10:08 16,4 °C 96 % 1017,8 hPa 0,2 mm 0,0 km/h (0 Bft) W 263 ° 0 min 0,000 mm 1,0 UV-I 109 W/m² 15,8 °C 16,4 °C 0,0 km/h (0 Bft)
20.08.2019 10:09 16,4 °C 96 % 1017,7 hPa 0,0 mm 0,0 km/h (0 Bft) W 263 ° 0 min 0,000 mm 1,0 UV-I 111 W/m² 15,8 °C 16,4 °C 0,0 km/h (0 Bft)
20.08.2019 10:10 16,4 °C 96 % 1017,8 hPa 0,0 mm 0,0 km/h (0 Bft) W 263 ° 0 min 0,000 mm 0,9 UV-I 109 W/m² 15,8 °C 16,4 °C 0,0 km/h (0 Bft)
20.08.2019 10:11 16,4 °C 95 % 1017,8 hPa 0,0 mm 0,0 km/h (0 Bft) W 263 ° 0 min 0,000 mm 0,9 UV-I 105 W/m² 15,6 °C 16,4 °C 0,0 km/h (0 Bft)
20.08.2019 10:12 16,4 °C 95 % 1017,8 hPa 0,0 mm 0,0 km/h (0 Bft) W 263 ° 0 min 0,000 mm 0,9 UV-I 102 W/m² 15,6 °C 16,4 °C 0,0 km/h (0 Bft)
20.08.2019 10:13 16,4 °C 96 % 1017,8 hPa 0,0 mm 0,0 km/h (0 Bft) W 263 ° 0 min 0,000 mm 0,9 UV-I 100 W/m² 15,8 °C 16,4 °C 0,0 km/h (0 Bft)
20.08.2019 10:14 16,4 °C 95 % 1017,8 hPa 0,0 mm 0,0 km/h (0 Bft) W 263 ° 0 min 0,000 mm 0,9 UV-I 95 W/m² 15,6 °C 16,4 °C 0,0 km/h (0 Bft)
20.08.2019 10:15 16,5 °C 96 % 1017,8 hPa 0,0 mm 0,0 km/h (0 Bft) W 263 ° 0 min 0,000 mm 0,8 UV-I 91 W/m² 15,9 °C 16,5 °C 0,0 km/h (0 Bft)
20.08.2019 10:16 16,4 °C 96 % 1017,8 hPa 0,0 mm 0,0 km/h (0 Bft) W 263 ° 0 min 0,000 mm 0,8 UV-I 88 W/m² 15,8 °C 16,4 °C 0,0 km/h (0 Bft)
20.08.2019 10:17 16,5 °C 95 % 1017,9 hPa 0,0 mm 0,0 km/h (0 Bft) W 263 ° 0 min 0,000 mm 0,8 UV-I 84 W/m² 15,7 °C 16,5 °C 0,0 km/h (0 Bft)
20.08.2019 10:18 16,4 °C 95 % 1017,8 hPa 0,0 mm 0,0 km/h (0 Bft) W 263 ° 0 min 0,000 mm 0,7 UV-I 83 W/m² 15,6 °C 16,4 °C 0,0 km/h (0 Bft)
20.08.2019 10:19 16,4 °C 95 % 1017,9 hPa 0,0 mm 0,0 km/h (0 Bft) W 263 ° 0 min 0,000 mm 0,7 UV-I 81 W/m² 15,6 °C 16,4 °C 0,0 km/h (0 Bft)
20.08.2019 10:20 16,3 °C 95 % 1017,9 hPa 0,0 mm 0,0 km/h (0 Bft) W 263 ° 0 min 0,000 mm 0,7 UV-I 77 W/m² 15,5 °C 16,3 °C 0,0 km/h (0 Bft)
20.08.2019 10:21 16,3 °C 95 % 1017,9 hPa 0,0 mm 0,0 km/h (0 Bft) W 263 ° 0 min 0,000 mm 0,7 UV-I 77 W/m² 15,5 °C 16,3 °C 0,0 km/h (0 Bft)
20.08.2019 10:22 16,3 °C 95 % 1017,9 hPa 0,0 mm 0,0 km/h (0 Bft) W 263 ° 0 min 0,000 mm 0,7 UV-I 77 W/m² 15,5 °C 16,3 °C 0,0 km/h (0 Bft)
20.08.2019 10:23 16,4 °C 95 % 1017,9 hPa 0,0 mm 0,0 km/h (0 Bft) W 263 ° 0 min 0,000 mm 0,7 UV-I 77 W/m² 15,6 °C 16,4 °C 0,0 km/h (0 Bft)
20.08.2019 10:24 16,4 °C 95 % 1017,9 hPa 0,0 mm 0,0 km/h (0 Bft) W 263 ° 0 min 0,000 mm 0,7 UV-I 79 W/m² 15,6 °C 16,4 °C 0,0 km/h (0 Bft)
20.08.2019 10:25 16,4 °C 95 % 1017,8 hPa 0,0 mm 0,0 km/h (0 Bft) W 263 ° 0 min 0,000 mm 0,7 UV-I 79 W/m² 15,6 °C 16,4 °C 0,0 km/h (0 Bft)
20.08.2019 10:26 16,4 °C 95 % 1017,9 hPa 0,0 mm 0,0 km/h (0 Bft) W 263 ° 0 min 0,000 mm 0,7 UV-I 79 W/m² 15,6 °C 16,4 °C 0,0 km/h (0 Bft)
20.08.2019 10:27 16,5 °C 95 % 1017,9 hPa 0,0 mm 0,0 km/h (0 Bft) W 263 ° 0 min 0,000 mm 0,7 UV-I 79 W/m² 15,7 °C 16,5 °C 0,0 km/h (0 Bft)
20.08.2019 10:28 16,5 °C 95 % 1017,9 hPa 0,0 mm 0,0 km/h (0 Bft) W 263 ° 0 min 0,000 mm 0,7 UV-I 81 W/m² 15,7 °C 16,5 °C 0,0 km/h (0 Bft)
20.08.2019 10:29 16,5 °C 95 % 1017,9 hPa 0,2 mm 0,0 km/h (0 Bft) W 263 ° 0 min 0,000 mm 0,8 UV-I 81 W/m² 15,7 °C 16,5 °C 0,0 km/h (0 Bft)
20.08.2019 10:30 16,6 °C 95 % 1017,9 hPa 0,0 mm 0,0 km/h (0 Bft) W 263 ° 0 min 0,000 mm 0,8 UV-I 84 W/m² 15,8 °C 16,6 °C 0,0 km/h (0 Bft)
20.08.2019 10:31 16,5 °C 95 % 1017,9 hPa 0,0 mm 0,0 km/h (0 Bft) W 263 ° 0 min 0,000 mm 0,8 UV-I 86 W/m² 15,7 °C 16,5 °C 0,0 km/h (0 Bft)
20.08.2019 10:32 16,6 °C 95 % 1017,8 hPa 0,0 mm 0,0 km/h (0 Bft) W 263 ° 0 min 0,000 mm 0,9 UV-I 95 W/m² 15,8 °C 16,6 °C 0,0 km/h (0 Bft)
20.08.2019 10:33 16,5 °C 95 % 1017,8 hPa 0,0 mm 0,0 km/h (0 Bft) W 263 ° 0 min 0,000 mm 0,9 UV-I 98 W/m² 15,7 °C 16,5 °C 0,0 km/h (0 Bft)
20.08.2019 10:34 16,6 °C 95 % 1017,7 hPa 0,0 mm 0,0 km/h (0 Bft) W 263 ° 0 min 0,000 mm 1,0 UV-I 102 W/m² 15,8 °C 16,6 °C 0,0 km/h (0 Bft)
20.08.2019 10:35 16,6 °C 95 % 1017,7 hPa 0,0 mm 0,0 km/h (0 Bft) W 263 ° 0 min 0,000 mm 1,0 UV-I 109 W/m² 15,8 °C 16,6 °C 0,0 km/h (0 Bft)
20.08.2019 10:36 16,6 °C 95 % 1017,8 hPa 0,0 mm 0,0 km/h (0 Bft) W 263 ° 0 min 0,000 mm 1,0 UV-I 113 W/m² 15,8 °C 16,6 °C 0,0 km/h (0 Bft)
20.08.2019 10:37 16,6 °C 95 % 1017,8 hPa 0,0 mm 0,0 km/h (0 Bft) W 263 ° 0 min 0,000 mm 1,0 UV-I 114 W/m² 15,8 °C 16,6 °C 0,0 km/h (0 Bft)
20.08.2019 10:38 16,6 °C 95 % 1017,8 hPa 0,0 mm 0,0 km/h (0 Bft) W 263 ° 0 min 0,000 mm 1,0 UV-I 113 W/m² 15,8 °C 16,6 °C 0,0 km/h (0 Bft)
20.08.2019 10:39 16,5 °C 95 % 1017,8 hPa 0,0 mm 0,0 km/h (0 Bft) W 263 ° 0 min 0,000 mm 1,0 UV-I 111 W/m² 15,7 °C 16,5 °C 0,0 km/h (0 Bft)
20.08.2019 10:40 16,4 °C 95 % 1017,8 hPa 0,0 mm 0,0 km/h (0 Bft) W 263 ° 0 min 0,000 mm 1,0 UV-I 107 W/m² 15,6 °C 16,4 °C 0,0 km/h (0 Bft)
20.08.2019 10:41 16,4 °C 95 % 1017,8 hPa 0,0 mm 0,0 km/h (0 Bft) W 263 ° 0 min 0,000 mm 0,9 UV-I 104 W/m² 15,6 °C 16,4 °C 0,0 km/h (0 Bft)
20.08.2019 10:42 16,4 °C 95 % 1017,8 hPa 0,0 mm 0,0 km/h (0 Bft) W 263 ° 0 min 0,000 mm 0,9 UV-I 104 W/m² 15,6 °C 16,4 °C 0,0 km/h (0 Bft)
20.08.2019 10:43 16,4 °C 95 % 1017,8 hPa 0,0 mm 0,0 km/h (0 Bft) W 263 ° 0 min 0,000 mm 0,9 UV-I 104 W/m² 15,6 °C 16,4 °C 0,0 km/h (0 Bft)
20.08.2019 10:44 16,5 °C 95 % 1017,8 hPa 0,0 mm 0,0 km/h (0 Bft) W 263 ° 0 min 0,000 mm 1,0 UV-I 107 W/m² 15,7 °C 16,5 °C 0,0 km/h (0 Bft)
20.08.2019 10:45 16,5 °C 95 % 1017,7 hPa 0,0 mm 0,0 km/h (0 Bft) W 263 ° 0 min 0,000 mm 1,0 UV-I 111 W/m² 15,7 °C 16,5 °C 0,0 km/h (0 Bft)
20.08.2019 10:46 16,5 °C 95 % 1017,7 hPa 0,0 mm 0,0 km/h (0 Bft) W 263 ° 0 min 0,000 mm 1,1 UV-I 116 W/m² 15,7 °C 16,5 °C 0,0 km/h (0 Bft)
20.08.2019 10:47 16,6 °C 95 % 1017,7 hPa 0,2 mm 0,0 km/h (0 Bft) W 263 ° 0 min 0,000 mm 1,1 UV-I 116 W/m² 15,8 °C 16,6 °C 0,0 km/h (0 Bft)
20.08.2019 10:48 16,6 °C 95 % 1017,7 hPa 0,0 mm 0,0 km/h (0 Bft) W 263 ° 0 min 0,000 mm 1,1 UV-I 120 W/m² 15,8 °C 16,6 °C 0,0 km/h (0 Bft)
20.08.2019 10:49 16,6 °C 95 % 1017,7 hPa 0,0 mm 0,0 km/h (0 Bft) W 263 ° 0 min 0,000 mm 1,1 UV-I 118 W/m² 15,8 °C 16,6 °C 0,0 km/h (0 Bft)
20.08.2019 10:50 16,6 °C 95 % 1017,7 hPa 0,0 mm 0,0 km/h (0 Bft) W 263 ° 0 min 0,000 mm 1,1 UV-I 116 W/m² 15,8 °C 16,6 °C 0,0 km/h (0 Bft)
20.08.2019 10:51 16,6 °C 95 % 1017,7 hPa 0,0 mm 0,0 km/h (0 Bft) W 263 ° 0 min 0,000 mm 1,1 UV-I 114 W/m² 15,8 °C 16,6 °C 0,0 km/h (0 Bft)
20.08.2019 10:52 16,6 °C 95 % 1017,8 hPa 0,0 mm 0,0 km/h (0 Bft) W 263 ° 0 min 0,000 mm 1,0 UV-I 113 W/m² 15,8 °C 16,6 °C 0,0 km/h (0 Bft)
20.08.2019 10:53 16,6 °C 95 % 1017,8 hPa 0,0 mm 0,0 km/h (0 Bft) W 263 ° 0 min 0,000 mm 1,0 UV-I 111 W/m² 15,8 °C 16,6 °C 0,0 km/h (0 Bft)
20.08.2019 10:54 16,6 °C 94 % 1017,9 hPa 0,0 mm 0,0 km/h (0 Bft) W 263 ° 0 min 0,000 mm 1,0 UV-I 109 W/m² 15,6 °C 16,6 °C 0,0 km/h (0 Bft)
20.08.2019 10:55 16,7 °C 95 % 1017,9 hPa 0,0 mm 0,0 km/h (0 Bft) W 263 ° 0 min 0,000 mm 1,0 UV-I 109 W/m² 15,9 °C 16,7 °C 0,0 km/h (0 Bft)
20.08.2019 10:56 16,7 °C 95 % 1017,9 hPa 0,0 mm 0,0 km/h (0 Bft) W 263 ° 0 min 0,000 mm 1,0 UV-I 109 W/m² 15,9 °C 16,7 °C 0,0 km/h (0 Bft)
20.08.2019 10:57 16,6 °C 94 % 1017,9 hPa 0,0 mm 0,0 km/h (0 Bft) W 263 ° 0 min 0,000 mm 1,0 UV-I 105 W/m² 15,6 °C 16,6 °C 0,0 km/h (0 Bft)
20.08.2019 10:58 16,6 °C 94 % 1017,9 hPa 0,0 mm 0,0 km/h (0 Bft) W 263 ° 0 min 0,000 mm 0,9 UV-I 102 W/m² 15,6 °C 16,6 °C 0,0 km/h (0 Bft)
20.08.2019 10:59 16,7 °C 94 % 1017,9 hPa 0,0 mm 0,0 km/h (0 Bft) W 263 ° 0 min 0,000 mm 0,9 UV-I 98 W/m² 15,7 °C 16,7 °C 0,0 km/h (0 Bft)
20.08.2019 11:00 16,7 °C 94 % 1018,0 hPa 0,0 mm 0,0 km/h (0 Bft) W 263 ° 0 min 0,000 mm 0,9 UV-I 97 W/m² 15,7 °C 16,7 °C 0,0 km/h (0 Bft)
20.08.2019 11:01 16,7 °C 95 % 1018,0 hPa 0,0 mm 0,0 km/h (0 Bft) W 263 ° 0 min 0,051 mm 0,9 UV-I 100 W/m² 15,9 °C 16,7 °C 0,0 km/h (0 Bft)
20.08.2019 11:02 16,7 °C 95 % 1017,9 hPa 0,0 mm 0,0 km/h (0 Bft) W 263 ° 0 min 0,000 mm 0,9 UV-I 104 W/m² 15,9 °C 16,7 °C 0,0 km/h (0 Bft)
20.08.2019 11:03 16,7 °C 95 % 1018,0 hPa 0,0 mm 0,0 km/h (0 Bft) W 263 ° 0 min 0,000 mm 1,0 UV-I 109 W/m² 15,9 °C 16,7 °C 0,0 km/h (0 Bft)
20.08.2019 11:04 16,7 °C 94 % 1017,9 hPa 0,0 mm 0,0 km/h (0 Bft) W 263 ° 0 min 0,000 mm 1,0 UV-I 113 W/m² 15,7 °C 16,7 °C 0,0 km/h (0 Bft)
20.08.2019 11:05 16,8 °C 95 % 1017,8 hPa 0,0 mm 0,0 km/h (0 Bft) W 263 ° 0 min 0,000 mm 1,1 UV-I 116 W/m² 16,0 °C 16,8 °C 0,0 km/h (0 Bft)
20.08.2019 11:06 16,7 °C 94 % 1017,9 hPa 0,0 mm 0,0 km/h (0 Bft) W 263 ° 0 min 0,000 mm 1,1 UV-I 118 W/m² 15,7 °C 16,7 °C 0,0 km/h (0 Bft)
20.08.2019 11:07 16,7 °C 94 % 1017,8 hPa 0,0 mm 0,0 km/h (0 Bft) W 263 ° 0 min 0,000 mm 1,1 UV-I 113 W/m² 15,7 °C 16,7 °C 0,0 km/h (0 Bft)
20.08.2019 11:08 16,7 °C 94 % 1017,8 hPa 0,0 mm 0,0 km/h (0 Bft) W 263 ° 0 min 0,000 mm 1,1 UV-I 113 W/m² 15,7 °C 16,7 °C 0,0 km/h (0 Bft)
20.08.2019 11:09 16,8 °C 95 % 1017,8 hPa 0,0 mm 0,0 km/h (0 Bft) W 263 ° 0 min 0,000 mm 1,1 UV-I 113 W/m² 16,0 °C 16,8 °C 0,0 km/h (0 Bft)
20.08.2019 11:10 16,8 °C 94 % 1017,8 hPa 0,0 mm 0,0 km/h (0 Bft) W 263 ° 0 min 0,000 mm 1,1 UV-I 116 W/m² 15,8 °C 16,8 °C 0,0 km/h (0 Bft)
20.08.2019 11:11 16,8 °C 94 % 1017,8 hPa 0,0 mm 0,0 km/h (0 Bft) W 272 ° 0 min 0,000 mm 1,1 UV-I 118 W/m² 15,8 °C 16,8 °C 0,0 km/h (0 Bft)
20.08.2019 11:12 16,7 °C 94 % 1017,8 hPa 0,0 mm 0,0 km/h (0 Bft) W 272 ° 0 min 0,000 mm 1,2 UV-I 121 W/m² 15,7 °C 16,7 °C 0,0 km/h (0 Bft)
20.08.2019 11:13 16,8 °C 94 % 1017,8 hPa 0,0 mm 0,0 km/h (0 Bft) W-NW 302 ° 0 min 0,000 mm 1,2 UV-I 120 W/m² 15,8 °C 16,8 °C 0,0 km/h (0 Bft)
20.08.2019 11:14 16,8 °C 94 % 1017,8 hPa 0,0 mm 0,0 km/h (0 Bft) W-NW 302 ° 0 min 0,000 mm 1,1 UV-I 118 W/m² 15,8 °C 16,8 °C 0,0 km/h (0 Bft)
20.08.2019 11:15 16,8 °C 94 % 1017,9 hPa 0,0 mm 0,0 km/h (0 Bft) W-NW 302 ° 0 min 0,000 mm 1,1 UV-I 114 W/m² 15,8 °C 16,8 °C 0,0 km/h (0 Bft)
20.08.2019 11:16 16,8 °C 94 % 1017,8 hPa 0,0 mm 0,0 km/h (0 Bft) W-NW 302 ° 0 min 0,000 mm 1,1 UV-I 113 W/m² 15,8 °C 16,8 °C 0,0 km/h (0 Bft)
20.08.2019 11:17 16,9 °C 94 % 1017,8 hPa 0,0 mm 0,0 km/h (0 Bft) W-NW 302 ° 0 min 0,000 mm 1,1 UV-I 111 W/m² 15,9 °C 16,9 °C 0,0 km/h (0 Bft)
20.08.2019 11:18 16,9 °C 94 % 1017,8 hPa 0,0 mm 0,0 km/h (0 Bft) W-NW 302 ° 0 min 0,000 mm 1,1 UV-I 109 W/m² 15,9 °C 16,9 °C 0,0 km/h (0 Bft)
20.08.2019 11:19 16,9 °C 94 % 1017,9 hPa 0,0 mm 0,0 km/h (0 Bft) W-NW 302 ° 0 min 0,000 mm 1,1 UV-I 113 W/m² 15,9 °C 16,9 °C 0,0 km/h (0 Bft)
20.08.2019 11:20 16,9 °C 94 % 1017,9 hPa 0,0 mm 0,0 km/h (0 Bft) W-NW 302 ° 0 min 0,000 mm 1,1 UV-I 114 W/m² 15,9 °C 16,9 °C 0,0 km/h (0 Bft)
20.08.2019 11:21 16,9 °C 94 % 1017,8 hPa 0,0 mm 0,0 km/h (0 Bft) W-NW 302 ° 0 min 0,000 mm 1,2 UV-I 114 W/m² 15,9 °C 16,9 °C 0,0 km/h (0 Bft)
20.08.2019 11:22 16,9 °C 94 % 1017,8 hPa 0,0 mm 0,0 km/h (0 Bft) O-NO 71 ° 0 min 0,000 mm 1,2 UV-I 120 W/m² 15,9 °C 16,9 °C 0,0 km/h (0 Bft)
20.08.2019 11:23 16,9 °C 94 % 1017,8 hPa 0,0 mm 0,0 km/h (0 Bft) O-NO 70 ° 0 min 0,000 mm 1,2 UV-I 121 W/m² 15,9 °C 16,9 °C 0,0 km/h (0 Bft)
20.08.2019 11:24 16,8 °C 94 % 1017,8 hPa 0,0 mm 0,0 km/h (0 Bft) O-NO 70 ° 0 min 0,000 mm 1,2 UV-I 120 W/m² 15,8 °C 16,8 °C 0,0 km/h (0 Bft)
20.08.2019 11:25 16,8 °C 94 % 1017,7 hPa 0,0 mm 0,0 km/h (0 Bft) O-NO 70 ° 0 min 0,000 mm 1,1 UV-I 105 W/m² 15,8 °C 16,8 °C 0,0 km/h (0 Bft)
20.08.2019 11:26 16,8 °C 94 % 1017,8 hPa 0,0 mm 0,0 km/h (0 Bft) O-NO 70 ° 0 min 0,000 mm 0,9 UV-I 97 W/m² 15,8 °C 16,8 °C 0,0 km/h (0 Bft)
20.08.2019 11:27 16,8 °C 94 % 1017,8 hPa 0,0 mm 0,0 km/h (0 Bft) O-NO 70 ° 0 min 0,000 mm 0,8 UV-I 88 W/m² 15,8 °C 16,8 °C 0,0 km/h (0 Bft)
20.08.2019 11:28 16,8 °C 94 % 1017,8 hPa 0,0 mm 0,8 km/h (0 Bft) O-NO 70 ° 0 min 0,000 mm 0,8 UV-I 81 W/m² 15,8 °C 16,8 °C 3,2 km/h (1 Bft)
20.08.2019 11:29 16,8 °C 94 % 1017,8 hPa 0,0 mm 0,2 km/h (0 Bft) O-NO 70 ° 0 min 0,000 mm 0,7 UV-I 76 W/m² 15,8 °C 16,8 °C 1,6 km/h (1 Bft)
20.08.2019 11:30 16,8 °C 94 % 1017,8 hPa 0,2 mm 0,0 km/h (0 Bft) O-NO 70 ° 0 min 0,000 mm 0,7 UV-I 72 W/m² 15,8 °C 16,8 °C 0,0 km/h (0 Bft)
20.08.2019 11:31 16,8 °C 94 % 1017,8 hPa 0,0 mm 0,0 km/h (0 Bft) O-NO 70 ° 0 min 0,000 mm 0,6 UV-I 63 W/m² 15,8 °C 16,8 °C 0,0 km/h (0 Bft)
20.08.2019 11:32 16,8 °C 94 % 1017,8 hPa 0,0 mm 0,0 km/h (0 Bft) O-NO 70 ° 0 min 0,000 mm 0,5 UV-I 60 W/m² 15,8 °C 16,8 °C 0,0 km/h (0 Bft)
20.08.2019 11:33 16,8 °C 94 % 1017,9 hPa 0,0 mm 0,0 km/h (0 Bft) O-NO 70 ° 0 min 0,000 mm 0,6 UV-I 62 W/m² 15,8 °C 16,8 °C 0,0 km/h (0 Bft)
20.08.2019 11:34 16,8 °C 94 % 1017,9 hPa 0,0 mm 0,0 km/h (0 Bft) O-NO 70 ° 0 min 0,000 mm 0,6 UV-I 65 W/m² 15,8 °C 16,8 °C 0,0 km/h (0 Bft)
20.08.2019 11:35 16,8 °C 94 % 1017,9 hPa 0,0 mm 0,0 km/h (0 Bft) O-NO 70 ° 0 min 0,000 mm 0,6 UV-I 69 W/m² 15,8 °C 16,8 °C 0,0 km/h (0 Bft)
20.08.2019 11:36 16,9 °C 94 % 1017,9 hPa 0,0 mm 0,0 km/h (0 Bft) O-NO 70 ° 0 min 0,000 mm 0,7 UV-I 74 W/m² 15,9 °C 16,9 °C 0,0 km/h (0 Bft)
20.08.2019 11:37 16,9 °C 94 % 1017,9 hPa 0,0 mm 0,0 km/h (0 Bft) O-NO 70 ° 0 min 0,000 mm 0,7 UV-I 74 W/m² 15,9 °C 16,9 °C 0,0 km/h (0 Bft)
20.08.2019 11:38 16,9 °C 94 % 1017,9 hPa 0,0 mm 0,0 km/h (0 Bft) O-NO 70 ° 0 min 0,000 mm 0,7 UV-I 74 W/m² 15,9 °C 16,9 °C 0,0 km/h (0 Bft)
20.08.2019 11:39 16,9 °C 94 % 1017,9 hPa 0,0 mm 0,0 km/h (0 Bft) O-NO 70 ° 0 min 0,000 mm 0,7 UV-I 74 W/m² 15,9 °C 16,9 °C 0,0 km/h (0 Bft)
20.08.2019 11:40 17,0 °C 94 % 1017,9 hPa 0,0 mm 0,6 km/h (0 Bft) O-NO 70 ° 0 min 0,000 mm 0,7 UV-I 74 W/m² 16,0 °C 17,0 °C 1,6 km/h (1 Bft)
20.08.2019 11:41 17,0 °C 94 % 1018,0 hPa 0,0 mm 0,1 km/h (0 Bft) O-NO 70 ° 0 min 0,000 mm 0,7 UV-I 74 W/m² 16,0 °C 17,0 °C 1,6 km/h (1 Bft)
20.08.2019 11:42 17,0 °C 94 % 1017,9 hPa 0,0 mm 1,0 km/h (0 Bft) O-NO 70 ° 0 min 0,000 mm 0,7 UV-I 76 W/m² 16,0 °C 17,0 °C 3,2 km/h (1 Bft)
20.08.2019 11:43 16,9 °C 94 % 1017,9 hPa 0,0 mm 0,7 km/h (0 Bft) O-NO 70 ° 0 min 0,000 mm 0,7 UV-I 79 W/m² 15,9 °C 16,9 °C 1,6 km/h (1 Bft)
20.08.2019 11:44 16,9 °C 94 % 1017,9 hPa 0,0 mm 0,1 km/h (0 Bft) O-NO 70 ° 0 min 0,000 mm 0,8 UV-I 83 W/m² 15,9 °C 16,9 °C 1,6 km/h (1 Bft)
20.08.2019 11:45 16,9 °C 94 % 1017,8 hPa 0,0 mm 1,7 km/h (1 Bft) O-NO 70 ° 0 min 0,000 mm 0,8 UV-I 88 W/m² 15,9 °C 16,9 °C 3,2 km/h (1 Bft)
20.08.2019 11:46 16,8 °C 94 % 1017,8 hPa 0,0 mm 3,4 km/h (1 Bft) O-NO 70 ° 0 min 0,000 mm 0,9 UV-I 93 W/m² 15,8 °C 16,8 °C 4,8 km/h (1 Bft)
20.08.2019 11:47 16,8 °C 94 % 1017,8 hPa 0,0 mm 0,6 km/h (0 Bft) O-NO 70 ° 0 min 0,000 mm 0,9 UV-I 98 W/m² 15,8 °C 16,8 °C 1,6 km/h (1 Bft)
20.08.2019 11:48 16,8 °C 94 % 1017,7 hPa 0,0 mm 2,7 km/h (1 Bft) O-NO 70 ° 0 min 0,000 mm 1,0 UV-I 111 W/m² 15,8 °C 16,8 °C 4,8 km/h (1 Bft)
20.08.2019 11:49 16,8 °C 94 % 1017,8 hPa 0,0 mm 1,7 km/h (1 Bft) O-NO 70 ° 0 min 0,000 mm 1,2 UV-I 123 W/m² 15,8 °C 16,8 °C 3,2 km/h (1 Bft)
20.08.2019 11:50 16,8 °C 94 % 1017,8 hPa 0,0 mm 0,6 km/h (0 Bft) O-NO 70 ° 0 min 0,000 mm 1,3 UV-I 135 W/m² 15,8 °C 16,8 °C 1,6 km/h (1 Bft)
20.08.2019 11:51 16,8 °C 94 % 1017,8 hPa 0,0 mm 2,0 km/h (1 Bft) O-NO 70 ° 0 min 0,000 mm 1,3 UV-I 142 W/m² 15,8 °C 16,8 °C 3,2 km/h (1 Bft)
20.08.2019 11:52 16,8 °C 94 % 1017,8 hPa 0,2 mm 1,4 km/h (1 Bft) O-NO 70 ° 0 min 0,000 mm 1,3 UV-I 142 W/m² 15,8 °C 16,8 °C 3,2 km/h (1 Bft)
20.08.2019 11:53 16,8 °C 94 % 1017,8 hPa 0,0 mm 1,3 km/h (1 Bft) O-NO 70 ° 0 min 0,000 mm 1,3 UV-I 142 W/m² 15,8 °C 16,8 °C 3,2 km/h (1 Bft)
20.08.2019 11:54 16,8 °C 94 % 1017,8 hPa 0,0 mm 1,4 km/h (1 Bft) O-NO 70 ° 0 min 0,000 mm 1,4 UV-I 153 W/m² 15,8 °C 16,8 °C 3,2 km/h (1 Bft)
20.08.2019 11:55 16,9 °C 94 % 1017,8 hPa 0,0 mm 2,3 km/h (1 Bft) O-NO 70 ° 0 min 0,000 mm 1,5 UV-I 165 W/m² 15,9 °C 16,9 °C 4,8 km/h (1 Bft)
20.08.2019 11:56 16,9 °C 94 % 1017,7 hPa 0,0 mm 0,5 km/h (0 Bft) O-NO 70 ° 0 min 0,000 mm 1,7 UV-I 178 W/m² 15,9 °C 16,9 °C 1,6 km/h (1 Bft)
20.08.2019 11:57 16,9 °C 94 % 1017,7 hPa 0,0 mm 0,0 km/h (0 Bft) O-NO 70 ° 0 min 0,000 mm 1,8 UV-I 190 W/m² 15,9 °C 16,9 °C 0,0 km/h (0 Bft)
20.08.2019 11:58 16,9 °C 94 % 1017,7 hPa 0,0 mm 0,5 km/h (0 Bft) O-NO 70 ° 0 min 0,000 mm 1,9 UV-I 202 W/m² 15,9 °C 16,9 °C 1,6 km/h (1 Bft)
20.08.2019 11:59 16,9 °C 94 % 1017,7 hPa 0,0 mm 0,4 km/h (0 Bft) O-NO 70 ° 0 min 0,000 mm 1,9 UV-I 207 W/m² 15,9 °C 16,9 °C 1,6 km/h (1 Bft)
20.08.2019 12:00 16,9 °C 94 % 1017,6 hPa 0,0 mm 0,5 km/h (0 Bft) O-NO 70 ° 0 min 0,000 mm 1,9 UV-I 209 W/m² 15,9 °C 16,9 °C 1,6 km/h (1 Bft)
20.08.2019 12:01 16,9 °C 94 % 1017,6 hPa 0,0 mm 1,8 km/h (1 Bft) O-NO 70 ° 0 min 0,051 mm 1,8 UV-I 199 W/m² 15,9 °C 16,9 °C 3,2 km/h (1 Bft)
20.08.2019 12:02 17,0 °C 94 % 1017,6 hPa 0,0 mm 1,2 km/h (1 Bft) O-NO 70 ° 0 min 0,000 mm 1,8 UV-I 193 W/m² 16,0 °C 17,0 °C 3,2 km/h (1 Bft)
20.08.2019 12:03 17,0 °C 94 % 1017,7 hPa 0,0 mm 0,1 km/h (0 Bft) O-NO 70 ° 0 min 0,000 mm 1,8 UV-I 190 W/m² 16,0 °C 17,0 °C 1,6 km/h (1 Bft)
20.08.2019 12:04 16,9 °C 94 % 1017,6 hPa 0,0 mm 0,0 km/h (0 Bft) O-NO 70 ° 0 min 0,000 mm 1,7 UV-I 186 W/m² 15,9 °C 16,9 °C 0,0 km/h (0 Bft)
20.08.2019 12:05 17,0 °C 94 % 1017,6 hPa 0,0 mm 0,9 km/h (0 Bft) O-NO 70 ° 0 min 0,000 mm 1,6 UV-I 178 W/m² 16,0 °C 17,0 °C 3,2 km/h (1 Bft)
20.08.2019 12:06 17,0 °C 94 % 1017,6 hPa 0,0 mm 4,9 km/h (1 Bft) O 85 ° 0 min 0,000 mm 1,5 UV-I 169 W/m² 16,0 °C 17,0 °C 6,4 km/h (2 Bft)
20.08.2019 12:07 17,0 °C 94 % 1017,7 hPa 0,0 mm 4,2 km/h (1 Bft) O-NO 76 ° 0 min 0,000 mm 1,6 UV-I 176 W/m² 16,0 °C 17,0 °C 4,8 km/h (1 Bft)
20.08.2019 12:08 16,9 °C 94 % 1017,7 hPa 0,0 mm 3,1 km/h (1 Bft) NO 55 ° 0 min 0,000 mm 1,7 UV-I 178 W/m² 15,9 °C 16,9 °C 4,8 km/h (1 Bft)
20.08.2019 12:09 16,9 °C 94 % 1017,7 hPa 0,0 mm 1,0 km/h (0 Bft) NO 55 ° 0 min 0,000 mm 1,7 UV-I 181 W/m² 15,9 °C 16,9 °C 3,2 km/h (1 Bft)
20.08.2019 12:10 16,9 °C 94 % 1017,7 hPa 0,0 mm 0,0 km/h (0 Bft) NO 55 ° 0 min 0,000 mm 1,7 UV-I 183 W/m² 15,9 °C 16,9 °C 0,0 km/h (0 Bft)
20.08.2019 12:11 17,0 °C 94 % 1017,7 hPa 0,0 mm 0,0 km/h (0 Bft) NO 55 ° 0 min 0,000 mm 1,8 UV-I 195 W/m² 16,0 °C 17,0 °C 0,0 km/h (0 Bft)
20.08.2019 12:12 17,0 °C 94 % 1017,6 hPa 0,0 mm 0,0 km/h (0 Bft) NO 55 ° 0 min 0,000 mm 1,9 UV-I 204 W/m² 16,0 °C 17,0 °C 0,0 km/h (0 Bft)
20.08.2019 12:13 16,9 °C 94 % 1017,6 hPa 0,0 mm 0,0 km/h (0 Bft) NO 55 ° 0 min 0,000 mm 2,0 UV-I 216 W/m² 15,9 °C 16,9 °C 0,0 km/h (0 Bft)
20.08.2019 12:14 17,0 °C 94 % 1017,6 hPa 0,0 mm 0,0 km/h (0 Bft) NO 55 ° 0 min 0,000 mm 2,1 UV-I 230 W/m² 16,0 °C 17,0 °C 0,0 km/h (0 Bft)
20.08.2019 12:15 17,1 °C 94 % 1017,5 hPa 0,0 mm 0,0 km/h (0 Bft) NO 55 ° 0 min 0,000 mm 2,2 UV-I 241 W/m² 16,1 °C 17,1 °C 0,0 km/h (0 Bft)
20.08.2019 12:16 17,1 °C 94 % 1017,5 hPa 0,0 mm 0,0 km/h (0 Bft) NO 55 ° 0 min 0,000 mm 2,3 UV-I 251 W/m² 16,1 °C 17,1 °C 0,0 km/h (0 Bft)
20.08.2019 12:17 17,1 °C 94 % 1017,5 hPa 0,0 mm 0,0 km/h (0 Bft) NO 55 ° 0 min 0,000 mm 2,3 UV-I 251 W/m² 16,1 °C 17,1 °C 0,0 km/h (0 Bft)
20.08.2019 12:18 17,2 °C 94 % 1017,5 hPa 0,0 mm 0,0 km/h (0 Bft) NO 55 ° 0 min 0,000 mm 2,2 UV-I 243 W/m² 16,2 °C 17,2 °C 0,0 km/h (0 Bft)
20.08.2019 12:19 17,2 °C 94 % 1017,5 hPa 0,0 mm 0,0 km/h (0 Bft) NO 55 ° 0 min 0,000 mm 2,2 UV-I 239 W/m² 16,2 °C 17,2 °C 0,0 km/h (0 Bft)
20.08.2019 12:20 17,2 °C 94 % 1017,5 hPa 0,0 mm 0,0 km/h (0 Bft) NO 55 ° 0 min 0,000 mm 2,2 UV-I 239 W/m² 16,2 °C 17,2 °C 0,0 km/h (0 Bft)
20.08.2019 12:21 17,2 °C 94 % 1017,5 hPa 0,0 mm 0,0 km/h (0 Bft) NO 55 ° 0 min 0,000 mm 2,2 UV-I 241 W/m² 16,2 °C 17,2 °C 0,0 km/h (0 Bft)
20.08.2019 12:22 17,2 °C 94 % 1017,5 hPa 0,0 mm 0,0 km/h (0 Bft) NO 55 ° 0 min 0,000 mm 2,0 UV-I 221 W/m² 16,2 °C 17,2 °C 0,0 km/h (0 Bft)
20.08.2019 12:23 17,3 °C 94 % 1017,5 hPa 0,0 mm 0,7 km/h (0 Bft) NO 55 ° 0 min 0,000 mm 2,0 UV-I 214 W/m² 16,3 °C 17,3 °C 3,2 km/h (1 Bft)
20.08.2019 12:24 17,3 °C 94 % 1017,4 hPa 0,0 mm 1,7 km/h (1 Bft) NO 55 ° 0 min 0,000 mm 2,0 UV-I 213 W/m² 16,3 °C 17,3 °C 4,8 km/h (1 Bft)
20.08.2019 12:25 17,3 °C 94 % 1017,5 hPa 0,0 mm 4,5 km/h (1 Bft) NO 55 ° 0 min 0,000 mm 1,9 UV-I 204 W/m² 16,3 °C 17,3 °C 6,4 km/h (2 Bft)
20.08.2019 12:26 17,3 °C 94 % 1017,4 hPa 0,0 mm 0,4 km/h (0 Bft) NO 55 ° 0 min 0,000 mm 1,8 UV-I 190 W/m² 16,3 °C 17,3 °C 3,2 km/h (1 Bft)
20.08.2019 12:27 17,3 °C 94 % 1017,5 hPa 0,0 mm 0,0 km/h (0 Bft) NO 55 ° 0 min 0,000 mm 1,7 UV-I 176 W/m² 16,3 °C 17,3 °C 0,0 km/h (0 Bft)
20.08.2019 12:28 17,3 °C 94 % 1017,5 hPa 0,0 mm 0,2 km/h (0 Bft) NO 55 ° 0 min 0,000 mm 1,7 UV-I 171 W/m² 16,3 °C 17,3 °C 1,6 km/h (1 Bft)
20.08.2019 12:29 17,3 °C 94 % 1017,5 hPa 0,0 mm 0,0 km/h (0 Bft) NO 55 ° 0 min 0,000 mm 1,6 UV-I 176 W/m² 16,3 °C 17,3 °C 0,0 km/h (0 Bft)
20.08.2019 12:30 17,3 °C 94 % 1017,5 hPa 0,0 mm 0,7 km/h (0 Bft) NO 55 ° 0 min 0,000 mm 1,7 UV-I 178 W/m² 16,3 °C 17,3 °C 1,6 km/h (1 Bft)
20.08.2019 12:31 17,4 °C 94 % 1017,5 hPa 0,0 mm 1,4 km/h (1 Bft) NO 55 ° 0 min 0,000 mm 1,7 UV-I 176 W/m² 16,4 °C 17,4 °C 3,2 km/h (1 Bft)
20.08.2019 12:32 17,4 °C 94 % 1017,5 hPa 0,0 mm 0,0 km/h (0 Bft) NO 55 ° 0 min 0,000 mm 1,7 UV-I 178 W/m² 16,4 °C 17,4 °C 0,0 km/h (0 Bft)
20.08.2019 12:33 17,3 °C 94 % 1017,5 hPa 0,0 mm 0,0 km/h (0 Bft) NO 55 ° 0 min 0,000 mm 1,6 UV-I 172 W/m² 16,3 °C 17,3 °C 0,0 km/h (0 Bft)
20.08.2019 12:34 17,4 °C 94 % 1017,6 hPa 0,0 mm 0,8 km/h (0 Bft) NO 55 ° 0 min 0,000 mm 1,6 UV-I 169 W/m² 16,4 °C 17,4 °C 1,6 km/h (1 Bft)
20.08.2019 12:35 17,4 °C 94 % 1017,6 hPa 0,0 mm 1,1 km/h (1 Bft) NO 55 ° 0 min 0,000 mm 1,6 UV-I 169 W/m² 16,4 °C 17,4 °C 3,2 km/h (1 Bft)
20.08.2019 12:36 17,3 °C 94 % 1017,6 hPa 0,0 mm 0,6 km/h (0 Bft) NO 55 ° 0 min 0,000 mm 1,6 UV-I 169 W/m² 16,3 °C 17,3 °C 3,2 km/h (1 Bft)
20.08.2019 12:37 17,3 °C 93 % 1017,5 hPa 0,0 mm 0,3 km/h (0 Bft) O-NO 63 ° 0 min 0,000 mm 1,5 UV-I 158 W/m² 16,2 °C 17,3 °C 3,2 km/h (1 Bft)
20.08.2019 12:38 17,3 °C 93 % 1017,5 hPa 0,0 mm 0,5 km/h (0 Bft) O-NO 63 ° 0 min 0,000 mm 1,5 UV-I 158 W/m² 16,2 °C 17,3 °C 3,2 km/h (1 Bft)
20.08.2019 12:39 17,3 °C 93 % 1017,5 hPa 0,0 mm 1,9 km/h (1 Bft) O-NO 63 ° 0 min 0,000 mm 1,5 UV-I 156 W/m² 16,2 °C 17,3 °C 3,2 km/h (1 Bft)
20.08.2019 12:40 17,3 °C 93 % 1017,6 hPa 0,0 mm 1,5 km/h (1 Bft) O-NO 63 ° 0 min 0,000 mm 1,5 UV-I 160 W/m² 16,2 °C 17,3 °C 3,2 km/h (1 Bft)
20.08.2019 12:41 17,3 °C 93 % 1017,6 hPa 0,0 mm 0,3 km/h (0 Bft) O-NO 63 ° 0 min 0,000 mm 1,6 UV-I 169 W/m² 16,2 °C 17,3 °C 1,6 km/h (1 Bft)
20.08.2019 12:42 17,2 °C 93 % 1017,6 hPa 0,0 mm 0,1 km/h (0 Bft) O-NO 63 ° 0 min 0,000 mm 1,6 UV-I 171 W/m² 16,1 °C 17,2 °C 1,6 km/h (1 Bft)
20.08.2019 12:43 17,2 °C 93 % 1017,6 hPa 0,0 mm 1,8 km/h (1 Bft) O-NO 63 ° 0 min 0,000 mm 1,6 UV-I 169 W/m² 16,1 °C 17,2 °C 3,2 km/h (1 Bft)
20.08.2019 12:44 17,2 °C 92 % 1017,6 hPa 0,0 mm 0,2 km/h (0 Bft) O-NO 63 ° 0 min 0,000 mm 1,6 UV-I 163 W/m² 15,9 °C 17,2 °C 1,6 km/h (1 Bft)
20.08.2019 12:45 17,2 °C 93 % 1017,6 hPa 0,0 mm 0,0 km/h (0 Bft) O-NO 63 ° 0 min 0,000 mm 1,5 UV-I 156 W/m² 16,1 °C 17,2 °C 0,0 km/h (0 Bft)
20.08.2019 12:46 17,2 °C 93 % 1017,6 hPa 0,0 mm 0,0 km/h (0 Bft) O-NO 63 ° 0 min 0,000 mm 1,5 UV-I 156 W/m² 16,1 °C 17,2 °C 0,0 km/h (0 Bft)
20.08.2019 12:47 17,2 °C 93 % 1017,6 hPa 0,0 mm 0,0 km/h (0 Bft) O-NO 63 ° 0 min 0,000 mm 1,6 UV-I 158 W/m² 16,1 °C 17,2 °C 0,0 km/h (0 Bft)
20.08.2019 12:48 17,3 °C 93 % 1017,6 hPa 0,0 mm 0,0 km/h (0 Bft) O-NO 63 ° 0 min 0,000 mm 1,6 UV-I 162 W/m² 16,2 °C 17,3 °C 0,0 km/h (0 Bft)
20.08.2019 12:49 17,3 °C 93 % 1017,5 hPa 0,0 mm 1,4 km/h (1 Bft) O-NO 63 ° 0 min 0,000 mm 1,6 UV-I 167 W/m² 16,2 °C 17,3 °C 3,2 km/h (1 Bft)
20.08.2019 12:50 17,3 °C 93 % 1017,5 hPa 0,0 mm 0,8 km/h (0 Bft) O-NO 63 ° 0 min 0,000 mm 1,7 UV-I 171 W/m² 16,2 °C 17,3 °C 1,6 km/h (1 Bft)
20.08.2019 12:51 17,3 °C 93 % 1017,5 hPa 0,0 mm 0,0 km/h (0 Bft) O-NO 63 ° 0 min 0,000 mm 1,6 UV-I 169 W/m² 16,2 °C 17,3 °C 0,0 km/h (0 Bft)
20.08.2019 12:52 17,3 °C 93 % 1017,4 hPa 0,0 mm 0,0 km/h (0 Bft) O-NO 63 ° 0 min 0,000 mm 1,5 UV-I 146 W/m² 16,2 °C 17,3 °C 0,0 km/h (0 Bft)
20.08.2019 12:53 17,3 °C 93 % 1017,4 hPa 0,0 mm 0,0 km/h (0 Bft) O-NO 63 ° 0 min 0,000 mm 1,4 UV-I 135 W/m² 16,2 °C 17,3 °C 0,0 km/h (0 Bft)
20.08.2019 12:54 17,3 °C 93 % 1017,4 hPa 0,0 mm 0,0 km/h (0 Bft) O-NO 63 ° 0 min 0,000 mm 1,3 UV-I 130 W/m² 16,2 °C 17,3 °C 0,0 km/h (0 Bft)
20.08.2019 12:55 17,3 °C 93 % 1017,3 hPa 0,0 mm 0,0 km/h (0 Bft) O-NO 63 ° 0 min 0,000 mm 1,2 UV-I 127 W/m² 16,2 °C 17,3 °C 0,0 km/h (0 Bft)
20.08.2019 12:56 17,3 °C 93 % 1017,3 hPa 0,0 mm 0,0 km/h (0 Bft) O-NO 63 ° 0 min 0,000 mm 1,2 UV-I 128 W/m² 16,2 °C 17,3 °C 0,0 km/h (0 Bft)
20.08.2019 12:57 17,3 °C 93 % 1017,3 hPa 0,0 mm 0,0 km/h (0 Bft) O-NO 63 ° 0 min 0,000 mm 1,3 UV-I 134 W/m² 16,2 °C 17,3 °C 0,0 km/h (0 Bft)
20.08.2019 12:58 17,3 °C 93 % 1017,2 hPa 0,0 mm 0,0 km/h (0 Bft) O-NO 63 ° 0 min 0,000 mm 1,3 UV-I 148 W/m² 16,2 °C 17,3 °C 0,0 km/h (0 Bft)
20.08.2019 12:59 17,3 °C 93 % 1017,3 hPa 0,2 mm 0,0 km/h (0 Bft) O-NO 63 ° 0 min 0,000 mm 1,4 UV-I 155 W/m² 16,2 °C 17,3 °C 0,0 km/h (0 Bft)
20.08.2019 13:00 17,3 °C 92 % 1017,2 hPa 0,0 mm 0,0 km/h (0 Bft) O-NO 63 ° 0 min 0,000 mm 1,6 UV-I 160 W/m² 16,0 °C 17,3 °C 0,0 km/h (0 Bft)
20.08.2019 13:01 17,2 °C 92 % 1017,3 hPa 0,0 mm 0,0 km/h (0 Bft) O-NO 63 ° 0 min 0,101 mm 1,6 UV-I 162 W/m² 15,9 °C 17,2 °C 0,0 km/h (0 Bft)
20.08.2019 13:02 17,2 °C 92 % 1017,3 hPa 0,0 mm 0,0 km/h (0 Bft) O-NO 63 ° 0 min 0,000 mm 1,5 UV-I 156 W/m² 15,9 °C 17,2 °C 0,0 km/h (0 Bft)
20.08.2019 13:03 17,2 °C 92 % 1017,3 hPa 0,0 mm 0,0 km/h (0 Bft) O-NO 63 ° 0 min 0,000 mm 1,4 UV-I 149 W/m² 15,9 °C 17,2 °C 0,0 km/h (0 Bft)
20.08.2019 13:04 17,2 °C 92 % 1017,4 hPa 0,0 mm 0,0 km/h (0 Bft) O-NO 63 ° 0 min 0,000 mm 1,4 UV-I 148 W/m² 15,9 °C 17,2 °C 0,0 km/h (0 Bft)
20.08.2019 13:05 17,3 °C 92 % 1017,4 hPa 0,0 mm 0,0 km/h (0 Bft) O-NO 63 ° 0 min 0,000 mm 1,5 UV-I 151 W/m² 16,0 °C 17,3 °C 0,0 km/h (0 Bft)
20.08.2019 13:06 17,3 °C 93 % 1017,4 hPa 0,0 mm 0,0 km/h (0 Bft) O-NO 63 ° 0 min 0,000 mm 1,5 UV-I 155 W/m² 16,2 °C 17,3 °C 0,0 km/h (0 Bft)
20.08.2019 13:07 17,3 °C 93 % 1017,4 hPa 0,0 mm 0,0 km/h (0 Bft) O-NO 63 ° 0 min 0,000 mm 1,6 UV-I 160 W/m² 16,2 °C 17,3 °C 0,0 km/h (0 Bft)
20.08.2019 13:08 17,3 °C 93 % 1017,4 hPa 0,0 mm 0,0 km/h (0 Bft) O-NO 63 ° 0 min 0,000 mm 1,6 UV-I 165 W/m² 16,2 °C 17,3 °C 0,0 km/h (0 Bft)
20.08.2019 13:09 17,2 °C 93 % 1017,3 hPa 0,0 mm 0,0 km/h (0 Bft) O-NO 63 ° 0 min 0,000 mm 1,7 UV-I 172 W/m² 16,1 °C 17,2 °C 0,0 km/h (0 Bft)
20.08.2019 13:10 17,2 °C 93 % 1017,3 hPa 0,0 mm 0,0 km/h (0 Bft) O-NO 63 ° 0 min 0,000 mm 1,7 UV-I 179 W/m² 16,1 °C 17,2 °C 0,0 km/h (0 Bft)
20.08.2019 13:11 17,2 °C 92 % 1017,4 hPa 0,0 mm 0,0 km/h (0 Bft) O-NO 63 ° 0 min 0,000 mm 1,8 UV-I 185 W/m² 15,9 °C 17,2 °C 0,0 km/h (0 Bft)
20.08.2019 13:12 17,3 °C 92 % 1017,3 hPa 0,0 mm 0,0 km/h (0 Bft) O-NO 63 ° 0 min 0,000 mm 1,9 UV-I 200 W/m² 16,0 °C 17,3 °C 0,0 km/h (0 Bft)
20.08.2019 13:13 17,2 °C 93 % 1017,3 hPa 0,0 mm 0,0 km/h (0 Bft) O-NO 63 ° 0 min 0,000 mm 2,1 UV-I 220 W/m² 16,1 °C 17,2 °C 0,0 km/h (0 Bft)
20.08.2019 13:14 17,3 °C 93 % 1017,3 hPa 0,0 mm 0,0 km/h (0 Bft) O-NO 63 ° 0 min 0,000 mm 2,3 UV-I 239 W/m² 16,2 °C 17,3 °C 0,0 km/h (0 Bft)
20.08.2019 13:15 17,3 °C 93 % 1017,2 hPa 0,0 mm 0,0 km/h (0 Bft) O-NO 63 ° 0 min 0,000 mm 2,5 UV-I 260 W/m² 16,2 °C 17,3 °C 0,0 km/h (0 Bft)
20.08.2019 13:16 17,3 °C 93 % 1017,2 hPa 0,0 mm 0,0 km/h (0 Bft) O-NO 63 ° 0 min 0,000 mm 2,6 UV-I 278 W/m² 16,2 °C 17,3 °C 0,0 km/h (0 Bft)
20.08.2019 13:17 17,3 °C 93 % 1017,2 hPa 0,0 mm 0,0 km/h (0 Bft) O-NO 63 ° 0 min 0,000 mm 2,4 UV-I 258 W/m² 16,2 °C 17,3 °C 0,0 km/h (0 Bft)
20.08.2019 13:18 17,4 °C 93 % 1017,3 hPa 0,0 mm 0,0 km/h (0 Bft) O-NO 63 ° 0 min 0,000 mm 2,3 UV-I 239 W/m² 16,3 °C 17,4 °C 0,0 km/h (0 Bft)
20.08.2019 13:19 17,6 °C 93 % 1017,3 hPa 0,0 mm 0,0 km/h (0 Bft) O-NO 63 ° 0 min 0,000 mm 2,2 UV-I 230 W/m² 16,5 °C 17,6 °C 0,0 km/h (0 Bft)
20.08.2019 13:20 17,6 °C 93 % 1017,4 hPa 0,0 mm 0,0 km/h (0 Bft) O-NO 63 ° 0 min 0,000 mm 2,3 UV-I 234 W/m² 16,5 °C 17,6 °C 0,0 km/h (0 Bft)
20.08.2019 13:21 17,6 °C 93 % 1017,3 hPa 0,0 mm 0,0 km/h (0 Bft) O-NO 63 ° 0 min 0,000 mm 2,4 UV-I 250 W/m² 16,5 °C 17,6 °C 0,0 km/h (0 Bft)
20.08.2019 13:22 17,7 °C 93 % 1017,3 hPa 0,0 mm 0,0 km/h (0 Bft) O-NO 63 ° 0 min 0,000 mm 2,5 UV-I 246 W/m² 16,6 °C 17,7 °C 0,0 km/h (0 Bft)
20.08.2019 13:23 17,6 °C 93 % 1017,3 hPa 0,0 mm 0,0 km/h (0 Bft) O-NO 63 ° 0 min 0,000 mm 2,2 UV-I 225 W/m² 16,5 °C 17,6 °C 0,0 km/h (0 Bft)
20.08.2019 13:24 17,6 °C 93 % 1017,3 hPa 0,0 mm 0,0 km/h (0 Bft) O-NO 63 ° 0 min 0,000 mm 2,0 UV-I 207 W/m² 16,5 °C 17,6 °C 0,0 km/h (0 Bft)
20.08.2019 13:25 17,6 °C 92 % 1017,3 hPa 0,0 mm 0,0 km/h (0 Bft) O-NO 63 ° 0 min 0,000 mm 1,9 UV-I 195 W/m² 16,3 °C 17,6 °C 0,0 km/h (0 Bft)
20.08.2019 13:26 17,5 °C 92 % 1017,3 hPa 0,0 mm 0,0 km/h (0 Bft) O-NO 63 ° 0 min 0,000 mm 1,7 UV-I 178 W/m² 16,2 °C 17,5 °C 0,0 km/h (0 Bft)
20.08.2019 13:27 17,5 °C 92 % 1017,4 hPa 0,0 mm 0,0 km/h (0 Bft) O-NO 63 ° 0 min 0,000 mm 1,5 UV-I 160 W/m² 16,2 °C 17,5 °C 0,0 km/h (0 Bft)
20.08.2019 13:28 17,4 °C 92 % 1017,4 hPa 0,0 mm 0,0 km/h (0 Bft) O-NO 63 ° 0 min 0,000 mm 1,4 UV-I 130 W/m² 16,1 °C 17,4 °C 0,0 km/h (0 Bft)
20.08.2019 13:29 17,4 °C 92 % 1017,4 hPa 0,0 mm 0,0 km/h (0 Bft) O-NO 63 ° 0 min 0,000 mm 1,2 UV-I 120 W/m² 16,1 °C 17,4 °C 0,0 km/h (0 Bft)
20.08.2019 13:30 17,4 °C 92 % 1017,5 hPa 0,0 mm 0,0 km/h (0 Bft) O-NO 63 ° 0 min 0,000 mm 1,1 UV-I 109 W/m² 16,1 °C 17,4 °C 0,0 km/h (0 Bft)
20.08.2019 13:31 17,4 °C 92 % 1017,5 hPa 0,0 mm 0,0 km/h (0 Bft) O-NO 63 ° 0 min 0,000 mm 1,0 UV-I 105 W/m² 16,1 °C 17,4 °C 0,0 km/h (0 Bft)
20.08.2019 13:32 17,4 °C 92 % 1017,5 hPa 0,0 mm 0,0 km/h (0 Bft) O-NO 63 ° 0 min 0,000 mm 1,0 UV-I 102 W/m² 16,1 °C 17,4 °C 0,0 km/h (0 Bft)
20.08.2019 13:33 17,4 °C 92 % 1017,4 hPa 0,0 mm 0,0 km/h (0 Bft) O-NO 63 ° 0 min 0,000 mm 1,0 UV-I 100 W/m² 16,1 °C 17,4 °C 0,0 km/h (0 Bft)
20.08.2019 13:34 17,4 °C 92 % 1017,5 hPa 0,0 mm 0,0 km/h (0 Bft) O-NO 63 ° 0 min 0,000 mm 1,1 UV-I 116 W/m² 16,1 °C 17,4 °C 0,0 km/h (0 Bft)
20.08.2019 13:35 17,3 °C 92 % 1017,5 hPa 0,0 mm 0,0 km/h (0 Bft) O-NO 63 ° 0 min 0,000 mm 1,2 UV-I 118 W/m² 16,0 °C 17,3 °C 0,0 km/h (0 Bft)
20.08.2019 13:36 17,4 °C 92 % 1017,6 hPa 0,0 mm 0,0 km/h (0 Bft) O-NO 63 ° 0 min 0,000 mm 1,1 UV-I 113 W/m² 16,1 °C 17,4 °C 0,0 km/h (0 Bft)
20.08.2019 13:37 17,4 °C 93 % 1017,6 hPa 0,0 mm 0,0 km/h (0 Bft) O-NO 63 ° 0 min 0,000 mm 1,0 UV-I 100 W/m² 16,3 °C 17,4 °C 0,0 km/h (0 Bft)
20.08.2019 13:38 17,4 °C 93 % 1017,6 hPa 0,0 mm 0,0 km/h (0 Bft) O-NO 63 ° 0 min 0,000 mm 0,8 UV-I 100 W/m² 16,3 °C 17,4 °C 0,0 km/h (0 Bft)
20.08.2019 13:39 17,4 °C 93 % 1017,6 hPa 0,0 mm 0,0 km/h (0 Bft) O-NO 63 ° 0 min 0,000 mm 0,8 UV-I 81 W/m² 16,3 °C 17,4 °C 0,0 km/h (0 Bft)
20.08.2019 13:40 17,3 °C 93 % 1017,7 hPa 0,0 mm 0,0 km/h (0 Bft) O-NO 63 ° 0 min 0,000 mm 1,2 UV-I 116 W/m² 16,2 °C 17,3 °C 0,0 km/h (0 Bft)
20.08.2019 13:41 17,3 °C 92 % 1017,6 hPa 0,0 mm 0,0 km/h (0 Bft) O-NO 63 ° 0 min 0,000 mm 1,3 UV-I 128 W/m² 16,0 °C 17,3 °C 0,0 km/h (0 Bft)
20.08.2019 13:42 17,3 °C 93 % 1017,5 hPa 0,0 mm 0,0 km/h (0 Bft) O-NO 63 ° 0 min 0,000 mm 1,2 UV-I 125 W/m² 16,2 °C 17,3 °C 0,0 km/h (0 Bft)
20.08.2019 13:43 17,3 °C 93 % 1017,4 hPa 0,0 mm 0,0 km/h (0 Bft) O-NO 63 ° 0 min 0,000 mm 1,1 UV-I 113 W/m² 16,2 °C 17,3 °C 0,0 km/h (0 Bft)
20.08.2019 13:44 17,3 °C 93 % 1017,3 hPa 0,0 mm 0,0 km/h (0 Bft) O-NO 63 ° 0 min 0,000 mm 1,0 UV-I 100 W/m² 16,2 °C 17,3 °C 0,0 km/h (0 Bft)
20.08.2019 13:45 17,3 °C 93 % 1017,4 hPa 0,0 mm 0,0 km/h (0 Bft) O-NO 63 ° 0 min 0,000 mm 1,0 UV-I 100 W/m² 16,2 °C 17,3 °C 0,0 km/h (0 Bft)
20.08.2019 13:46 17,4 °C 93 % 1017,4 hPa 0,0 mm 0,0 km/h (0 Bft) O-NO 63 ° 0 min 0,000 mm 1,0 UV-I 100 W/m² 16,3 °C 17,4 °C 0,0 km/h (0 Bft)
20.08.2019 13:47 17,3 °C 93 % 1017,4 hPa 0,0 mm 0,0 km/h (0 Bft) O-NO 63 ° 0 min 0,000 mm 1,0 UV-I 97 W/m² 16,2 °C 17,3 °C 0,0 km/h (0 Bft)
20.08.2019 13:48 17,3 °C 93 % 1017,5 hPa 0,0 mm 0,0 km/h (0 Bft) O-NO 63 ° 0 min 0,000 mm 0,9 UV-I 91 W/m² 16,2 °C 17,3 °C 0,0 km/h (0 Bft)
20.08.2019 13:49 17,3 °C 93 % 1017,5 hPa 0,0 mm 0,0 km/h (0 Bft) O-NO 63 ° 0 min 0,000 mm 0,9 UV-I 91 W/m² 16,2 °C 17,3 °C 0,0 km/h (0 Bft)
20.08.2019 13:50 17,3 °C 93 % 1017,5 hPa 0,0 mm 0,0 km/h (0 Bft) O-NO 63 ° 0 min 0,000 mm 0,9 UV-I 95 W/m² 16,2 °C 17,3 °C 0,0 km/h (0 Bft)
20.08.2019 13:51 17,3 °C 93 % 1017,5 hPa 0,0 mm 0,0 km/h (0 Bft) O-NO 63 ° 0 min 0,000 mm 1,0 UV-I 107 W/m² 16,2 °C 17,3 °C 0,0 km/h (0 Bft)
20.08.2019 13:52 17,3 °C 93 % 1017,5 hPa 0,0 mm 0,0 km/h (0 Bft) O-NO 63 ° 0 min 0,000 mm 1,1 UV-I 111 W/m² 16,2 °C 17,3 °C 0,0 km/h (0 Bft)
20.08.2019 13:53 17,3 °C 93 % 1017,4 hPa 0,0 mm 0,0 km/h (0 Bft) O-NO 63 ° 0 min 0,000 mm 1,1 UV-I 111 W/m² 16,2 °C 17,3 °C 0,0 km/h (0 Bft)
20.08.2019 13:54 17,3 °C 93 % 1017,3 hPa 0,0 mm 0,0 km/h (0 Bft) O-NO 63 ° 0 min 0,000 mm 1,1 UV-I 114 W/m² 16,2 °C 17,3 °C 0,0 km/h (0 Bft)
20.08.2019 13:55 17,2 °C 94 % 1017,3 hPa 0,2 mm 0,0 km/h (0 Bft) O-NO 63 ° 0 min 0,000 mm 1,1 UV-I 120 W/m² 16,2 °C 17,2 °C 0,0 km/h (0 Bft)
20.08.2019 13:56 17,2 °C 94 % 1017,2 hPa 0,0 mm 0,0 km/h (0 Bft) O-NO 63 ° 0 min 0,000 mm 1,2 UV-I 127 W/m² 16,2 °C 17,2 °C 0,0 km/h (0 Bft)
20.08.2019 13:57 17,2 °C 94 % 1017,2 hPa 0,0 mm 0,0 km/h (0 Bft) O-NO 63 ° 0 min 0,000 mm 1,3 UV-I 158 W/m² 16,2 °C 17,2 °C 0,0 km/h (0 Bft)
20.08.2019 13:58 17,2 °C 94 % 1017,1 hPa 0,0 mm 0,0 km/h (0 Bft) O-NO 63 ° 0 min 0,000 mm 1,5 UV-I 192 W/m² 16,2 °C 17,2 °C 0,0 km/h (0 Bft)
20.08.2019 13:59 17,2 °C 94 % 1017,0 hPa 0,0 mm 0,0 km/h (0 Bft) O-NO 63 ° 0 min 0,000 mm 2,2 UV-I 236 W/m² 16,2 °C 17,2 °C 0,0 km/h (0 Bft)
20.08.2019 14:00 17,3 °C 94 % 1017,0 hPa 0,0 mm 0,2 km/h (0 Bft) O-NO 63 ° 0 min 0,076 mm 2,8 UV-I 287 W/m² 16,3 °C 17,3 °C 3,2 km/h (1 Bft)
20.08.2019 14:01 17,3 °C 94 % 1017,0 hPa 0,0 mm 4,3 km/h (1 Bft) O-NO 63 ° 0 min 0,000 mm 3,1 UV-I 332 W/m² 16,3 °C 17,3 °C 6,4 km/h (2 Bft)
20.08.2019 14:02 17,3 °C 94 % 1017,0 hPa 0,0 mm 4,2 km/h (1 Bft) O-NO 63 ° 0 min 0,000 mm 3,1 UV-I 336 W/m² 16,3 °C 17,3 °C 6,4 km/h (2 Bft)
20.08.2019 14:03 17,3 °C 94 % 1017,0 hPa 0,0 mm 1,5 km/h (1 Bft) O-NO 63 ° 0 min 0,000 mm 3,0 UV-I 302 W/m² 16,3 °C 17,3 °C 3,2 km/h (1 Bft)
20.08.2019 14:04 17,4 °C 94 % 1017,1 hPa 0,0 mm 2,1 km/h (1 Bft) O-NO 63 ° 0 min 0,000 mm 2,9 UV-I 301 W/m² 16,4 °C 17,4 °C 4,8 km/h (1 Bft)
20.08.2019 14:05 17,4 °C 94 % 1017,1 hPa 0,0 mm 0,0 km/h (0 Bft) O-NO 63 ° 0 min 0,000 mm 2,9 UV-I 308 W/m² 16,4 °C 17,4 °C 0,0 km/h (0 Bft)
20.08.2019 14:06 17,3 °C 93 % 1017,2 hPa 0,0 mm 0,0 km/h (0 Bft) O-NO 63 ° 0 min 0,000 mm 3,0 UV-I 323 W/m² 16,2 °C 17,3 °C 0,0 km/h (0 Bft)
20.08.2019 14:07 17,3 °C 93 % 1017,2 hPa 0,0 mm 0,0 km/h (0 Bft) O-NO 63 ° 0 min 0,000 mm 3,2 UV-I 346 W/m² 16,2 °C 17,3 °C 0,0 km/h (0 Bft)
20.08.2019 14:08 17,4 °C 93 % 1017,2 hPa 0,0 mm 0,0 km/h (0 Bft) O-NO 63 ° 0 min 0,000 mm 3,4 UV-I 369 W/m² 16,3 °C 17,4 °C 0,0 km/h (0 Bft)
20.08.2019 14:09 17,6 °C 94 % 1017,2 hPa 0,0 mm 0,0 km/h (0 Bft) O-NO 63 ° 0 min 0,000 mm 3,5 UV-I 373 W/m² 16,6 °C 17,6 °C 0,0 km/h (0 Bft)
20.08.2019 14:10 17,8 °C 93 % 1017,2 hPa 0,0 mm 2,1 km/h (1 Bft) O-NO 63 ° 0 min 0,000 mm 3,6 UV-I 383 W/m² 16,7 °C 17,8 °C 4,8 km/h (1 Bft)
20.08.2019 14:11 17,8 °C 93 % 1017,2 hPa 0,0 mm 3,1 km/h (1 Bft) O-NO 63 ° 0 min 0,000 mm 3,6 UV-I 396 W/m² 16,7 °C 17,8 °C 4,8 km/h (1 Bft)
20.08.2019 14:12 17,7 °C 90 % 1017,2 hPa 0,0 mm 0,9 km/h (0 Bft) O-NO 63 ° 0 min 0,000 mm 3,6 UV-I 388 W/m² 16,0 °C 17,7 °C 3,2 km/h (1 Bft)
20.08.2019 14:13 17,6 °C 89 % 1017,2 hPa 0,0 mm 0,0 km/h (0 Bft) O-NO 63 ° 0 min 0,000 mm 3,4 UV-I 367 W/m² 15,8 °C 17,6 °C 0,0 km/h (0 Bft)
20.08.2019 14:14 17,7 °C 90 % 1017,2 hPa 0,0 mm 0,0 km/h (0 Bft) O-NO 63 ° 0 min 0,000 mm 3,1 UV-I 338 W/m² 16,0 °C 17,7 °C 0,0 km/h (0 Bft)
20.08.2019 14:15 17,8 °C 91 % 1017,2 hPa 0,0 mm 0,0 km/h (0 Bft) O-NO 63 ° 0 min 0,000 mm 2,9 UV-I 287 W/m² 16,3 °C 17,8 °C 0,0 km/h (0 Bft)
20.08.2019 14:16 17,9 °C 90 % 1017,3 hPa 0,0 mm 0,0 km/h (0 Bft) O-NO 63 ° 0 min 0,000 mm 2,6 UV-I 272 W/m² 16,2 °C 17,9 °C 0,0 km/h (0 Bft)
20.08.2019 14:17 17,9 °C 91 % 1017,2 hPa 0,0 mm 0,1 km/h (0 Bft) O-NO 63 ° 0 min 0,000 mm 2,5 UV-I 260 W/m² 16,4 °C 17,9 °C 1,6 km/h (1 Bft)
20.08.2019 14:18 18,1 °C 91 % 1017,3 hPa 0,0 mm 0,0 km/h (0 Bft) O-NO 63 ° 0 min 0,000 mm 2,3 UV-I 244 W/m² 16,6 °C 18,1 °C 0,0 km/h (0 Bft)
20.08.2019 14:19 18,1 °C 89 % 1017,3 hPa 0,0 mm 0,0 km/h (0 Bft) O-NO 63 ° 0 min 0,000 mm 2,2 UV-I 227 W/m² 16,3 °C 18,1 °C 0,0 km/h (0 Bft)
20.08.2019 14:20 17,9 °C 88 % 1017,3 hPa 0,2 mm 0,0 km/h (0 Bft) O-NO 63 ° 0 min 0,000 mm 2,1 UV-I 206 W/m² 15,9 °C 17,9 °C 0,0 km/h (0 Bft)
20.08.2019 14:21 17,9 °C 89 % 1017,3 hPa 0,0 mm 0,0 km/h (0 Bft) O-NO 63 ° 0 min 0,000 mm 2,0 UV-I 200 W/m² 16,1 °C 17,9 °C 0,0 km/h (0 Bft)
20.08.2019 14:22 17,8 °C 90 % 1017,3 hPa 0,0 mm 0,0 km/h (0 Bft) O-NO 63 ° 0 min 0,000 mm 2,0 UV-I 197 W/m² 16,1 °C 17,8 °C 0,0 km/h (0 Bft)
20.08.2019 14:23 17,7 °C 89 % 1017,3 hPa 0,0 mm 0,0 km/h (0 Bft) O-NO 63 ° 0 min 0,000 mm 2,0 UV-I 197 W/m² 15,9 °C 17,7 °C 0,0 km/h (0 Bft)
20.08.2019 14:24 17,7 °C 89 % 1017,3 hPa 0,0 mm 0,0 km/h (0 Bft) O-NO 63 ° 0 min 0,000 mm 2,0 UV-I 200 W/m² 15,9 °C 17,7 °C 0,0 km/h (0 Bft)
20.08.2019 14:25 17,7 °C 90 % 1017,3 hPa 0,0 mm 0,0 km/h (0 Bft) O-NO 63 ° 0 min 0,000 mm 2,0 UV-I 202 W/m² 16,0 °C 17,7 °C 0,0 km/h (0 Bft)
20.08.2019 14:26 17,7 °C 91 % 1017,2 hPa 0,0 mm 0,0 km/h (0 Bft) O-NO 63 ° 0 min 0,000 mm 2,0 UV-I 193 W/m² 16,2 °C 17,7 °C 0,0 km/h (0 Bft)
20.08.2019 14:27 17,7 °C 90 % 1017,2 hPa 0,0 mm 0,0 km/h (0 Bft) O-NO 63 ° 0 min 0,000 mm 1,9 UV-I 190 W/m² 16,0 °C 17,7 °C 0,0 km/h (0 Bft)
20.08.2019 14:28 17,6 °C 90 % 1017,2 hPa 0,0 mm 0,0 km/h (0 Bft) O-NO 63 ° 0 min 0,000 mm 1,9 UV-I 195 W/m² 15,9 °C 17,6 °C 0,0 km/h (0 Bft)
20.08.2019 14:29 17,5 °C 90 % 1017,2 hPa 0,0 mm 0,0 km/h (0 Bft) O-NO 63 ° 0 min 0,000 mm 2,1 UV-I 214 W/m² 15,8 °C 17,5 °C 0,0 km/h (0 Bft)
20.08.2019 14:30 17,4 °C 91 % 1017,2 hPa 0,0 mm 0,0 km/h (0 Bft) O-NO 63 ° 0 min 0,000 mm 2,4 UV-I 246 W/m² 15,9 °C 17,4 °C 0,0 km/h (0 Bft)
20.08.2019 14:31 17,4 °C 91 % 1017,1 hPa 0,0 mm 0,0 km/h (0 Bft) O-NO 63 ° 0 min 0,000 mm 2,8 UV-I 283 W/m² 15,9 °C 17,4 °C 0,0 km/h (0 Bft)
20.08.2019 14:32 17,4 °C 92 % 1017,1 hPa 0,0 mm 0,0 km/h (0 Bft) O-NO 63 ° 0 min 0,000 mm 3,0 UV-I 301 W/m² 16,1 °C 17,4 °C 0,0 km/h (0 Bft)
20.08.2019 14:33 17,3 °C 92 % 1017,1 hPa 0,0 mm 0,0 km/h (0 Bft) O-NO 63 ° 0 min 0,000 mm 2,7 UV-I 272 W/m² 16,0 °C 17,3 °C 0,0 km/h (0 Bft)
20.08.2019 14:34 17,3 °C 92 % 1017,2 hPa 0,0 mm 0,0 km/h (0 Bft) O-NO 63 ° 0 min 0,000 mm 2,4 UV-I 248 W/m² 16,0 °C 17,3 °C 0,0 km/h (0 Bft)
20.08.2019 14:35 17,2 °C 92 % 1017,2 hPa 0,0 mm 0,0 km/h (0 Bft) O-NO 63 ° 0 min 0,000 mm 2,2 UV-I 227 W/m² 15,9 °C 17,2 °C 0,0 km/h (0 Bft)
20.08.2019 14:36 17,2 °C 92 % 1017,2 hPa 0,0 mm 0,0 km/h (0 Bft) O-NO 63 ° 0 min 0,000 mm 2,1 UV-I 213 W/m² 15,9 °C 17,2 °C 0,0 km/h (0 Bft)
20.08.2019 14:37 17,2 °C 92 % 1017,2 hPa 0,0 mm 0,0 km/h (0 Bft) O-NO 63 ° 0 min 0,000 mm 2,1 UV-I 207 W/m² 15,9 °C 17,2 °C 0,0 km/h (0 Bft)
20.08.2019 14:38 17,1 °C 92 % 1017,2 hPa 0,0 mm 0,0 km/h (0 Bft) O-NO 63 ° 0 min 0,000 mm 1,9 UV-I 204 W/m² 15,8 °C 17,1 °C 0,0 km/h (0 Bft)
20.08.2019 14:39 17,1 °C 91 % 1017,2 hPa 0,0 mm 0,0 km/h (0 Bft) O-NO 63 ° 0 min 0,000 mm 1,9 UV-I 207 W/m² 15,6 °C 17,1 °C 0,0 km/h (0 Bft)
20.08.2019 14:40 17,1 °C 92 % 1017,2 hPa 0,0 mm 0,0 km/h (0 Bft) O-NO 63 ° 0 min 0,000 mm 1,9 UV-I 204 W/m² 15,8 °C 17,1 °C 0,0 km/h (0 Bft)
20.08.2019 14:41 17,1 °C 92 % 1017,2 hPa 0,0 mm 0,0 km/h (0 Bft) O-NO 63 ° 0 min 0,000 mm 1,8 UV-I 195 W/m² 15,8 °C 17,1 °C 0,0 km/h (0 Bft)
20.08.2019 14:42 17,1 °C 93 % 1017,2 hPa 0,0 mm 0,0 km/h (0 Bft) O-NO 63 ° 0 min 0,000 mm 1,7 UV-I 186 W/m² 16,0 °C 17,1 °C 0,0 km/h (0 Bft)
20.08.2019 14:43 17,0 °C 93 % 1017,2 hPa 0,0 mm 0,0 km/h (0 Bft) O-NO 63 ° 0 min 0,000 mm 1,7 UV-I 186 W/m² 15,9 °C 17,0 °C 0,0 km/h (0 Bft)
20.08.2019 14:44 16,9 °C 93 % 1017,1 hPa 0,0 mm 0,0 km/h (0 Bft) O-NO 63 ° 0 min 0,000 mm 1,7 UV-I 192 W/m² 15,8 °C 16,9 °C 0,0 km/h (0 Bft)
20.08.2019 14:45 16,8 °C 93 % 1017,1 hPa 0,0 mm 0,0 km/h (0 Bft) O-NO 63 ° 0 min 0,000 mm 1,7 UV-I 186 W/m² 15,7 °C 16,8 °C 0,0 km/h (0 Bft)
20.08.2019 14:46 16,8 °C 93 % 1017,1 hPa 0,0 mm 1,0 km/h (0 Bft) O-NO 63 ° 0 min 0,000 mm 1,6 UV-I 183 W/m² 15,7 °C 16,8 °C 3,2 km/h (1 Bft)
20.08.2019 14:47 16,7 °C 92 % 1017,2 hPa 0,0 mm 1,5 km/h (1 Bft) O-NO 63 ° 0 min 0,000 mm 1,6 UV-I 181 W/m² 15,4 °C 16,7 °C 1,6 km/h (1 Bft)
20.08.2019 14:48 16,7 °C 92 % 1017,2 hPa 0,0 mm 1,9 km/h (1 Bft) O-NO 63 ° 0 min 0,000 mm 1,6 UV-I 174 W/m² 15,4 °C 16,7 °C 3,2 km/h (1 Bft)
20.08.2019 14:49 16,6 °C 92 % 1017,2 hPa 0,0 mm 1,1 km/h (1 Bft) O-NO 63 ° 0 min 0,000 mm 1,5 UV-I 162 W/m² 15,3 °C 16,6 °C 3,2 km/h (1 Bft)
20.08.2019 14:50 16,6 °C 92 % 1017,1 hPa 0,0 mm 1,3 km/h (1 Bft) O-NO 63 ° 0 min 0,000 mm 1,3 UV-I 134 W/m² 15,3 °C 16,6 °C 3,2 km/h (1 Bft)
20.08.2019 14:51 16,5 °C 92 % 1017,2 hPa 0,0 mm 0,1 km/h (0 Bft) O-NO 63 ° 0 min 0,000 mm 1,2 UV-I 128 W/m² 15,2 °C 16,5 °C 1,6 km/h (1 Bft)
20.08.2019 14:52 16,4 °C 92 % 1017,1 hPa 0,0 mm 0,0 km/h (0 Bft) O-NO 63 ° 0 min 0,000 mm 1,2 UV-I 130 W/m² 15,1 °C 16,4 °C 0,0 km/h (0 Bft)
20.08.2019 14:53 16,4 °C 92 % 1017,1 hPa 0,0 mm 0,0 km/h (0 Bft) O-NO 63 ° 0 min 0,000 mm 1,3 UV-I 137 W/m² 15,1 °C 16,4 °C 0,0 km/h (0 Bft)
20.08.2019 14:54 16,3 °C 92 % 1017,1 hPa 0,0 mm 0,0 km/h (0 Bft) O-NO 63 ° 0 min 0,000 mm 1,3 UV-I 142 W/m² 15,0 °C 16,3 °C 0,0 km/h (0 Bft)
20.08.2019 14:55 16,3 °C 92 % 1017,1 hPa 0,0 mm 0,0 km/h (0 Bft) O-NO 63 ° 0 min 0,000 mm 1,3 UV-I 142 W/m² 15,0 °C 16,3 °C 0,0 km/h (0 Bft)
20.08.2019 14:56 16,3 °C 92 % 1017,1 hPa 0,0 mm 0,0 km/h (0 Bft) O-NO 63 ° 0 min 0,000 mm 1,2 UV-I 134 W/m² 15,0 °C 16,3 °C 0,0 km/h (0 Bft)
20.08.2019 14:57 16,2 °C 93 % 1017,1 hPa 0,0 mm 0,0 km/h (0 Bft) O-NO 63 ° 0 min 0,000 mm 1,3 UV-I 141 W/m² 15,1 °C 16,2 °C 0,0 km/h (0 Bft)
20.08.2019 14:58 16,2 °C 93 % 1017,0 hPa 0,0 mm 0,0 km/h (0 Bft) O-NO 63 ° 0 min 0,000 mm 1,4 UV-I 160 W/m² 15,1 °C 16,2 °C 0,0 km/h (0 Bft)
20.08.2019 14:59 16,1 °C 92 % 1017,0 hPa 0,0 mm 0,0 km/h (0 Bft) O-NO 63 ° 0 min 0,000 mm 1,6 UV-I 181 W/m² 14,8 °C 16,1 °C 0,0 km/h (0 Bft)
20.08.2019 15:00 16,1 °C 92 % 1017,0 hPa 0,0 mm 0,0 km/h (0 Bft) O-NO 63 ° 0 min 0,127 mm 1,7 UV-I 188 W/m² 14,8 °C 16,1 °C 0,0 km/h (0 Bft)
20.08.2019 15:01 16,0 °C 92 % 1017,0 hPa 0,0 mm 0,0 km/h (0 Bft) O-NO 63 ° 0 min 0,000 mm 1,6 UV-I 174 W/m² 14,7 °C 16,0 °C 0,0 km/h (0 Bft)
20.08.2019 15:02 16,0 °C 92 % 1017,0 hPa 0,0 mm 0,6 km/h (0 Bft) O-NO 63 ° 0 min 0,000 mm 1,5 UV-I 169 W/m² 14,7 °C 16,0 °C 1,6 km/h (1 Bft)
20.08.2019 15:03 16,1 °C 92 % 1017,0 hPa 0,0 mm 0,0 km/h (0 Bft) O-NO 63 ° 0 min 0,000 mm 1,5 UV-I 167 W/m² 14,8 °C 16,1 °C 0,0 km/h (0 Bft)
20.08.2019 15:04 16,1 °C 92 % 1017,0 hPa 0,0 mm 0,0 km/h (0 Bft) O-NO 63 ° 0 min 0,000 mm 1,5 UV-I 171 W/m² 14,8 °C 16,1 °C 0,0 km/h (0 Bft)
20.08.2019 15:05 16,1 °C 93 % 1017,0 hPa 0,0 mm 0,0 km/h (0 Bft) O-NO 63 ° 0 min 0,000 mm 1,6 UV-I 179 W/m² 15,0 °C 16,1 °C 0,0 km/h (0 Bft)
20.08.2019 15:06 16,3 °C 93 % 1016,9 hPa 0,0 mm 0,0 km/h (0 Bft) O-NO 63 ° 0 min 0,000 mm 1,6 UV-I 185 W/m² 15,2 °C 16,3 °C 0,0 km/h (0 Bft)
20.08.2019 15:07 16,3 °C 94 % 1016,9 hPa 0,0 mm 0,0 km/h (0 Bft) O-NO 63 ° 0 min 0,000 mm 1,6 UV-I 169 W/m² 15,3 °C 16,3 °C 0,0 km/h (0 Bft)
20.08.2019 15:08 16,4 °C 93 % 1016,9 hPa 0,0 mm 0,0 km/h (0 Bft) O-NO 63 ° 0 min 0,000 mm 1,4 UV-I 160 W/m² 15,3 °C 16,4 °C 0,0 km/h (0 Bft)
20.08.2019 15:09 16,4 °C 93 % 1016,9 hPa 0,0 mm 0,0 km/h (0 Bft) O-NO 63 ° 0 min 0,000 mm 1,4 UV-I 155 W/m² 15,3 °C 16,4 °C 0,0 km/h (0 Bft)
20.08.2019 15:10 16,7 °C 93 % 1016,9 hPa 0,0 mm 0,0 km/h (0 Bft) O-NO 63 ° 0 min 0,000 mm 1,3 UV-I 148 W/m² 15,6 °C 16,7 °C 0,0 km/h (0 Bft)
20.08.2019 15:11 16,7 °C 94 % 1016,9 hPa 0,0 mm 0,0 km/h (0 Bft) O-NO 63 ° 0 min 0,000 mm 1,2 UV-I 148 W/m² 15,7 °C 16,7 °C 0,0 km/h (0 Bft)
20.08.2019 15:12 16,8 °C 93 % 1016,9 hPa 0,0 mm 0,0 km/h (0 Bft) O-NO 63 ° 0 min 0,000 mm 1,1 UV-I 125 W/m² 15,7 °C 16,8 °C 0,0 km/h (0 Bft)
20.08.2019 15:13 16,8 °C 93 % 1016,9 hPa 0,0 mm 0,0 km/h (0 Bft) O-NO 63 ° 0 min 0,000 mm 1,0 UV-I 95 W/m² 15,7 °C 16,8 °C 0,0 km/h (0 Bft)
20.08.2019 15:14 16,9 °C 93 % 1017,0 hPa 0,0 mm 0,0 km/h (0 Bft) O-NO 63 ° 0 min 0,000 mm 0,8 UV-I 84 W/m² 15,8 °C 16,9 °C 0,0 km/h (0 Bft)
20.08.2019 15:15 17,1 °C 93 % 1017,0 hPa 0,0 mm 0,0 km/h (0 Bft) O-NO 63 ° 0 min 0,000 mm 0,7 UV-I 79 W/m² 16,0 °C 17,1 °C 0,0 km/h (0 Bft)
20.08.2019 15:16 17,1 °C 93 % 1017,0 hPa 0,0 mm 0,0 km/h (0 Bft) O-NO 63 ° 0 min 0,000 mm 0,7 UV-I 76 W/m² 16,0 °C 17,1 °C 0,0 km/h (0 Bft)
20.08.2019 15:17 17,1 °C 93 % 1017,0 hPa 0,0 mm 0,0 km/h (0 Bft) O-NO 63 ° 0 min 0,000 mm 0,6 UV-I 70 W/m² 16,0 °C 17,1 °C 0,0 km/h (0 Bft)
20.08.2019 15:18 17,1 °C 93 % 1017,0 hPa 0,0 mm 0,0 km/h (0 Bft) O-NO 63 ° 0 min 0,000 mm 0,6 UV-I 63 W/m² 16,0 °C 17,1 °C 0,0 km/h (0 Bft)
20.08.2019 15:19 17,0 °C 93 % 1017,0 hPa 0,0 mm 0,0 km/h (0 Bft) O-NO 63 ° 0 min 0,000 mm 0,5 UV-I 53 W/m² 15,9 °C 17,0 °C 0,0 km/h (0 Bft)
20.08.2019 15:20 17,0 °C 93 % 1017,1 hPa 0,0 mm 0,0 km/h (0 Bft) O-NO 63 ° 0 min 0,000 mm 0,0 UV-I 47 W/m² 15,9 °C 17,0 °C 0,0 km/h (0 Bft)
20.08.2019 15:21 17,0 °C 93 % 1017,1 hPa 0,0 mm 0,0 km/h (0 Bft) O-NO 63 ° 0 min 0,000 mm 0,0 UV-I 42 W/m² 15,9 °C 17,0 °C 0,0 km/h (0 Bft)
20.08.2019 15:22 16,9 °C 93 % 1017,1 hPa 0,0 mm 0,0 km/h (0 Bft) O-NO 63 ° 0 min 0,000 mm 0,0 UV-I 39 W/m² 15,8 °C 16,9 °C 0,0 km/h (0 Bft)
20.08.2019 15:23 16,9 °C 93 % 1017,1 hPa 0,0 mm 0,0 km/h (0 Bft) O-NO 63 ° 0 min 0,000 mm 0,0 UV-I 37 W/m² 15,8 °C 16,9 °C 0,0 km/h (0 Bft)
20.08.2019 15:24 16,9 °C 93 % 1017,1 hPa 0,0 mm 0,0 km/h (0 Bft) O-NO 63 ° 0 min 0,000 mm 0,0 UV-I 35 W/m² 15,8 °C 16,9 °C 0,0 km/h (0 Bft)
20.08.2019 15:25 16,9 °C 93 % 1017,2 hPa 0,0 mm 0,0 km/h (0 Bft) O-NO 63 ° 0 min 0,000 mm 0,0 UV-I 35 W/m² 15,8 °C 16,9 °C 0,0 km/h (0 Bft)
20.08.2019 15:26 16,8 °C 93 % 1017,2 hPa 0,0 mm 0,0 km/h (0 Bft) O-NO 63 ° 0 min 0,000 mm 0,0 UV-I 40 W/m² 15,7 °C 16,8 °C 0,0 km/h (0 Bft)
20.08.2019 15:27 16,8 °C 93 % 1017,2 hPa 0,0 mm 0,0 km/h (0 Bft) O-NO 63 ° 0 min 0,000 mm 0,0 UV-I 44 W/m² 15,7 °C 16,8 °C 0,0 km/h (0 Bft)
20.08.2019 15:28 16,8 °C 93 % 1017,2 hPa 0,0 mm 0,0 km/h (0 Bft) O-NO 63 ° 0 min 0,000 mm 0,0 UV-I 46 W/m² 15,7 °C 16,8 °C 0,0 km/h (0 Bft)
20.08.2019 15:29 16,7 °C 94 % 1017,2 hPa 0,0 mm 0,0 km/h (0 Bft) O-NO 63 ° 0 min 0,000 mm 0,0 UV-I 42 W/m² 15,7 °C 16,7 °C 0,0 km/h (0 Bft)
20.08.2019 15:30 16,7 °C 94 % 1017,3 hPa 0,0 mm 0,0 km/h (0 Bft) O-NO 63 ° 0 min 0,000 mm 0,0 UV-I 39 W/m² 15,7 °C 16,7 °C 0,0 km/h (0 Bft)
20.08.2019 15:31 16,7 °C 94 % 1017,3 hPa 0,0 mm 0,0 km/h (0 Bft) O-NO 63 ° 0 min 0,000 mm 0,0 UV-I 40 W/m² 15,7 °C 16,7 °C 0,0 km/h (0 Bft)
20.08.2019 15:32 16,7 °C 94 % 1017,4 hPa 0,0 mm 0,4 km/h (0 Bft) O-NO 63 ° 0 min 0,000 mm 0,0 UV-I 40 W/m² 15,7 °C 16,7 °C 1,6 km/h (1 Bft)
20.08.2019 15:33 16,7 °C 94 % 1017,5 hPa 0,0 mm 0,6 km/h (0 Bft) O-NO 63 ° 0 min 0,000 mm 0,0 UV-I 39 W/m² 15,7 °C 16,7 °C 1,6 km/h (1 Bft)
20.08.2019 15:34 16,7 °C 94 % 1017,6 hPa 0,0 mm 0,1 km/h (0 Bft) S 180 ° 0 min 0,000 mm 0,0 UV-I 35 W/m² 15,7 °C 16,7 °C 1,6 km/h (1 Bft)
20.08.2019 15:35 16,7 °C 94 % 1017,8 hPa 0,0 mm 0,0 km/h (0 Bft) S 180 ° 0 min 0,000 mm 0,0 UV-I 32 W/m² 15,7 °C 16,7 °C 0,0 km/h (0 Bft)
20.08.2019 15:36 16,7 °C 94 % 1017,8 hPa 0,0 mm 0,0 km/h (0 Bft) S 180 ° 0 min 0,000 mm 0,0 UV-I 35 W/m² 15,7 °C 16,7 °C 0,0 km/h (0 Bft)
20.08.2019 15:37 16,7 °C 94 % 1017,9 hPa 0,0 mm 0,0 km/h (0 Bft) S 180 ° 0 min 0,000 mm 0,0 UV-I 54 W/m² 15,7 °C 16,7 °C 0,0 km/h (0 Bft)
20.08.2019 15:38 16,7 °C 94 % 1017,8 hPa 0,0 mm 0,0 km/h (0 Bft) S 179 ° 0 min 0,000 mm 0,7 UV-I 70 W/m² 15,7 °C 16,7 °C 0,0 km/h (0 Bft)
20.08.2019 15:39 16,7 °C 94 % 1017,6 hPa 0,0 mm 0,0 km/h (0 Bft) S 179 ° 0 min 0,000 mm 0,9 UV-I 88 W/m² 15,7 °C 16,7 °C 0,0 km/h (0 Bft)
20.08.2019 15:40 16,7 °C 94 % 1017,5 hPa 0,0 mm 0,0 km/h (0 Bft) S 179 ° 0 min 0,000 mm 1,0 UV-I 100 W/m² 15,7 °C 16,7 °C 0,0 km/h (0 Bft)
20.08.2019 15:41 16,7 °C 94 % 1017,4 hPa 0,0 mm 0,0 km/h (0 Bft) S 179 ° 0 min 0,000 mm 1,0 UV-I 105 W/m² 15,7 °C 16,7 °C 0,0 km/h (0 Bft)
20.08.2019 15:42 16,7 °C 94 % 1017,4 hPa 0,0 mm 0,0 km/h (0 Bft) S 179 ° 0 min 0,000 mm 1,0 UV-I 97 W/m² 15,7 °C 16,7 °C 0,0 km/h (0 Bft)
20.08.2019 15:43 16,7 °C 94 % 1017,5 hPa 0,0 mm 0,0 km/h (0 Bft) S 179 ° 0 min 0,000 mm 0,8 UV-I 90 W/m² 15,7 °C 16,7 °C 0,0 km/h (0 Bft)
20.08.2019 15:44 16,8 °C 94 % 1017,5 hPa 0,0 mm 0,0 km/h (0 Bft) S 179 ° 0 min 0,000 mm 0,8 UV-I 86 W/m² 15,8 °C 16,8 °C 0,0 km/h (0 Bft)
20.08.2019 15:45 16,8 °C 94 % 1017,5 hPa 0,0 mm 0,0 km/h (0 Bft) S 179 ° 0 min 0,000 mm 0,8 UV-I 86 W/m² 15,8 °C 16,8 °C 0,0 km/h (0 Bft)
20.08.2019 15:46 16,8 °C 94 % 1017,5 hPa 0,0 mm 0,0 km/h (0 Bft) S 179 ° 0 min 0,000 mm 0,8 UV-I 86 W/m² 15,8 °C 16,8 °C 0,0 km/h (0 Bft)
20.08.2019 15:47 16,8 °C 94 % 1017,5 hPa 0,0 mm 0,0 km/h (0 Bft) S 179 ° 0 min 0,000 mm 0,8 UV-I 83 W/m² 15,8 °C 16,8 °C 0,0 km/h (0 Bft)
20.08.2019 15:48 16,8 °C 94 % 1017,5 hPa 0,0 mm 0,0 km/h (0 Bft) S 179 ° 0 min 0,000 mm 0,7 UV-I 70 W/m² 15,8 °C 16,8 °C 0,0 km/h (0 Bft)
20.08.2019 15:49 16,9 °C 94 % 1017,4 hPa 0,0 mm 0,0 km/h (0 Bft) S 179 ° 0 min 0,000 mm 0,6 UV-I 69 W/m² 15,9 °C 16,9 °C 0,0 km/h (0 Bft)
20.08.2019 15:50 16,8 °C 94 % 1017,4 hPa 0,0 mm 0,0 km/h (0 Bft) S 179 ° 0 min 0,000 mm 0,7 UV-I 70 W/m² 15,8 °C 16,8 °C 0,0 km/h (0 Bft)
20.08.2019 15:51 16,8 °C 94 % 1017,3 hPa 0,2 mm 0,0 km/h (0 Bft) S 179 ° 0 min 0,000 mm 0,7 UV-I 76 W/m² 15,8 °C 16,8 °C 0,0 km/h (0 Bft)
20.08.2019 15:52 16,8 °C 94 % 1017,3 hPa 0,0 mm 0,0 km/h (0 Bft) S 179 ° 0 min 0,000 mm 0,7 UV-I 79 W/m² 15,8 °C 16,8 °C 0,0 km/h (0 Bft)
20.08.2019 15:53 16,9 °C 94 % 1017,3 hPa 0,0 mm 0,4 km/h (0 Bft) S 179 ° 0 min 0,000 mm 0,7 UV-I 79 W/m² 15,9 °C 16,9 °C 3,2 km/h (1 Bft)
20.08.2019 15:54 16,9 °C 94 % 1017,2 hPa 0,0 mm 4,3 km/h (1 Bft) N 355 ° 0 min 0,000 mm 0,7 UV-I 79 W/m² 15,9 °C 16,9 °C 6,4 km/h (2 Bft)
20.08.2019 15:55 16,9 °C 94 % 1017,2 hPa 0,0 mm 0,0 km/h (0 Bft) N 355 ° 0 min 0,000 mm 0,7 UV-I 74 W/m² 15,9 °C 16,9 °C 0,0 km/h (0 Bft)
20.08.2019 15:56 16,9 °C 94 % 1017,2 hPa 0,0 mm 0,0 km/h (0 Bft) N 355 ° 0 min 0,000 mm 0,6 UV-I 63 W/m² 15,9 °C 16,9 °C 0,0 km/h (0 Bft)
20.08.2019 15:57 17,0 °C 94 % 1017,2 hPa 0,0 mm 0,0 km/h (0 Bft) N 355 ° 0 min 0,000 mm 0,0 UV-I 53 W/m² 16,0 °C 17,0 °C 0,0 km/h (0 Bft)
20.08.2019 15:58 17,1 °C 94 % 1017,2 hPa 0,0 mm 1,0 km/h (0 Bft) N 355 ° 0 min 0,000 mm 0,0 UV-I 40 W/m² 16,1 °C 17,1 °C 3,2 km/h (1 Bft)
20.08.2019 15:59 17,0 °C 94 % 1017,3 hPa 0,0 mm 0,8 km/h (0 Bft) N 355 ° 0 min 0,000 mm 0,0 UV-I 33 W/m² 16,0 °C 17,0 °C 1,6 km/h (1 Bft)
20.08.2019 16:00 17,0 °C 94 % 1017,3 hPa 0,0 mm 0,0 km/h (0 Bft) N 355 ° 0 min 0,051 mm 0,0 UV-I 28 W/m² 16,0 °C 17,0 °C 0,0 km/h (0 Bft)
20.08.2019 16:01 17,0 °C 94 % 1017,5 hPa 0,0 mm 0,0 km/h (0 Bft) N 355 ° 0 min 0,000 mm 0,0 UV-I 26 W/m² 16,0 °C 17,0 °C 0,0 km/h (0 Bft)
20.08.2019 16:02 16,9 °C 94 % 1017,5 hPa 0,0 mm 2,8 km/h (1 Bft) W-NW 302 ° 0 min 0,000 mm 0,0 UV-I 25 W/m² 15,9 °C 16,9 °C 4,8 km/h (1 Bft)
20.08.2019 16:03 17,0 °C 94 % 1017,6 hPa 0,2 mm 3,8 km/h (1 Bft) W-NW 303 ° 0 min 0,000 mm 0,0 UV-I 23 W/m² 16,0 °C 17,0 °C 4,8 km/h (1 Bft)
20.08.2019 16:04 16,9 °C 94 % 1017,7 hPa 0,0 mm 3,1 km/h (1 Bft) W-NW 291 ° 0 min 0,000 mm 0,0 UV-I 21 W/m² 15,9 °C 16,9 °C 6,4 km/h (2 Bft)
20.08.2019 16:05 17,0 °C 94 % 1017,8 hPa 0,0 mm 3,9 km/h (1 Bft) W-NW 286 ° 0 min 0,000 mm 0,0 UV-I 18 W/m² 16,0 °C 17,0 °C 4,8 km/h (1 Bft)
20.08.2019 16:06 17,0 °C 94 % 1017,9 hPa 0,0 mm 5,1 km/h (1 Bft) W 259 ° 0 min 0,000 mm 0,0 UV-I 14 W/m² 16,0 °C 17,0 °C 9,7 km/h (2 Bft)
20.08.2019 16:07 17,0 °C 94 % 1018,0 hPa 0,0 mm 6,3 km/h (2 Bft) W 259 ° 0 min 0,000 mm 0,0 UV-I 18 W/m² 16,0 °C 17,0 °C 11,3 km/h (2 Bft)
20.08.2019 16:08 16,9 °C 94 % 1018,1 hPa 0,0 mm 5,8 km/h (2 Bft) NW 306 ° 0 min 0,000 mm 0,0 UV-I 30 W/m² 15,9 °C 16,9 °C 9,7 km/h (2 Bft)
20.08.2019 16:09 16,9 °C 94 % 1018,1 hPa 0,0 mm 6,9 km/h (2 Bft) N-NW 329 ° 0 min 0,000 mm 0,0 UV-I 42 W/m² 15,9 °C 16,9 °C 14,5 km/h (3 Bft)
20.08.2019 16:10 16,9 °C 94 % 1018,3 hPa 0,0 mm 4,3 km/h (1 Bft) W-NW 286 ° 0 min 0,000 mm 0,0 UV-I 54 W/m² 15,9 °C 16,9 °C 9,7 km/h (2 Bft)
20.08.2019 16:11 16,9 °C 94 % 1018,2 hPa 0,0 mm 4,6 km/h (1 Bft) W-NW 296 ° 0 min 0,000 mm 0,7 UV-I 67 W/m² 15,9 °C 16,9 °C 6,4 km/h (2 Bft)
20.08.2019 16:12 16,9 °C 94 % 1018,1 hPa 0,0 mm 1,8 km/h (1 Bft) W-NW 296 ° 0 min 0,000 mm 0,8 UV-I 97 W/m² 15,9 °C 16,9 °C 4,8 km/h (1 Bft)
20.08.2019 16:13 16,9 °C 94 % 1018,0 hPa 0,0 mm 8,7 km/h (2 Bft) NW 309 ° 0 min 0,000 mm 1,0 UV-I 109 W/m² 15,9 °C 16,9 °C 14,5 km/h (3 Bft)
20.08.2019 16:14 16,8 °C 94 % 1018,0 hPa 0,0 mm 3,8 km/h (1 Bft) NW 317 ° 0 min 0,000 mm 1,1 UV-I 130 W/m² 15,8 °C 16,8 °C 4,8 km/h (1 Bft)
20.08.2019 16:15 16,8 °C 94 % 1018,0 hPa 0,0 mm 2,6 km/h (1 Bft) NW 313 ° 0 min 0,000 mm 1,3 UV-I 153 W/m² 15,8 °C 16,8 °C 6,4 km/h (2 Bft)
20.08.2019 16:16 16,7 °C 94 % 1018,0 hPa 0,2 mm 7,0 km/h (2 Bft) N-NW 329 ° 0 min 0,000 mm 1,3 UV-I 163 W/m² 15,7 °C 16,7 °C 9,7 km/h (2 Bft)
20.08.2019 16:17 16,7 °C 94 % 1017,9 hPa 0,0 mm 4,8 km/h (1 Bft) N-NW 327 ° 0 min 0,000 mm 1,2 UV-I 149 W/m² 15,7 °C 16,7 °C 6,4 km/h (2 Bft)
20.08.2019 16:18 16,7 °C 94 % 1017,9 hPa 0,0 mm 2,9 km/h (1 Bft) N-NO 14 ° 0 min 0,000 mm 1,0 UV-I 100 W/m² 15,7 °C 16,7 °C 6,4 km/h (2 Bft)
20.08.2019 16:19 16,7 °C 94 % 1017,9 hPa 0,0 mm 11,8 km/h (2 Bft) N 355 ° 0 min 0,000 mm 0,5 UV-I 67 W/m² 15,7 °C 16,7 °C 22,5 km/h (4 Bft)
20.08.2019 16:20 16,5 °C 94 % 1018,0 hPa 0,0 mm 12,3 km/h (3 Bft) N-NW 340 ° 0 min 0,000 mm 0,5 UV-I 58 W/m² 15,5 °C 16,5 °C 19,3 km/h (3 Bft)
20.08.2019 16:21 16,4 °C 93 % 1017,9 hPa 0,0 mm 12,7 km/h (3 Bft) NW 318 ° 0 min 0,000 mm 0,5 UV-I 53 W/m² 15,3 °C 16,4 °C 17,7 km/h (3 Bft)
20.08.2019 16:22 16,1 °C 93 % 1017,9 hPa 0,0 mm 9,8 km/h (2 Bft) N-NW 337 ° 0 min 0,000 mm 0,5 UV-I 56 W/m² 15,0 °C 16,1 °C 14,5 km/h (3 Bft)
20.08.2019 16:23 15,9 °C 93 % 1018,0 hPa 0,0 mm 6,7 km/h (2 Bft) NW 309 ° 0 min 0,000 mm 0,5 UV-I 60 W/m² 14,8 °C 15,9 °C 12,9 km/h (3 Bft)
20.08.2019 16:24 15,8 °C 93 % 1018,0 hPa 0,0 mm 5,8 km/h (2 Bft) N 360 ° 0 min 0,000 mm 0,0 UV-I 51 W/m² 14,7 °C 15,8 °C 14,5 km/h (3 Bft)
20.08.2019 16:25 15,6 °C 93 % 1018,0 hPa 0,2 mm 8,4 km/h (2 Bft) NO 36 ° 0 min 0,000 mm 0,0 UV-I 49 W/m² 14,5 °C 15,6 °C 14,5 km/h (3 Bft)
20.08.2019 16:26 15,6 °C 93 % 1018,0 hPa 0,0 mm 9,1 km/h (2 Bft) N-NW 347 ° 0 min 0,000 mm 0,0 UV-I 51 W/m² 14,5 °C 15,6 °C 16,1 km/h (3 Bft)
20.08.2019 16:27 15,4 °C 93 % 1018,1 hPa 0,0 mm 9,0 km/h (2 Bft) N-NW 344 ° 0 min 0,000 mm 0,0 UV-I 47 W/m² 14,3 °C 15,4 °C 14,5 km/h (3 Bft)
20.08.2019 16:28 15,3 °C 93 % 1018,1 hPa 0,0 mm 3,4 km/h (1 Bft) NW 317 ° 0 min 0,000 mm 0,0 UV-I 42 W/m² 14,2 °C 15,3 °C 6,4 km/h (2 Bft)
20.08.2019 16:29 15,2 °C 93 % 1018,2 hPa 0,0 mm 7,0 km/h (2 Bft) W-NW 295 ° 0 min 0,000 mm 0,0 UV-I 39 W/m² 14,1 °C 15,2 °C 12,9 km/h (3 Bft)
20.08.2019 16:30 15,2 °C 93 % 1018,3 hPa 0,0 mm 7,6 km/h (2 Bft) N-NW 337 ° 0 min 0,000 mm 0,0 UV-I 39 W/m² 14,1 °C 15,2 °C 12,9 km/h (3 Bft)
20.08.2019 16:31 15,1 °C 93 % 1018,3 hPa 0,0 mm 7,1 km/h (2 Bft) W-NW 303 ° 0 min 0,000 mm 0,0 UV-I 40 W/m² 14,0 °C 15,1 °C 12,9 km/h (3 Bft)
20.08.2019 16:32 15,0 °C 93 % 1018,3 hPa 0,0 mm 8,0 km/h (2 Bft) NW 316 ° 0 min 0,000 mm 0,0 UV-I 42 W/m² 13,9 °C 15,0 °C 14,5 km/h (3 Bft)
20.08.2019 16:33 14,9 °C 93 % 1018,4 hPa 0,0 mm 6,5 km/h (2 Bft) N-NW 331 ° 0 min 0,000 mm 0,0 UV-I 42 W/m² 13,8 °C 14,9 °C 11,3 km/h (2 Bft)
20.08.2019 16:34 14,8 °C 93 % 1018,4 hPa 0,0 mm 8,4 km/h (2 Bft) N-NW 327 ° 0 min 0,000 mm 0,0 UV-I 42 W/m² 13,7 °C 14,8 °C 14,5 km/h (3 Bft)
20.08.2019 16:35 14,8 °C 93 % 1018,4 hPa 0,2 mm 8,9 km/h (2 Bft) W-NW 298 ° 0 min 0,000 mm 0,0 UV-I 44 W/m² 13,7 °C 14,8 °C 17,7 km/h (3 Bft)
20.08.2019 16:36 14,7 °C 93 % 1018,4 hPa 0,0 mm 2,1 km/h (1 Bft) NW 306 ° 0 min 0,000 mm 0,0 UV-I 46 W/m² 13,6 °C 14,7 °C 4,8 km/h (1 Bft)
20.08.2019 16:37 14,7 °C 93 % 1018,4 hPa 0,0 mm 6,0 km/h (2 Bft) W 263 ° 0 min 0,000 mm 0,0 UV-I 46 W/m² 13,6 °C 14,7 °C 12,9 km/h (3 Bft)
20.08.2019 16:38 14,7 °C 93 % 1018,5 hPa 0,0 mm 4,9 km/h (1 Bft) N-NW 331 ° 0 min 0,000 mm 0,0 UV-I 44 W/m² 13,6 °C 14,7 °C 9,7 km/h (2 Bft)
20.08.2019 16:39 14,6 °C 93 % 1018,5 hPa 0,0 mm 7,2 km/h (2 Bft) NW 325 ° 0 min 0,000 mm 0,0 UV-I 44 W/m² 13,5 °C 14,6 °C 11,3 km/h (2 Bft)
20.08.2019 16:40 14,6 °C 93 % 1018,5 hPa 0,0 mm 5,8 km/h (2 Bft) NW 317 ° 0 min 0,000 mm 0,0 UV-I 42 W/m² 13,5 °C 14,6 °C 14,5 km/h (3 Bft)
20.08.2019 16:41 14,6 °C 94 % 1018,5 hPa 0,0 mm 3,3 km/h (1 Bft) W-NW 293 ° 0 min 0,000 mm 0,0 UV-I 42 W/m² 13,6 °C 14,6 °C 6,4 km/h (2 Bft)
20.08.2019 16:42 14,7 °C 94 % 1018,5 hPa 0,0 mm 5,0 km/h (1 Bft) W 271 ° 0 min 0,000 mm 0,0 UV-I 37 W/m² 13,7 °C 14,7 °C 9,7 km/h (2 Bft)
20.08.2019 16:43 14,7 °C 94 % 1018,5 hPa 0,0 mm 4,0 km/h (1 Bft) W 277 ° 0 min 0,000 mm 0,0 UV-I 35 W/m² 13,7 °C 14,7 °C 6,4 km/h (2 Bft)
20.08.2019 16:44 14,6 °C 94 % 1018,5 hPa 0,0 mm 12,8 km/h (3 Bft) W-NW 287 ° 0 min 0,000 mm 0,0 UV-I 46 W/m² 13,6 °C 14,6 °C 19,3 km/h (3 Bft)
20.08.2019 16:45 14,6 °C 94 % 1018,5 hPa 0,2 mm 9,7 km/h (2 Bft) W-NW 283 ° 0 min 0,000 mm 0,0 UV-I 40 W/m² 13,6 °C 14,6 °C 14,5 km/h (3 Bft)
20.08.2019 16:46 14,6 °C 94 % 1018,6 hPa 0,0 mm 10,8 km/h (2 Bft) W-NW 300 ° 0 min 0,000 mm 0,0 UV-I 30 W/m² 13,6 °C 14,6 °C 16,1 km/h (3 Bft)
20.08.2019 16:47 14,5 °C 94 % 1018,7 hPa 0,0 mm 7,2 km/h (2 Bft) W 281 ° 0 min 0,000 mm 0,0 UV-I 25 W/m² 13,5 °C 14,5 °C 11,3 km/h (2 Bft)
20.08.2019 16:48 14,5 °C 94 % 1018,7 hPa 0,0 mm 6,2 km/h (2 Bft) W-SW 252 ° 0 min 0,000 mm 0,0 UV-I 23 W/m² 13,5 °C 14,5 °C 9,7 km/h (2 Bft)
20.08.2019 16:49 14,5 °C 94 % 1018,8 hPa 0,0 mm 6,0 km/h (2 Bft) W-SW 254 ° 0 min 0,000 mm 0,0 UV-I 21 W/m² 13,5 °C 14,5 °C 9,7 km/h (2 Bft)
20.08.2019 16:50 14,4 °C 94 % 1018,8 hPa 0,0 mm 6,7 km/h (2 Bft) W-NW 288 ° 0 min 0,000 mm 0,0 UV-I 21 W/m² 13,4 °C 14,4 °C 9,7 km/h (2 Bft)
20.08.2019 16:51 14,4 °C 94 % 1018,7 hPa 0,0 mm 10,2 km/h (2 Bft) W-SW 248 ° 0 min 0,000 mm 0,0 UV-I 19 W/m² 13,4 °C 14,4 °C 12,9 km/h (3 Bft)
20.08.2019 16:52 14,4 °C 94 % 1018,8 hPa 0,0 mm 5,6 km/h (1 Bft) W 264 ° 0 min 0,000 mm 0,0 UV-I 19 W/m² 13,4 °C 14,4 °C 9,7 km/h (2 Bft)
20.08.2019 16:53 14,4 °C 94 % 1018,9 hPa 0,0 mm 6,7 km/h (2 Bft) NW 309 ° 0 min 0,000 mm 0,0 UV-I 14 W/m² 13,4 °C 14,4 °C 11,3 km/h (2 Bft)
20.08.2019 16:54 14,3 °C 94 % 1018,9 hPa 0,0 mm 9,3 km/h (2 Bft) W-SW 252 ° 0 min 0,000 mm 0,0 UV-I 16 W/m² 13,3 °C 14,3 °C 14,5 km/h (3 Bft)
20.08.2019 16:55 14,3 °C 94 % 1019,0 hPa 0,0 mm 11,2 km/h (2 Bft) W-SW 250 ° 0 min 0,000 mm 0,0 UV-I 23 W/m² 13,3 °C 14,3 °C 16,1 km/h (3 Bft)
20.08.2019 16:56 14,3 °C 94 % 1018,9 hPa 0,0 mm 3,8 km/h (1 Bft) W 270 ° 0 min 0,000 mm 0,0 UV-I 33 W/m² 13,3 °C 14,3 °C 9,7 km/h (2 Bft)
20.08.2019 16:57 14,3 °C 94 % 1018,8 hPa 0,0 mm 1,3 km/h (1 Bft) W-NW 290 ° 0 min 0,000 mm 0,0 UV-I 42 W/m² 13,3 °C 14,3 °C 6,4 km/h (2 Bft)
20.08.2019 16:58 14,2 °C 94 % 1018,7 hPa 0,0 mm 6,1 km/h (2 Bft) W 270 ° 0 min 0,000 mm 0,0 UV-I 42 W/m² 13,2 °C 14,2 °C 12,9 km/h (3 Bft)
20.08.2019 16:59 14,2 °C 94 % 1018,8 hPa 0,2 mm 6,1 km/h (2 Bft) NW 306 ° 0 min 0,000 mm 0,0 UV-I 28 W/m² 13,2 °C 14,2 °C 11,3 km/h (2 Bft)
20.08.2019 17:00 14,2 °C 94 % 1018,8 hPa 0,0 mm 6,4 km/h (2 Bft) W 267 ° 0 min 0,026 mm 0,0 UV-I 25 W/m² 13,2 °C 14,2 °C 11,3 km/h (2 Bft)
20.08.2019 17:01 14,2 °C 94 % 1018,9 hPa 0,0 mm 3,4 km/h (1 Bft) W 279 ° 0 min 0,000 mm 0,0 UV-I 23 W/m² 13,2 °C 14,2 °C 4,8 km/h (1 Bft)
20.08.2019 17:02 14,2 °C 94 % 1018,8 hPa 0,0 mm 4,3 km/h (1 Bft) W 262 ° 0 min 0,000 mm 0,0 UV-I 25 W/m² 13,2 °C 14,2 °C 9,7 km/h (2 Bft)
20.08.2019 17:03 14,2 °C 94 % 1018,9 hPa 0,0 mm 9,1 km/h (2 Bft) W 267 ° 0 min 0,000 mm 0,0 UV-I 25 W/m² 13,2 °C 14,2 °C 14,5 km/h (3 Bft)
20.08.2019 17:04 14,2 °C 94 % 1019,0 hPa 0,0 mm 9,1 km/h (2 Bft) W-SW 254 ° 0 min 0,000 mm 0,0 UV-I 26 W/m² 13,2 °C 14,2 °C 14,5 km/h (3 Bft)
20.08.2019 17:05 14,2 °C 94 % 1018,9 hPa 0,0 mm 4,6 km/h (1 Bft) W-NW 288 ° 0 min 0,000 mm 0,0 UV-I 23 W/m² 13,2 °C 14,2 °C 9,7 km/h (2 Bft)
20.08.2019 17:06 14,2 °C 94 % 1019,0 hPa 0,0 mm 8,7 km/h (2 Bft) W 281 ° 0 min 0,000 mm 0,0 UV-I 23 W/m² 13,2 °C 14,2 °C 14,5 km/h (3 Bft)
20.08.2019 17:07 14,2 °C 94 % 1019,0 hPa 0,0 mm 5,2 km/h (1 Bft) NW 306 ° 0 min 0,000 mm 0,0 UV-I 23 W/m² 13,2 °C 14,2 °C 9,7 km/h (2 Bft)
20.08.2019 17:08 14,1 °C 94 % 1019,0 hPa 0,0 mm 7,6 km/h (2 Bft) W 265 ° 0 min 0,000 mm 0,0 UV-I 21 W/m² 13,1 °C 14,1 °C 12,9 km/h (3 Bft)
20.08.2019 17:09 14,1 °C 94 % 1019,0 hPa 0,0 mm 10,9 km/h (2 Bft) W 281 ° 0 min 0,000 mm 0,0 UV-I 21 W/m² 13,1 °C 14,1 °C 16,1 km/h (3 Bft)
20.08.2019 17:10 14,1 °C 94 % 1019,1 hPa 0,0 mm 10,4 km/h (2 Bft) W-NW 286 ° 0 min 0,000 mm 0,0 UV-I 21 W/m² 13,1 °C 14,1 °C 19,3 km/h (3 Bft)
20.08.2019 17:11 14,0 °C 94 % 1019,0 hPa 0,0 mm 12,3 km/h (3 Bft) W 277 ° 0 min 0,000 mm 0,0 UV-I 19 W/m² 13,0 °C 14,0 °C 20,9 km/h (4 Bft)
20.08.2019 17:12 14,0 °C 94 % 1019,0 hPa 0,0 mm 8,1 km/h (2 Bft) W-SW 258 ° 0 min 0,000 mm 0,0 UV-I 18 W/m² 13,0 °C 14,0 °C 12,9 km/h (3 Bft)
20.08.2019 17:13 13,9 °C 94 % 1019,0 hPa 0,2 mm 5,5 km/h (1 Bft) W 273 ° 0 min 0,000 mm 0,0 UV-I 18 W/m² 12,9 °C 13,9 °C 8,0 km/h (2 Bft)
20.08.2019 17:14 13,9 °C 94 % 1019,1 hPa 0,0 mm 4,9 km/h (1 Bft) W 264 ° 0 min 0,000 mm 0,0 UV-I 14 W/m² 12,9 °C 13,9 °C 11,3 km/h (2 Bft)
20.08.2019 17:15 13,9 °C 94 % 1019,1 hPa 0,0 mm 7,2 km/h (2 Bft) W-SW 243 ° 0 min 0,000 mm 0,0 UV-I 12 W/m² 12,9 °C 13,9 °C 11,3 km/h (2 Bft)
20.08.2019 17:16 13,9 °C 94 % 1019,1 hPa 0,0 mm 5,6 km/h (1 Bft) W-SW 255 ° 0 min 0,000 mm 0,0 UV-I 12 W/m² 12,9 °C 13,9 °C 9,7 km/h (2 Bft)
20.08.2019 17:17 13,9 °C 94 % 1019,1 hPa 0,0 mm 7,6 km/h (2 Bft) W 269 ° 0 min 0,000 mm 0,0 UV-I 12 W/m² 12,9 °C 13,9 °C 14,5 km/h (3 Bft)
20.08.2019 17:18 13,8 °C 94 % 1019,2 hPa 0,0 mm 6,5 km/h (2 Bft) S 184 ° 0 min 0,000 mm 0,0 UV-I 12 W/m² 12,9 °C 13,8 °C 14,5 km/h (3 Bft)
20.08.2019 17:19 13,8 °C 94 % 1019,2 hPa 0,0 mm 5,6 km/h (1 Bft) W-SW 249 ° 0 min 0,000 mm 0,0 UV-I 12 W/m² 12,9 °C 13,8 °C 9,7 km/h (2 Bft)
20.08.2019 17:20 13,8 °C 94 % 1019,2 hPa 0,0 mm 3,7 km/h (1 Bft) W 263 ° 0 min 0,000 mm 0,0 UV-I 14 W/m² 12,9 °C 13,8 °C 6,4 km/h (2 Bft)
20.08.2019 17:21 13,8 °C 94 % 1019,2 hPa 0,0 mm 7,5 km/h (2 Bft) W-NW 303 ° 0 min 0,000 mm 0,0 UV-I 14 W/m² 12,9 °C 13,8 °C 16,1 km/h (3 Bft)
20.08.2019 17:22 13,8 °C 94 % 1019,2 hPa 0,0 mm 7,7 km/h (2 Bft) W 271 ° 0 min 0,000 mm 0,0 UV-I 16 W/m² 12,9 °C 13,8 °C 11,3 km/h (2 Bft)
20.08.2019 17:23 13,8 °C 94 % 1019,2 hPa 0,0 mm 7,2 km/h (2 Bft) W-SW 255 ° 0 min 0,000 mm 0,0 UV-I 16 W/m² 12,9 °C 13,8 °C 11,3 km/h (2 Bft)
20.08.2019 17:24 13,8 °C 94 % 1019,2 hPa 0,0 mm 7,0 km/h (2 Bft) NW 304 ° 0 min 0,000 mm 0,0 UV-I 18 W/m² 12,9 °C 13,8 °C 11,3 km/h (2 Bft)
20.08.2019 17:25 13,8 °C 94 % 1019,2 hPa 0,0 mm 5,6 km/h (1 Bft) W-NW 294 ° 0 min 0,000 mm 0,0 UV-I 19 W/m² 12,9 °C 13,8 °C 6,4 km/h (2 Bft)
20.08.2019 17:26 13,8 °C 94 % 1019,2 hPa 0,0 mm 2,9 km/h (1 Bft) W-SW 244 ° 0 min 0,000 mm 0,0 UV-I 19 W/m² 12,9 °C 13,8 °C 6,4 km/h (2 Bft)
20.08.2019 17:27 13,8 °C 94 % 1019,2 hPa 0,0 mm 1,5 km/h (1 Bft) W-SW 237 ° 0 min 0,000 mm 0,0 UV-I 21 W/m² 12,9 °C 13,8 °C 4,8 km/h (1 Bft)
20.08.2019 17:28 13,8 °C 94 % 1019,2 hPa 0,0 mm 1,3 km/h (1 Bft) W-SW 238 ° 0 min 0,000 mm 0,0 UV-I 19 W/m² 12,9 °C 13,8 °C 4,8 km/h (1 Bft)
20.08.2019 17:29 13,7 °C 94 % 1019,2 hPa 0,0 mm 5,6 km/h (1 Bft) W 261 ° 0 min 0,000 mm 0,0 UV-I 19 W/m² 12,8 °C 13,7 °C 9,7 km/h (2 Bft)
20.08.2019 17:30 13,7 °C 94 % 1019,2 hPa 0,2 mm 6,5 km/h (2 Bft) W-SW 257 ° 0 min 0,000 mm 0,0 UV-I 18 W/m² 12,8 °C 13,7 °C 12,9 km/h (3 Bft)
20.08.2019 17:31 13,7 °C 94 % 1019,3 hPa 0,0 mm 5,5 km/h (1 Bft) W 273 ° 0 min 0,000 mm 0,0 UV-I 18 W/m² 12,8 °C 13,7 °C 12,9 km/h (3 Bft)
20.08.2019 17:32 13,7 °C 94 % 1019,3 hPa 0,0 mm 5,6 km/h (1 Bft) W 260 ° 0 min 0,000 mm 0,0 UV-I 16 W/m² 12,8 °C 13,7 °C 9,7 km/h (2 Bft)
20.08.2019 17:33 13,7 °C 94 % 1019,4 hPa 0,0 mm 2,9 km/h (1 Bft) SW 234 ° 0 min 0,000 mm 0,0 UV-I 16 W/m² 12,8 °C 13,7 °C 6,4 km/h (2 Bft)
20.08.2019 17:34 13,7 °C 94 % 1019,5 hPa 0,0 mm 2,3 km/h (1 Bft) SW 227 ° 0 min 0,000 mm 0,0 UV-I 11 W/m² 12,8 °C 13,7 °C 6,4 km/h (2 Bft)
20.08.2019 17:35 13,7 °C 94 % 1019,6 hPa 0,0 mm 3,0 km/h (1 Bft) W-SW 244 ° 0 min 0,000 mm 0,0 UV-I 9 W/m² 12,8 °C 13,7 °C 4,8 km/h (1 Bft)
20.08.2019 17:36 13,7 °C 94 % 1019,7 hPa 0,0 mm 5,1 km/h (1 Bft) W 265 ° 0 min 0,000 mm 0,0 UV-I 9 W/m² 12,8 °C 13,7 °C 9,7 km/h (2 Bft)
20.08.2019 17:37 13,6 °C 94 % 1019,6 hPa 0,0 mm 6,9 km/h (2 Bft) W 272 ° 0 min 0,000 mm 0,0 UV-I 11 W/m² 12,7 °C 13,6 °C 11,3 km/h (2 Bft)
20.08.2019 17:38 13,6 °C 94 % 1019,6 hPa 0,0 mm 1,5 km/h (1 Bft) S-SW 212 ° 0 min 0,000 mm 0,0 UV-I 12 W/m² 12,7 °C 13,6 °C 4,8 km/h (1 Bft)
20.08.2019 17:39 13,6 °C 94 % 1019,6 hPa 0,0 mm 4,5 km/h (1 Bft) SW 225 ° 0 min 0,000 mm 0,0 UV-I 14 W/m² 12,7 °C 13,6 °C 6,4 km/h (2 Bft)
20.08.2019 17:40 13,6 °C 94 % 1019,5 hPa 0,0 mm 2,7 km/h (1 Bft) SW 228 ° 0 min 0,000 mm 0,0 UV-I 18 W/m² 12,7 °C 13,6 °C 4,8 km/h (1 Bft)
20.08.2019 17:41 13,6 °C 94 % 1019,6 hPa 0,0 mm 4,9 km/h (1 Bft) W 273 ° 0 min 0,000 mm 0,0 UV-I 18 W/m² 12,7 °C 13,6 °C 6,4 km/h (2 Bft)
20.08.2019 17:42 13,6 °C 94 % 1019,5 hPa 0,0 mm 4,1 km/h (1 Bft) NW 316 ° 0 min 0,000 mm 0,0 UV-I 14 W/m² 12,7 °C 13,6 °C 6,4 km/h (2 Bft)
20.08.2019 17:43 13,6 °C 94 % 1019,6 hPa 0,0 mm 7,4 km/h (2 Bft) W-NW 292 ° 0 min 0,000 mm 0,0 UV-I 11 W/m² 12,7 °C 13,6 °C 11,3 km/h (2 Bft)
20.08.2019 17:44 13,6 °C 94 % 1019,7 hPa 0,2 mm 6,2 km/h (2 Bft) NW 305 ° 0 min 0,000 mm 0,0 UV-I 9 W/m² 12,7 °C 13,6 °C 11,3 km/h (2 Bft)
20.08.2019 17:45 13,6 °C 94 % 1019,7 hPa 0,0 mm 7,4 km/h (2 Bft) W-NW 295 ° 0 min 0,000 mm 0,0 UV-I 9 W/m² 12,7 °C 13,6 °C 12,9 km/h (3 Bft)
20.08.2019 17:46 13,5 °C 94 % 1019,7 hPa 0,0 mm 7,5 km/h (2 Bft) W-NW 292 ° 0 min 0,000 mm 0,0 UV-I 11 W/m² 12,6 °C 13,5 °C 12,9 km/h (3 Bft)
20.08.2019 17:47 13,5 °C 94 % 1019,8 hPa 0,0 mm 5,5 km/h (1 Bft) SW 215 ° 0 min 0,000 mm 0,0 UV-I 11 W/m² 12,6 °C 13,5 °C 9,7 km/h (2 Bft)
20.08.2019 17:48 13,4 °C 94 % 1019,8 hPa 0,0 mm 1,0 km/h (0 Bft) W-SW 253 ° 0 min 0,000 mm 0,0 UV-I 11 W/m² 12,5 °C 13,4 °C 3,2 km/h (1 Bft)
20.08.2019 17:49 13,4 °C 94 % 1019,9 hPa 0,0 mm 5,4 km/h (1 Bft) W 265 ° 0 min 0,000 mm 0,0 UV-I 9 W/m² 12,5 °C 13,4 °C 9,7 km/h (2 Bft)
20.08.2019 17:50 13,4 °C 94 % 1019,9 hPa 0,0 mm 10,6 km/h (2 Bft) W 272 ° 0 min 0,000 mm 0,0 UV-I 9 W/m² 12,5 °C 13,4 °C 16,1 km/h (3 Bft)
20.08.2019 17:51 13,3 °C 94 % 1019,9 hPa 0,0 mm 9,7 km/h (2 Bft) W 281 ° 0 min 0,000 mm 0,0 UV-I 12 W/m² 12,4 °C 13,3 °C 20,9 km/h (4 Bft)
20.08.2019 17:52 13,3 °C 94 % 1019,8 hPa 0,0 mm 8,4 km/h (2 Bft) W 263 ° 0 min 0,000 mm 0,0 UV-I 19 W/m² 12,4 °C 13,3 °C 12,9 km/h (3 Bft)
20.08.2019 17:53 13,3 °C 94 % 1019,8 hPa 0,0 mm 11,8 km/h (2 Bft) W-SW 258 ° 0 min 0,000 mm 0,0 UV-I 28 W/m² 12,4 °C 13,3 °C 19,3 km/h (3 Bft)
20.08.2019 17:54 13,3 °C 94 % 1019,7 hPa 0,0 mm 4,7 km/h (1 Bft) W 270 ° 0 min 0,000 mm 0,0 UV-I 37 W/m² 12,4 °C 13,3 °C 9,7 km/h (2 Bft)
20.08.2019 17:55 13,2 °C 94 % 1019,7 hPa 0,0 mm 2,1 km/h (1 Bft) S 190 ° 0 min 0,000 mm 0,0 UV-I 37 W/m² 12,3 °C 13,2 °C 4,8 km/h (1 Bft)
20.08.2019 17:56 13,2 °C 94 % 1019,6 hPa 0,0 mm 3,2 km/h (1 Bft) SW 221 ° 0 min 0,000 mm 0,0 UV-I 39 W/m² 12,3 °C 13,2 °C 11,3 km/h (2 Bft)
20.08.2019 17:57 13,1 °C 94 % 1019,7 hPa 0,0 mm 7,1 km/h (2 Bft) W-SW 240 ° 0 min 0,000 mm 0,0 UV-I 14 W/m² 12,2 °C 13,1 °C 9,7 km/h (2 Bft)
20.08.2019 17:58 13,1 °C 94 % 1019,8 hPa 0,0 mm 5,1 km/h (1 Bft) W-SW 242 ° 0 min 0,000 mm 0,0 UV-I 9 W/m² 12,2 °C 13,1 °C 9,7 km/h (2 Bft)
20.08.2019 17:59 13,1 °C 94 % 1019,8 hPa 0,0 mm 11,7 km/h (2 Bft) W 261 ° 0 min 0,000 mm 0,0 UV-I 7 W/m² 12,2 °C 13,1 °C 17,7 km/h (3 Bft)
20.08.2019 18:00 13,1 °C 94 % 1019,9 hPa 0,0 mm 6,8 km/h (2 Bft) W 273 ° 0 min 0,000 mm 0,0 UV-I 5 W/m² 12,2 °C 13,1 °C 12,9 km/h (3 Bft)
20.08.2019 18:01 13,1 °C 94 % 1019,9 hPa 0,2 mm 8,7 km/h (2 Bft) W-SW 252 ° 0 min 0,025 mm 0,0 UV-I 5 W/m² 12,2 °C 13,1 °C 16,1 km/h (3 Bft)
20.08.2019 18:02 13,1 °C 94 % 1020,0 hPa 0,0 mm 11,4 km/h (2 Bft) W-SW 244 ° 0 min 0,000 mm 0,0 UV-I 5 W/m² 12,2 °C 13,1 °C 16,1 km/h (3 Bft)
20.08.2019 18:03 13,1 °C 94 % 1020,0 hPa 0,0 mm 6,6 km/h (2 Bft) W 262 ° 0 min 0,000 mm 0,0 UV-I 5 W/m² 12,2 °C 13,1 °C 11,3 km/h (2 Bft)
20.08.2019 18:04 13,1 °C 94 % 1020,1 hPa 0,0 mm 11,1 km/h (2 Bft) W 267 ° 0 min 0,000 mm 0,0 UV-I 7 W/m² 12,2 °C 13,1 °C 14,5 km/h (3 Bft)
20.08.2019 18:05 13,0 °C 94 % 1020,1 hPa 0,0 mm 6,4 km/h (2 Bft) W 259 ° 0 min 0,000 mm 0,0 UV-I 7 W/m² 12,1 °C 13,0 °C 12,9 km/h (3 Bft)
20.08.2019 18:06 13,0 °C 94 % 1020,2 hPa 0,0 mm 8,6 km/h (2 Bft) W-SW 238 ° 0 min 0,000 mm 0,0 UV-I 7 W/m² 12,1 °C 13,0 °C 14,5 km/h (3 Bft)
20.08.2019 18:07 13,0 °C 94 % 1020,1 hPa 0,0 mm 3,4 km/h (1 Bft) W-SW 252 ° 0 min 0,000 mm 0,0 UV-I 7 W/m² 12,1 °C 13,0 °C 9,7 km/h (2 Bft)
20.08.2019 18:08 12,9 °C 94 % 1020,1 hPa 0,0 mm 4,8 km/h (1 Bft) W-SW 254 ° 0 min 0,000 mm 0,0 UV-I 9 W/m² 12,0 °C 12,9 °C 6,4 km/h (2 Bft)
20.08.2019 18:09 13,0 °C 94 % 1020,1 hPa 0,0 mm 8,1 km/h (2 Bft) W-SW 257 ° 0 min 0,000 mm 0,0 UV-I 14 W/m² 12,1 °C 13,0 °C 16,1 km/h (3 Bft)
20.08.2019 18:10 13,0 °C 94 % 1020,1 hPa 0,0 mm 7,0 km/h (2 Bft) W 263 ° 0 min 0,000 mm 0,0 UV-I 21 W/m² 12,1 °C 13,0 °C 12,9 km/h (3 Bft)
20.08.2019 18:11 13,0 °C 94 % 1020,1 hPa 0,0 mm 0,9 km/h (0 Bft) W-SW 250 ° 0 min 0,000 mm 0,0 UV-I 30 W/m² 12,1 °C 13,0 °C 6,4 km/h (2 Bft)
20.08.2019 18:12 13,0 °C 94 % 1020,1 hPa 0,0 mm 2,7 km/h (1 Bft) W-SW 244 ° 0 min 0,000 mm 0,0 UV-I 35 W/m² 12,1 °C 13,0 °C 6,4 km/h (2 Bft)
20.08.2019 18:13 13,0 °C 94 % 1020,2 hPa 0,0 mm 3,2 km/h (1 Bft) W-SW 247 ° 0 min 0,000 mm 0,0 UV-I 28 W/m² 12,1 °C 13,0 °C 6,4 km/h (2 Bft)
20.08.2019 18:14 13,0 °C 94 % 1020,2 hPa 0,2 mm 5,1 km/h (1 Bft) W-NW 289 ° 0 min 0,000 mm 0,0 UV-I 16 W/m² 12,1 °C 13,0 °C 9,7 km/h (2 Bft)
20.08.2019 18:15 13,0 °C 94 % 1020,3 hPa 0,0 mm 10,0 km/h (2 Bft) W-SW 247 ° 0 min 0,000 mm 0,0 UV-I 7 W/m² 12,1 °C 13,0 °C 14,5 km/h (3 Bft)
20.08.2019 18:16 13,0 °C 94 % 1020,4 hPa 0,0 mm 9,5 km/h (2 Bft) W 269 ° 0 min 0,000 mm 0,0 UV-I 7 W/m² 12,1 °C 13,0 °C 12,9 km/h (3 Bft)
20.08.2019 18:17 12,9 °C 94 % 1020,5 hPa 0,0 mm 6,1 km/h (2 Bft) W 264 ° 0 min 0,000 mm 0,0 UV-I 7 W/m² 12,0 °C 12,9 °C 11,3 km/h (2 Bft)
20.08.2019 18:18 12,9 °C 94 % 1020,6 hPa 0,0 mm 10,3 km/h (2 Bft) W 273 ° 0 min 0,000 mm 0,0 UV-I 7 W/m² 12,0 °C 12,9 °C 14,5 km/h (3 Bft)
20.08.2019 18:19 12,9 °C 94 % 1020,6 hPa 0,0 mm 8,0 km/h (2 Bft) W-SW 255 ° 0 min 0,000 mm 0,0 UV-I 7 W/m² 12,0 °C 12,9 °C 17,7 km/h (3 Bft)
20.08.2019 18:20 12,9 °C 94 % 1020,6 hPa 0,0 mm 6,7 km/h (2 Bft) W 280 ° 0 min 0,000 mm 0,0 UV-I 9 W/m² 12,0 °C 12,9 °C 11,3 km/h (2 Bft)
20.08.2019 18:21 12,9 °C 94 % 1020,6 hPa 0,0 mm 11,3 km/h (2 Bft) W 261 ° 0 min 0,000 mm 0,0 UV-I 9 W/m² 12,0 °C 12,9 °C 16,1 km/h (3 Bft)
20.08.2019 18:22 12,9 °C 94 % 1020,6 hPa 0,0 mm 10,4 km/h (2 Bft) W-NW 287 ° 0 min 0,000 mm 0,0 UV-I 9 W/m² 12,0 °C 12,9 °C 16,1 km/h (3 Bft)
20.08.2019 18:23 12,9 °C 94 % 1020,6 hPa 0,0 mm 9,7 km/h (2 Bft) W-SW 255 ° 0 min 0,000 mm 0,0 UV-I 9 W/m² 12,0 °C 12,9 °C 16,1 km/h (3 Bft)
20.08.2019 18:24 12,9 °C 94 % 1020,6 hPa 0,0 mm 9,7 km/h (2 Bft) SW 225 ° 0 min 0,000 mm 0,0 UV-I 9 W/m² 12,0 °C 12,9 °C 16,1 km/h (3 Bft)
20.08.2019 18:25 12,8 °C 94 % 1020,5 hPa 0,0 mm 6,2 km/h (2 Bft) SW 236 ° 0 min 0,000 mm 0,0 UV-I 7 W/m² 11,9 °C 12,8 °C 12,9 km/h (3 Bft)
20.08.2019 18:26 12,8 °C 94 % 1020,6 hPa 0,0 mm 10,9 km/h (2 Bft) W-SW 245 ° 0 min 0,000 mm 0,0 UV-I 5 W/m² 11,9 °C 12,8 °C 17,7 km/h (3 Bft)
20.08.2019 18:27 12,8 °C 94 % 1020,7 hPa 0,0 mm 6,9 km/h (2 Bft) W 273 ° 0 min 0,000 mm 0,0 UV-I 5 W/m² 11,9 °C 12,8 °C 9,7 km/h (2 Bft)
20.08.2019 18:28 12,8 °C 94 % 1020,8 hPa 0,0 mm 13,6 km/h (3 Bft) W-SW 250 ° 0 min 0,000 mm 0,0 UV-I 5 W/m² 11,9 °C 12,8 °C 25,7 km/h (4 Bft)
20.08.2019 18:29 12,8 °C 94 % 1020,8 hPa 0,2 mm 14,6 km/h (3 Bft) W-SW 245 ° 0 min 0,000 mm 0,0 UV-I 7 W/m² 11,9 °C 12,8 °C 24,1 km/h (4 Bft)
20.08.2019 18:30 12,8 °C 94 % 1020,8 hPa 0,0 mm 13,8 km/h (3 Bft) W 264 ° 0 min 0,000 mm 0,0 UV-I 11 W/m² 11,9 °C 12,8 °C 19,3 km/h (3 Bft)
20.08.2019 18:31 12,8 °C 94 % 1020,8 hPa 0,0 mm 12,9 km/h (3 Bft) W-SW 245 ° 0 min 0,000 mm 0,0 UV-I 16 W/m² 11,9 °C 12,8 °C 22,5 km/h (4 Bft)
20.08.2019 18:32 12,8 °C 94 % 1020,7 hPa 0,0 mm 7,7 km/h (2 Bft) NW 317 ° 0 min 0,000 mm 0,0 UV-I 23 W/m² 11,9 °C 12,8 °C 19,3 km/h (3 Bft)
20.08.2019 18:33 12,8 °C 94 % 1020,6 hPa 0,0 mm 5,5 km/h (1 Bft) W-NW 302 ° 0 min 0,000 mm 0,0 UV-I 28 W/m² 11,9 °C 12,8 °C 8,0 km/h (2 Bft)
20.08.2019 18:34 12,8 °C 94 % 1020,4 hPa 0,0 mm 9,6 km/h (2 Bft) W 263 ° 0 min 0,000 mm 0,0 UV-I 32 W/m² 11,9 °C 12,8 °C 16,1 km/h (3 Bft)
20.08.2019 18:35 12,8 °C 94 % 1020,3 hPa 0,0 mm 4,8 km/h (1 Bft) W-SW 249 ° 0 min 0,000 mm 0,0 UV-I 37 W/m² 11,9 °C 12,8 °C 14,5 km/h (3 Bft)
20.08.2019 18:36 12,8 °C 94 % 1020,3 hPa 0,0 mm 1,9 km/h (1 Bft) W-NW 295 ° 0 min 0,000 mm 0,0 UV-I 42 W/m² 11,9 °C 12,8 °C 8,0 km/h (2 Bft)
20.08.2019 18:37 12,8 °C 94 % 1020,3 hPa 0,0 mm 8,9 km/h (2 Bft) W 281 ° 0 min 0,000 mm 0,0 UV-I 44 W/m² 11,9 °C 12,8 °C 12,9 km/h (3 Bft)
20.08.2019 18:38 12,8 °C 94 % 1020,5 hPa 0,0 mm 8,0 km/h (2 Bft) W 265 ° 0 min 0,000 mm 0,0 UV-I 46 W/m² 11,9 °C 12,8 °C 14,5 km/h (3 Bft)
20.08.2019 18:39 12,8 °C 94 % 1020,5 hPa 0,0 mm 8,8 km/h (2 Bft) W 265 ° 0 min 0,000 mm 0,0 UV-I 37 W/m² 11,9 °C 12,8 °C 11,3 km/h (2 Bft)
20.08.2019 18:40 12,8 °C 94 % 1020,6 hPa 0,2 mm 5,9 km/h (2 Bft) W-SW 241 ° 0 min 0,000 mm 0,0 UV-I 26 W/m² 11,9 °C 12,8 °C 11,3 km/h (2 Bft)
20.08.2019 18:41 12,8 °C 94 % 1020,9 hPa 0,0 mm 10,1 km/h (2 Bft) W-SW 240 ° 0 min 0,000 mm 0,0 UV-I 16 W/m² 11,9 °C 12,8 °C 17,7 km/h (3 Bft)
20.08.2019 18:42 12,8 °C 94 % 1020,9 hPa 0,0 mm 2,4 km/h (1 Bft) S-SW 211 ° 0 min 0,000 mm 0,0 UV-I 12 W/m² 11,9 °C 12,8 °C 6,4 km/h (2 Bft)
20.08.2019 18:43 12,8 °C 94 % 1021,0 hPa 0,0 mm 0,7 km/h (0 Bft) SW 214 ° 0 min 0,000 mm 0,0 UV-I 12 W/m² 11,9 °C 12,8 °C 3,2 km/h (1 Bft)
20.08.2019 18:44 12,8 °C 94 % 1021,0 hPa 0,0 mm 2,6 km/h (1 Bft) W-SW 239 ° 0 min 0,000 mm 0,0 UV-I 12 W/m² 11,9 °C 12,8 °C 9,7 km/h (2 Bft)
20.08.2019 18:45 12,8 °C 94 % 1021,0 hPa 0,0 mm 10,0 km/h (2 Bft) W 266 ° 0 min 0,000 mm 0,0 UV-I 11 W/m² 11,9 °C 12,8 °C 16,1 km/h (3 Bft)
20.08.2019 18:46 12,8 °C 94 % 1021,0 hPa 0,0 mm 5,6 km/h (1 Bft) W 263 ° 0 min 0,000 mm 0,0 UV-I 12 W/m² 11,9 °C 12,8 °C 9,7 km/h (2 Bft)
20.08.2019 18:47 12,8 °C 94 % 1021,0 hPa 0,0 mm 4,1 km/h (1 Bft) W-SW 238 ° 0 min 0,000 mm 0,0 UV-I 12 W/m² 11,9 °C 12,8 °C 6,4 km/h (2 Bft)
20.08.2019 18:48 12,8 °C 94 % 1021,0 hPa 0,0 mm 8,2 km/h (2 Bft) W 269 ° 0 min 0,000 mm 0,0 UV-I 12 W/m² 11,9 °C 12,8 °C 16,1 km/h (3 Bft)
20.08.2019 18:49 12,8 °C 94 % 1021,1 hPa 0,0 mm 12,4 km/h (3 Bft) W-SW 252 ° 0 min 0,000 mm 0,0 UV-I 12 W/m² 11,9 °C 12,8 °C 16,1 km/h (3 Bft)
20.08.2019 18:50 12,8 °C 94 % 1021,1 hPa 0,0 mm 6,3 km/h (2 Bft) W 266 ° 0 min 0,000 mm 0,0 UV-I 11 W/m² 11,9 °C 12,8 °C 11,3 km/h (2 Bft)
20.08.2019 18:51 12,8 °C 94 % 1021,2 hPa 0,2 mm 4,4 km/h (1 Bft) W-SW 249 ° 0 min 0,000 mm 0,0 UV-I 11 W/m² 11,9 °C 12,8 °C 6,4 km/h (2 Bft)
20.08.2019 18:52 12,8 °C 94 % 1021,2 hPa 0,0 mm 5,7 km/h (1 Bft) W 271 ° 0 min 0,000 mm 0,0 UV-I 11 W/m² 11,9 °C 12,8 °C 9,7 km/h (2 Bft)
20.08.2019 18:53 12,8 °C 94 % 1021,2 hPa 0,0 mm 4,2 km/h (1 Bft) W 266 ° 0 min 0,000 mm 0,0 UV-I 11 W/m² 11,9 °C 12,8 °C 9,7 km/h (2 Bft)
20.08.2019 18:54 12,8 °C 94 % 1021,1 hPa 0,0 mm 6,1 km/h (2 Bft) W-SW 252 ° 0 min 0,000 mm 0,0 UV-I 12 W/m² 11,9 °C 12,8 °C 14,5 km/h (3 Bft)
20.08.2019 18:55 12,8 °C 94 % 1021,0 hPa 0,0 mm 9,2 km/h (2 Bft) W-NW 286 ° 0 min 0,000 mm 0,0 UV-I 12 W/m² 11,9 °C 12,8 °C 14,5 km/h (3 Bft)
20.08.2019 18:56 12,8 °C 94 % 1020,9 hPa 0,0 mm 6,1 km/h (2 Bft) W 269 ° 0 min 0,000 mm 0,0 UV-I 11 W/m² 11,9 °C 12,8 °C 14,5 km/h (3 Bft)
20.08.2019 18:57 12,8 °C 94 % 1021,0 hPa 0,0 mm 5,0 km/h (1 Bft) W 279 ° 0 min 0,000 mm 0,0 UV-I 11 W/m² 11,9 °C 12,8 °C 9,7 km/h (2 Bft)
20.08.2019 18:58 12,8 °C 94 % 1021,1 hPa 0,0 mm 5,4 km/h (1 Bft) W-NW 290 ° 0 min 0,000 mm 0,0 UV-I 9 W/m² 11,9 °C 12,8 °C 6,4 km/h (2 Bft)
20.08.2019 18:59 12,8 °C 94 % 1021,1 hPa 0,0 mm 4,3 km/h (1 Bft) W-NW 292 ° 0 min 0,000 mm 0,0 UV-I 9 W/m² 11,9 °C 12,8 °C 6,4 km/h (2 Bft)
20.08.2019 19:00 12,8 °C 94 % 1021,2 hPa 0,0 mm 3,3 km/h (1 Bft) W-NW 297 ° 0 min 0,000 mm 0,0 UV-I 7 W/m² 11,9 °C 12,8 °C 4,8 km/h (1 Bft)
20.08.2019 19:01 12,8 °C 95 % 1021,3 hPa 0,0 mm 10,7 km/h (2 Bft) W 274 ° 0 min 0,025 mm 0,0 UV-I 5 W/m² 12,0 °C 12,8 °C 17,7 km/h (3 Bft)
20.08.2019 19:02 12,8 °C 94 % 1021,4 hPa 0,0 mm 6,8 km/h (2 Bft) W 263 ° 0 min 0,000 mm 0,0 UV-I 5 W/m² 11,9 °C 12,8 °C 9,7 km/h (2 Bft)
20.08.2019 19:03 12,8 °C 94 % 1021,4 hPa 0,2 mm 9,7 km/h (2 Bft) W-SW 244 ° 0 min 0,000 mm 0,0 UV-I 0 W/m² 11,9 °C 12,8 °C 16,1 km/h (3 Bft)
20.08.2019 19:04 12,8 °C 95 % 1021,5 hPa 0,0 mm 7,2 km/h (2 Bft) W 262 ° 0 min 0,000 mm 0,0 UV-I 0 W/m² 12,0 °C 12,8 °C 12,9 km/h (3 Bft)
20.08.2019 19:05 12,9 °C 95 % 1021,7 hPa 0,0 mm 7,2 km/h (2 Bft) W 265 ° 0 min 0,000 mm 0,0 UV-I 0 W/m² 12,1 °C 12,9 °C 12,9 km/h (3 Bft)
20.08.2019 19:06 12,9 °C 94 % 1021,7 hPa 0,0 mm 5,3 km/h (1 Bft) SW 228 ° 0 min 0,000 mm 0,0 UV-I 0 W/m² 12,0 °C 12,9 °C 11,3 km/h (2 Bft)
20.08.2019 19:07 12,8 °C 94 % 1021,7 hPa 0,0 mm 7,6 km/h (2 Bft) NW 319 ° 0 min 0,000 mm 0,0 UV-I 0 W/m² 11,9 °C 12,8 °C 12,9 km/h (3 Bft)
20.08.2019 19:08 12,9 °C 94 % 1021,7 hPa 0,0 mm 4,6 km/h (1 Bft) W-NW 288 ° 0 min 0,000 mm 0,0 UV-I 0 W/m² 12,0 °C 12,9 °C 6,4 km/h (2 Bft)
20.08.2019 19:09 12,9 °C 94 % 1021,7 hPa 0,0 mm 4,1 km/h (1 Bft) W-NW 282 ° 0 min 0,000 mm 0,0 UV-I 0 W/m² 12,0 °C 12,9 °C 6,4 km/h (2 Bft)
20.08.2019 19:10 12,9 °C 94 % 1021,6 hPa 0,0 mm 3,4 km/h (1 Bft) W-NW 283 ° 0 min 0,000 mm 0,0 UV-I 0 W/m² 12,0 °C 12,9 °C 4,8 km/h (1 Bft)
20.08.2019 19:11 12,9 °C 95 % 1021,6 hPa 0,0 mm 3,8 km/h (1 Bft) W-NW 297 ° 0 min 0,000 mm 0,0 UV-I 0 W/m² 12,1 °C 12,9 °C 9,7 km/h (2 Bft)
20.08.2019 19:12 12,9 °C 94 % 1021,6 hPa 0,0 mm 2,2 km/h (1 Bft) NW 304 ° 0 min 0,000 mm 0,0 UV-I 0 W/m² 12,0 °C 12,9 °C 8,0 km/h (2 Bft)
20.08.2019 19:13 12,9 °C 94 % 1021,5 hPa 0,0 mm 5,9 km/h (2 Bft) W-NW 296 ° 0 min 0,000 mm 0,0 UV-I 7 W/m² 12,0 °C 12,9 °C 9,7 km/h (2 Bft)
20.08.2019 19:14 12,9 °C 94 % 1021,5 hPa 0,0 mm 4,5 km/h (1 Bft) W 272 ° 0 min 0,000 mm 0,0 UV-I 7 W/m² 12,0 °C 12,9 °C 8,0 km/h (2 Bft)
20.08.2019 19:15 12,9 °C 94 % 1021,6 hPa 0,2 mm 2,7 km/h (1 Bft) W 272 ° 0 min 0,000 mm 0,0 UV-I 7 W/m² 12,0 °C 12,9 °C 4,8 km/h (1 Bft)
20.08.2019 19:16 12,9 °C 94 % 1021,7 hPa 0,0 mm 3,0 km/h (1 Bft) W-SW 250 ° 0 min 0,000 mm 0,0 UV-I 7 W/m² 12,0 °C 12,9 °C 6,4 km/h (2 Bft)
20.08.2019 19:17 12,9 °C 94 % 1021,7 hPa 0,0 mm 7,8 km/h (2 Bft) W 265 ° 0 min 0,000 mm 0,0 UV-I 7 W/m² 12,0 °C 12,9 °C 11,3 km/h (2 Bft)
20.08.2019 19:18 12,9 °C 94 % 1021,7 hPa 0,0 mm 5,6 km/h (1 Bft) NW 315 ° 0 min 0,000 mm 0,0 UV-I 7 W/m² 12,0 °C 12,9 °C 8,0 km/h (2 Bft)
20.08.2019 19:19 12,9 °C 94 % 1021,8 hPa 0,0 mm 10,4 km/h (2 Bft) W 263 ° 0 min 0,000 mm 0,0 UV-I 7 W/m² 12,0 °C 12,9 °C 16,1 km/h (3 Bft)
20.08.2019 19:20 12,8 °C 94 % 1021,7 hPa 0,0 mm 7,1 km/h (2 Bft) W 269 ° 0 min 0,000 mm 0,0 UV-I 5 W/m² 11,9 °C 12,8 °C 14,5 km/h (3 Bft)
20.08.2019 19:21 12,8 °C 94 % 1021,7 hPa 0,0 mm 5,3 km/h (1 Bft) W-NW 284 ° 0 min 0,000 mm 0,0 UV-I 7 W/m² 11,9 °C 12,8 °C 9,7 km/h (2 Bft)
20.08.2019 19:22 12,8 °C 94 % 1021,7 hPa 0,0 mm 6,0 km/h (2 Bft) W-NW 289 ° 0 min 0,000 mm 0,0 UV-I 5 W/m² 11,9 °C 12,8 °C 11,3 km/h (2 Bft)
20.08.2019 19:23 12,8 °C 94 % 1021,8 hPa 0,0 mm 6,3 km/h (2 Bft) W-SW 258 ° 0 min 0,000 mm 0,0 UV-I 5 W/m² 11,9 °C 12,8 °C 11,3 km/h (2 Bft)
20.08.2019 19:24 12,9 °C 94 % 1021,9 hPa 0,0 mm 6,6 km/h (2 Bft) W-SW 250 ° 0 min 0,000 mm 0,0 UV-I 0 W/m² 12,0 °C 12,9 °C 9,7 km/h (2 Bft)
20.08.2019 19:25 12,8 °C 94 % 1021,9 hPa 0,0 mm 8,7 km/h (2 Bft) W 264 ° 0 min 0,000 mm 0,0 UV-I 0 W/m² 11,9 °C 12,8 °C 12,9 km/h (3 Bft)
20.08.2019 19:26 12,8 °C 94 % 1022,0 hPa 0,0 mm 3,2 km/h (1 Bft) W-NW 291 ° 0 min 0,000 mm 0,0 UV-I 0 W/m² 11,9 °C 12,8 °C 9,7 km/h (2 Bft)
20.08.2019 19:27 12,8 °C 94 % 1022,0 hPa 0,2 mm 5,7 km/h (1 Bft) W 269 ° 0 min 0,000 mm 0,0 UV-I 0 W/m² 11,9 °C 12,8 °C 9,7 km/h (2 Bft)
20.08.2019 19:28 12,8 °C 94 % 1021,9 hPa 0,0 mm 4,7 km/h (1 Bft) W 273 ° 0 min 0,000 mm 0,0 UV-I 0 W/m² 11,9 °C 12,8 °C 6,4 km/h (2 Bft)
20.08.2019 19:29 12,8 °C 94 % 1021,9 hPa 0,0 mm 2,6 km/h (1 Bft) W 276 ° 0 min 0,000 mm 0,0 UV-I 0 W/m² 11,9 °C 12,8 °C 4,8 km/h (1 Bft)
20.08.2019 19:30 12,8 °C 94 % 1021,9 hPa 0,0 mm 2,0 km/h (1 Bft) W-NW 283 ° 0 min 0,000 mm 0,0 UV-I 0 W/m² 11,9 °C 12,8 °C 4,8 km/h (1 Bft)
20.08.2019 19:31 12,8 °C 94 % 1021,9 hPa 0,0 mm 0,5 km/h (0 Bft) W-NW 284 ° 0 min 0,000 mm 0,0 UV-I 0 W/m² 11,9 °C 12,8 °C 1,6 km/h (1 Bft)
20.08.2019 19:32 12,8 °C 94 % 1021,8 hPa 0,0 mm 2,4 km/h (1 Bft) W-NW 284 ° 0 min 0,000 mm 0,0 UV-I 5 W/m² 11,9 °C 12,8 °C 4,8 km/h (1 Bft)
20.08.2019 19:33 12,9 °C 94 % 1021,8 hPa 0,0 mm 3,7 km/h (1 Bft) NW 317 ° 0 min 0,000 mm 0,0 UV-I 5 W/m² 12,0 °C 12,9 °C 8,0 km/h (2 Bft)
20.08.2019 19:34 12,8 °C 94 % 1021,8 hPa 0,0 mm 3,8 km/h (1 Bft) W-NW 288 ° 0 min 0,000 mm 0,0 UV-I 0 W/m² 11,9 °C 12,8 °C 6,4 km/h (2 Bft)
20.08.2019 19:35 12,8 °C 94 % 1021,7 hPa 0,0 mm 2,1 km/h (1 Bft) W-NW 296 ° 0 min 0,000 mm 0,0 UV-I 0 W/m² 11,9 °C 12,8 °C 4,8 km/h (1 Bft)
20.08.2019 19:36 12,8 °C 94 % 1021,7 hPa 0,0 mm 0,9 km/h (0 Bft) W-NW 296 ° 0 min 0,000 mm 0,0 UV-I 0 W/m² 11,9 °C 12,8 °C 4,8 km/h (1 Bft)
20.08.2019 19:37 12,8 °C 94 % 1021,8 hPa 0,0 mm 5,1 km/h (1 Bft) W-NW 286 ° 0 min 0,000 mm 0,0 UV-I 0 W/m² 11,9 °C 12,8 °C 8,0 km/h (2 Bft)
20.08.2019 19:38 12,8 °C 94 % 1021,9 hPa 0,0 mm 3,9 km/h (1 Bft) NW 311 ° 0 min 0,000 mm 0,0 UV-I 0 W/m² 11,9 °C 12,8 °C 6,4 km/h (2 Bft)
20.08.2019 19:39 12,7 °C 94 % 1022,0 hPa 0,2 mm 1,9 km/h (1 Bft) NW 306 ° 0 min 0,000 mm 0,0 UV-I 0 W/m² 11,8 °C 12,7 °C 3,2 km/h (1 Bft)
20.08.2019 19:40 12,7 °C 94 % 1022,0 hPa 0,0 mm 3,0 km/h (1 Bft) NW 306 ° 0 min 0,000 mm 0,0 UV-I 0 W/m² 11,8 °C 12,7 °C 4,8 km/h (1 Bft)
20.08.2019 19:41 12,7 °C 94 % 1022,1 hPa 0,0 mm 1,1 km/h (1 Bft) NW 308 ° 0 min 0,000 mm 0,0 UV-I 0 W/m² 11,8 °C 12,7 °C 3,2 km/h (1 Bft)
20.08.2019 19:42 12,7 °C 94 % 1022,1 hPa 0,0 mm 0,9 km/h (0 Bft) NW 308 ° 0 min 0,000 mm 0,0 UV-I 0 W/m² 11,8 °C 12,7 °C 3,2 km/h (1 Bft)
20.08.2019 19:43 12,7 °C 94 % 1022,1 hPa 0,0 mm 0,0 km/h (0 Bft) NW 307 ° 0 min 0,000 mm 0,0 UV-I 0 W/m² 11,8 °C 12,7 °C 0,0 km/h (0 Bft)
20.08.2019 19:44 12,7 °C 94 % 1022,1 hPa 0,0 mm 2,3 km/h (1 Bft) NW 308 ° 0 min 0,000 mm 0,0 UV-I 0 W/m² 11,8 °C 12,7 °C 3,2 km/h (1 Bft)
20.08.2019 19:45 12,7 °C 94 % 1022,1 hPa 0,0 mm 2,1 km/h (1 Bft) NW 308 ° 0 min 0,000 mm 0,0 UV-I 0 W/m² 11,8 °C 12,7 °C 4,8 km/h (1 Bft)
20.08.2019 19:46 12,7 °C 94 % 1022,1 hPa 0,0 mm 0,0 km/h (0 Bft) NW 308 ° 0 min 0,000 mm 0,0 UV-I 0 W/m² 11,8 °C 12,7 °C 0,0 km/h (0 Bft)
20.08.2019 19:47 12,7 °C 94 % 1022,1 hPa 0,0 mm 1,9 km/h (1 Bft) N-NW 328 ° 0 min 0,000 mm 0,0 UV-I 0 W/m² 11,8 °C 12,7 °C 6,4 km/h (2 Bft)
20.08.2019 19:48 12,7 °C 94 % 1022,2 hPa 0,0 mm 5,2 km/h (1 Bft) NW 325 ° 0 min 0,000 mm 0,0 UV-I 0 W/m² 11,8 °C 12,7 °C 8,0 km/h (2 Bft)
20.08.2019 19:49 12,6 °C 94 % 1022,2 hPa 0,0 mm 0,7 km/h (0 Bft) S-SW 194 ° 0 min 0,000 mm 0,0 UV-I 0 W/m² 11,7 °C 12,6 °C 4,8 km/h (1 Bft)
20.08.2019 19:50 12,6 °C 94 % 1022,4 hPa 0,0 mm 0,6 km/h (0 Bft) S-SW 195 ° 0 min 0,000 mm 0,0 UV-I 0 W/m² 11,7 °C 12,6 °C 3,2 km/h (1 Bft)
20.08.2019 19:51 12,6 °C 94 % 1022,3 hPa 0,0 mm 1,4 km/h (1 Bft) S-SW 195 ° 0 min 0,000 mm 0,0 UV-I 0 W/m² 11,7 °C 12,6 °C 3,2 km/h (1 Bft)
20.08.2019 19:52 12,6 °C 94 % 1022,3 hPa 0,2 mm 4,9 km/h (1 Bft) W 273 ° 0 min 0,000 mm 0,0 UV-I 0 W/m² 11,7 °C 12,6 °C 11,3 km/h (2 Bft)
20.08.2019 19:53 12,6 °C 94 % 1022,2 hPa 0,0 mm 6,9 km/h (2 Bft) W-NW 292 ° 0 min 0,000 mm 0,0 UV-I 0 W/m² 11,7 °C 12,6 °C 11,3 km/h (2 Bft)
20.08.2019 19:54 12,5 °C 94 % 1022,2 hPa 0,0 mm 2,5 km/h (1 Bft) W-NW 297 ° 0 min 0,000 mm 0,0 UV-I 0 W/m² 11,6 °C 12,5 °C 8,0 km/h (2 Bft)
20.08.2019 19:55 12,5 °C 94 % 1022,2 hPa 0,0 mm 1,5 km/h (1 Bft) N-NO 15 ° 0 min 0,000 mm 0,0 UV-I 0 W/m² 11,6 °C 12,5 °C 3,2 km/h (1 Bft)
20.08.2019 19:56 12,4 °C 94 % 1022,3 hPa 0,0 mm 0,4 km/h (0 Bft) N-NO 13 ° 0 min 0,000 mm 0,0 UV-I 0 W/m² 11,5 °C 12,4 °C 3,2 km/h (1 Bft)
20.08.2019 19:57 12,4 °C 94 % 1022,2 hPa 0,0 mm 1,1 km/h (1 Bft) N-NO 13 ° 0 min 0,000 mm 0,0 UV-I 0 W/m² 11,5 °C 12,4 °C 3,2 km/h (1 Bft)
20.08.2019 19:58 12,4 °C 94 % 1022,2 hPa 0,0 mm 0,4 km/h (0 Bft) N-NO 13 ° 0 min 0,000 mm 0,0 UV-I 0 W/m² 11,5 °C 12,4 °C 1,6 km/h (1 Bft)
20.08.2019 19:59 12,4 °C 94 % 1022,2 hPa 0,0 mm 0,1 km/h (0 Bft) N-NO 13 ° 0 min 0,000 mm 0,0 UV-I 0 W/m² 11,5 °C 12,4 °C 1,6 km/h (1 Bft)
20.08.2019 20:00 12,4 °C 94 % 1022,1 hPa 0,0 mm 1,8 km/h (1 Bft) N-NO 13 ° 0 min 0,000 mm 0,0 UV-I 0 W/m² 11,5 °C 12,4 °C 3,2 km/h (1 Bft)
20.08.2019 20:01 12,4 °C 94 % 1022,1 hPa 0,0 mm 0,5 km/h (0 Bft) N-NO 13 ° 0 min 0,000 mm 0,0 UV-I 0 W/m² 11,5 °C 12,4 °C 3,2 km/h (1 Bft)
20.08.2019 20:02 12,4 °C 94 % 1022,0 hPa 0,0 mm 0,1 km/h (0 Bft) N-NO 13 ° 0 min 0,000 mm 0,0 UV-I 0 W/m² 11,5 °C 12,4 °C 1,6 km/h (1 Bft)
20.08.2019 20:03 12,5 °C 94 % 1022,0 hPa 0,2 mm 0,0 km/h (0 Bft) N-NO 13 ° 0 min 0,000 mm 0,0 UV-I 0 W/m² 11,6 °C 12,5 °C 0,0 km/h (0 Bft)
20.08.2019 20:04 12,4 °C 94 % 1021,9 hPa 0,0 mm 0,0 km/h (0 Bft) N-NO 13 ° 0 min 0,000 mm 0,0 UV-I 0 W/m² 11,5 °C 12,4 °C 0,0 km/h (0 Bft)
20.08.2019 20:05 12,4 °C 94 % 1022,0 hPa 0,0 mm 0,0 km/h (0 Bft) N-NO 13 ° 0 min 0,000 mm 0,0 UV-I 0 W/m² 11,5 °C 12,4 °C 0,0 km/h (0 Bft)
20.08.2019 20:06 12,4 °C 94 % 1022,0 hPa 0,0 mm 0,0 km/h (0 Bft) N-NO 13 ° 0 min 0,000 mm 0,0 UV-I 0 W/m² 11,5 °C 12,4 °C 0,0 km/h (0 Bft)
20.08.2019 20:07 12,4 °C 94 % 1022,0 hPa 0,0 mm 0,0 km/h (0 Bft) N-NO 13 ° 0 min 0,000 mm 0,0 UV-I 0 W/m² 11,5 °C 12,4 °C 0,0 km/h (0 Bft)
20.08.2019 20:08 12,4 °C 94 % 1022,0 hPa 0,0 mm 0,0 km/h (0 Bft) N-NO 13 ° 0 min 0,000 mm 0,0 UV-I 0 W/m² 11,5 °C 12,4 °C 0,0 km/h (0 Bft)
20.08.2019 20:09 12,4 °C 94 % 1022,0 hPa 0,0 mm 0,0 km/h (0 Bft) N-NO 13 ° 0 min 0,000 mm 0,0 UV-I 0 W/m² 11,5 °C 12,4 °C 0,0 km/h (0 Bft)
20.08.2019 20:10 12,4 °C 94 % 1022,1 hPa 0,0 mm 0,0 km/h (0 Bft) N-NO 13 ° 0 min 0,000 mm 0,0 UV-I 0 W/m² 11,5 °C 12,4 °C 0,0 km/h (0 Bft)
20.08.2019 20:11 12,4 °C 94 % 1022,1 hPa 0,0 mm 0,0 km/h (0 Bft) N-NO 13 ° 0 min 0,000 mm 0,0 UV-I 0 W/m² 11,5 °C 12,4 °C 0,0 km/h (0 Bft)
20.08.2019 20:12 12,3 °C 94 % 1022,1 hPa 0,0 mm 1,8 km/h (1 Bft) N-NO 13 ° 0 min 0,000 mm 0,0 UV-I 0 W/m² 11,4 °C 12,3 °C 3,2 km/h (1 Bft)
20.08.2019 20:13 12,3 °C 94 % 1022,1 hPa 0,0 mm 0,5 km/h (0 Bft) N-NO 15 ° 0 min 0,000 mm 0,0 UV-I 0 W/m² 11,4 °C 12,3 °C 3,2 km/h (1 Bft)
20.08.2019 20:14 12,3 °C 94 % 1022,1 hPa 0,0 mm 2,3 km/h (1 Bft) N-NO 15 ° 0 min 0,000 mm 0,0 UV-I 0 W/m² 11,4 °C 12,3 °C 3,2 km/h (1 Bft)
20.08.2019 20:15 12,3 °C 94 % 1022,1 hPa 0,2 mm 1,1 km/h (1 Bft) N-NO 15 ° 0 min 0,000 mm 0,0 UV-I 0 W/m² 11,4 °C 12,3 °C 3,2 km/h (1 Bft)
20.08.2019 20:16 12,3 °C 94 % 1022,1 hPa 0,0 mm 1,4 km/h (1 Bft) N-NO 15 ° 0 min 0,000 mm 0,0 UV-I 0 W/m² 11,4 °C 12,3 °C 1,6 km/h (1 Bft)
20.08.2019 20:17 12,3 °C 94 % 1022,1 hPa 0,0 mm 0,7 km/h (0 Bft) N-NO 15 ° 0 min 0,000 mm 0,0 UV-I 0 W/m² 11,4 °C 12,3 °C 1,6 km/h (1 Bft)
20.08.2019 20:18 12,2 °C 94 % 1022,1 hPa 0,0 mm 0,0 km/h (0 Bft) N-NO 15 ° 0 min 0,000 mm 0,0 UV-I 0 W/m² 11,3 °C 12,2 °C 0,0 km/h (0 Bft)
20.08.2019 20:19 12,2 °C 94 % 1022,1 hPa 0,0 mm 0,0 km/h (0 Bft) N-NO 15 ° 0 min 0,000 mm 0,0 UV-I 0 W/m² 11,3 °C 12,2 °C 0,0 km/h (0 Bft)
20.08.2019 20:20 12,2 °C 94 % 1022,1 hPa 0,0 mm 0,0 km/h (0 Bft) N-NO 15 ° 0 min 0,000 mm 0,0 UV-I 0 W/m² 11,3 °C 12,2 °C 0,0 km/h (0 Bft)
20.08.2019 20:21 12,2 °C 94 % 1022,1 hPa 0,0 mm 0,0 km/h (0 Bft) N-NO 15 ° 0 min 0,000 mm 0,0 UV-I 0 W/m² 11,3 °C 12,2 °C 0,0 km/h (0 Bft)
20.08.2019 20:22 12,2 °C 94 % 1022,1 hPa 0,0 mm 0,5 km/h (0 Bft) N-NO 15 ° 0 min 0,000 mm 0,0 UV-I 0 W/m² 11,3 °C 12,2 °C 1,6 km/h (1 Bft)
20.08.2019 20:23 12,2 °C 94 % 1022,2 hPa 0,0 mm 0,5 km/h (0 Bft) N-NO 15 ° 0 min 0,000 mm 0,0 UV-I 0 W/m² 11,3 °C 12,2 °C 1,6 km/h (1 Bft)
20.08.2019 20:24 12,1 °C 94 % 1022,2 hPa 0,0 mm 0,0 km/h (0 Bft) N-NO 15 ° 0 min 0,000 mm 0,0 UV-I 0 W/m² 11,2 °C 12,1 °C 0,0 km/h (0 Bft)
20.08.2019 20:25 12,1 °C 94 % 1022,2 hPa 0,0 mm 1,3 km/h (1 Bft) N-NO 15 ° 0 min 0,000 mm 0,0 UV-I 0 W/m² 11,2 °C 12,1 °C 3,2 km/h (1 Bft)
20.08.2019 20:26 12,1 °C 94 % 1022,2 hPa 0,2 mm 1,9 km/h (1 Bft) N-NO 15 ° 0 min 0,000 mm 0,0 UV-I 0 W/m² 11,2 °C 12,1 °C 3,2 km/h (1 Bft)
20.08.2019 20:27 12,1 °C 94 % 1022,2 hPa 0,0 mm 1,5 km/h (1 Bft) N-NO 15 ° 0 min 0,000 mm 0,0 UV-I 0 W/m² 11,2 °C 12,1 °C 3,2 km/h (1 Bft)
20.08.2019 20:28 12,1 °C 94 % 1022,2 hPa 0,0 mm 0,2 km/h (0 Bft) N-NO 15 ° 0 min 0,000 mm 0,0 UV-I 0 W/m² 11,2 °C 12,1 °C 1,6 km/h (1 Bft)
20.08.2019 20:29 12,1 °C 94 % 1022,3 hPa 0,0 mm 0,0 km/h (0 Bft) N-NO 15 ° 0 min 0,000 mm 0,0 UV-I 0 W/m² 11,2 °C 12,1 °C 0,0 km/h (0 Bft)
20.08.2019 20:30 12,1 °C 94 % 1022,3 hPa 0,0 mm 0,0 km/h (0 Bft) N-NO 15 ° 0 min 0,000 mm 0,0 UV-I 0 W/m² 11,2 °C 12,1 °C 0,0 km/h (0 Bft)
20.08.2019 20:31 12,1 °C 95 % 1022,3 hPa 0,0 mm 0,1 km/h (0 Bft) N-NO 15 ° 0 min 0,000 mm 0,0 UV-I 0 W/m² 11,3 °C 12,1 °C 1,6 km/h (1 Bft)
20.08.2019 20:32 12,1 °C 94 % 1022,4 hPa 0,0 mm 0,0 km/h (0 Bft) N-NO 15 ° 0 min 0,000 mm 0,0 UV-I 0 W/m² 11,2 °C 12,1 °C 0,0 km/h (0 Bft)
20.08.2019 20:33 12,0 °C 95 % 1022,4 hPa 0,0 mm 1,0 km/h (0 Bft) N-NO 15 ° 0 min 0,000 mm 0,0 UV-I 0 W/m² 11,2 °C 12,0 °C 3,2 km/h (1 Bft)
20.08.2019 20:34 12,0 °C 94 % 1022,4 hPa 0,0 mm 1,7 km/h (1 Bft) N-NO 15 ° 0 min 0,000 mm 0,0 UV-I 0 W/m² 11,1 °C 12,0 °C 3,2 km/h (1 Bft)
20.08.2019 20:35 12,0 °C 94 % 1022,4 hPa 0,0 mm 1,8 km/h (1 Bft) N-NO 15 ° 0 min 0,000 mm 0,0 UV-I 0 W/m² 11,1 °C 12,0 °C 3,2 km/h (1 Bft)
20.08.2019 20:36 12,0 °C 94 % 1022,5 hPa 0,0 mm 0,1 km/h (0 Bft) N-NO 15 ° 0 min 0,000 mm 0,0 UV-I 0 W/m² 11,1 °C 12,0 °C 1,6 km/h (1 Bft)
20.08.2019 20:37 12,0 °C 94 % 1022,5 hPa 0,0 mm 0,0 km/h (0 Bft) N-NO 15 ° 0 min 0,000 mm 0,0 UV-I 0 W/m² 11,1 °C 12,0 °C 0,0 km/h (0 Bft)
20.08.2019 20:38 12,0 °C 94 % 1022,5 hPa 0,0 mm 0,0 km/h (0 Bft) N-NO 15 ° 0 min 0,000 mm 0,0 UV-I 0 W/m² 11,1 °C 12,0 °C 0,0 km/h (0 Bft)
20.08.2019 20:39 11,9 °C 94 % 1022,5 hPa 0,2 mm 0,0 km/h (0 Bft) N-NO 15 ° 0 min 0,000 mm 0,0 UV-I 0 W/m² 11,0 °C 11,9 °C 0,0 km/h (0 Bft)
20.08.2019 20:40 12,0 °C 94 % 1022,5 hPa 0,0 mm 0,0 km/h (0 Bft) N-NO 15 ° 0 min 0,000 mm 0,0 UV-I 0 W/m² 11,1 °C 12,0 °C 0,0 km/h (0 Bft)
20.08.2019 20:41 12,0 °C 95 % 1022,6 hPa 0,0 mm 0,4 km/h (0 Bft) N-NO 15 ° 0 min 0,000 mm 0,0 UV-I 0 W/m² 11,2 °C 12,0 °C 1,6 km/h (1 Bft)
20.08.2019 20:42 12,0 °C 95 % 1022,6 hPa 0,0 mm 0,0 km/h (0 Bft) N-NO 15 ° 0 min 0,000 mm 0,0 UV-I 0 W/m² 11,2 °C 12,0 °C 0,0 km/h (0 Bft)
20.08.2019 20:43 12,0 °C 95 % 1022,6 hPa 0,0 mm 0,0 km/h (0 Bft) N-NO 15 ° 0 min 0,000 mm 0,0 UV-I 0 W/m² 11,2 °C 12,0 °C 0,0 km/h (0 Bft)
20.08.2019 20:44 12,0 °C 95 % 1022,6 hPa 0,0 mm 0,0 km/h (0 Bft) N-NO 15 ° 0 min 0,000 mm 0,0 UV-I 0 W/m² 11,2 °C 12,0 °C 0,0 km/h (0 Bft)
20.08.2019 20:45 11,9 °C 95 % 1022,6 hPa 0,0 mm 0,6 km/h (0 Bft) N-NO 15 ° 0 min 0,000 mm 0,0 UV-I 0 W/m² 11,1 °C 11,9 °C 3,2 km/h (1 Bft)
20.08.2019 20:46 11,9 °C 95 % 1022,6 hPa 0,0 mm 0,1 km/h (0 Bft) N-NO 15 ° 0 min 0,000 mm 0,0 UV-I 0 W/m² 11,1 °C 11,9 °C 1,6 km/h (1 Bft)
20.08.2019 20:47 12,0 °C 95 % 1022,6 hPa 0,0 mm 0,0 km/h (0 Bft) N-NO 15 ° 0 min 0,000 mm 0,0 UV-I 0 W/m² 11,2 °C 12,0 °C 0,0 km/h (0 Bft)
20.08.2019 20:48 12,0 °C 95 % 1022,5 hPa 0,0 mm 0,0 km/h (0 Bft) N-NO 15 ° 0 min 0,000 mm 0,0 UV-I 0 W/m² 11,2 °C 12,0 °C 0,0 km/h (0 Bft)
20.08.2019 20:49 12,0 °C 95 % 1022,5 hPa 0,0 mm 0,0 km/h (0 Bft) N-NO 15 ° 0 min 0,000 mm 0,0 UV-I 0 W/m² 11,2 °C 12,0 °C 0,0 km/h (0 Bft)
20.08.2019 20:50 12,1 °C 95 % 1022,6 hPa 0,0 mm 0,0 km/h (0 Bft) N-NO 15 ° 0 min 0,000 mm 0,0 UV-I 0 W/m² 11,3 °C 12,1 °C 0,0 km/h (0 Bft)
20.08.2019 20:51 12,0 °C 95 % 1022,6 hPa 0,0 mm 0,0 km/h (0 Bft) N-NO 15 ° 0 min 0,000 mm 0,0 UV-I 0 W/m² 11,2 °C 12,0 °C 0,0 km/h (0 Bft)
20.08.2019 20:52 12,1 °C 95 % 1022,6 hPa 0,0 mm 0,0 km/h (0 Bft) N-NO 15 ° 0 min 0,000 mm 0,0 UV-I 0 W/m² 11,3 °C 12,1 °C 0,0 km/h (0 Bft)
20.08.2019 20:53 12,1 °C 95 % 1022,7 hPa 0,0 mm 0,0 km/h (0 Bft) N-NO 15 ° 0 min 0,000 mm 0,0 UV-I 0 W/m² 11,3 °C 12,1 °C 0,0 km/h (0 Bft)
20.08.2019 20:54 12,1 °C 95 % 1022,6 hPa 0,2 mm 0,0 km/h (0 Bft) N-NO 15 ° 0 min 0,000 mm 0,0 UV-I 0 W/m² 11,3 °C 12,1 °C 0,0 km/h (0 Bft)
20.08.2019 20:55 12,0 °C 95 % 1022,6 hPa 0,0 mm 0,0 km/h (0 Bft) N-NO 15 ° 0 min 0,000 mm 0,0 UV-I 0 W/m² 11,2 °C 12,0 °C 0,0 km/h (0 Bft)
20.08.2019 20:56 12,1 °C 95 % 1022,7 hPa 0,0 mm 0,0 km/h (0 Bft) N-NO 15 ° 0 min 0,000 mm 0,0 UV-I 0 W/m² 11,3 °C 12,1 °C 0,0 km/h (0 Bft)
20.08.2019 20:57 12,1 °C 95 % 1022,8 hPa 0,0 mm 1,7 km/h (1 Bft) N-NO 15 ° 0 min 0,000 mm 0,0 UV-I 0 W/m² 11,3 °C 12,1 °C 3,2 km/h (1 Bft)
20.08.2019 20:58 12,1 °C 95 % 1022,8 hPa 0,0 mm 2,6 km/h (1 Bft) N-NO 15 ° 0 min 0,000 mm 0,0 UV-I 0 W/m² 11,3 °C 12,1 °C 3,2 km/h (1 Bft)
20.08.2019 20:59 12,0 °C 95 % 1022,8 hPa 0,0 mm 2,0 km/h (1 Bft) N-NO 15 ° 0 min 0,000 mm 0,0 UV-I 0 W/m² 11,2 °C 12,0 °C 3,2 km/h (1 Bft)
20.08.2019 21:00 12,0 °C 95 % 1022,9 hPa 0,0 mm 0,0 km/h (0 Bft) N-NO 15 ° 0 min 0,000 mm 0,0 UV-I 0 W/m² 11,2 °C 12,0 °C 0,0 km/h (0 Bft)
20.08.2019 21:01 12,0 °C 95 % 1022,8 hPa 0,0 mm 0,0 km/h (0 Bft) N-NO 15 ° 0 min 0,000 mm 0,0 UV-I 0 W/m² 11,2 °C 12,0 °C 0,0 km/h (0 Bft)
20.08.2019 21:02 11,9 °C 95 % 1022,8 hPa 0,0 mm 0,0 km/h (0 Bft) N-NO 15 ° 0 min 0,000 mm 0,0 UV-I 0 W/m² 11,1 °C 11,9 °C 0,0 km/h (0 Bft)
20.08.2019 21:03 11,9 °C 95 % 1022,8 hPa 0,0 mm 0,0 km/h (0 Bft) N-NO 15 ° 0 min 0,000 mm 0,0 UV-I 0 W/m² 11,1 °C 11,9 °C 0,0 km/h (0 Bft)
20.08.2019 21:04 11,9 °C 95 % 1022,8 hPa 0,0 mm 0,0 km/h (0 Bft) N-NO 15 ° 0 min 0,000 mm 0,0 UV-I 0 W/m² 11,1 °C 11,9 °C 0,0 km/h (0 Bft)
20.08.2019 21:05 11,9 °C 95 % 1022,8 hPa 0,0 mm 0,0 km/h (0 Bft) N-NO 15 ° 0 min 0,000 mm 0,0 UV-I 0 W/m² 11,1 °C 11,9 °C 0,0 km/h (0 Bft)
20.08.2019 21:06 11,9 °C 95 % 1022,9 hPa 0,0 mm 1,2 km/h (1 Bft) N-NO 15 ° 0 min 0,000 mm 0,0 UV-I 0 W/m² 11,1 °C 11,9 °C 3,2 km/h (1 Bft)
20.08.2019 21:07 11,9 °C 95 % 1023,1 hPa 0,0 mm 3,2 km/h (1 Bft) N-NO 15 ° 0 min 0,000 mm 0,0 UV-I 0 W/m² 11,1 °C 11,9 °C 4,8 km/h (1 Bft)
20.08.2019 21:08 11,9 °C 95 % 1023,1 hPa 0,0 mm 4,4 km/h (1 Bft) N-NO 15 ° 0 min 0,000 mm 0,0 UV-I 0 W/m² 11,1 °C 11,9 °C 4,8 km/h (1 Bft)
20.08.2019 21:09 11,9 °C 95 % 1023,3 hPa 0,0 mm 3,8 km/h (1 Bft) SO 138 ° 0 min 0,000 mm 0,0 UV-I 0 W/m² 11,1 °C 11,9 °C 4,8 km/h (1 Bft)
20.08.2019 21:10 11,9 °C 95 % 1023,4 hPa 0,0 mm 2,6 km/h (1 Bft) SO 146 ° 0 min 0,000 mm 0,0 UV-I 0 W/m² 11,1 °C 11,9 °C 4,8 km/h (1 Bft)
20.08.2019 21:11 11,9 °C 95 % 1023,4 hPa 0,0 mm 2,4 km/h (1 Bft) SO 146 ° 0 min 0,000 mm 0,0 UV-I 0 W/m² 11,1 °C 11,9 °C 3,2 km/h (1 Bft)
20.08.2019 21:12 11,9 °C 95 % 1023,5 hPa 0,2 mm 1,2 km/h (1 Bft) SO 146 ° 0 min 0,000 mm 0,0 UV-I 0 W/m² 11,1 °C 11,9 °C 1,6 km/h (1 Bft)
20.08.2019 21:13 12,0 °C 95 % 1023,5 hPa 0,0 mm 1,0 km/h (0 Bft) S-SO 156 ° 0 min 0,000 mm 0,0 UV-I 0 W/m² 11,2 °C 12,0 °C 3,2 km/h (1 Bft)
20.08.2019 21:14 12,0 °C 95 % 1023,4 hPa 0,0 mm 0,6 km/h (0 Bft) S-SO 156 ° 0 min 0,000 mm 0,0 UV-I 0 W/m² 11,2 °C 12,0 °C 3,2 km/h (1 Bft)
20.08.2019 21:15 12,0 °C 95 % 1023,4 hPa 0,0 mm 0,0 km/h (0 Bft) S-SO 156 ° 0 min 0,000 mm 0,0 UV-I 0 W/m² 11,2 °C 12,0 °C 0,0 km/h (0 Bft)
20.08.2019 21:16 12,0 °C 95 % 1023,3 hPa 0,0 mm 0,0 km/h (0 Bft) S-SO 156 ° 0 min 0,000 mm 0,0 UV-I 0 W/m² 11,2 °C 12,0 °C 0,0 km/h (0 Bft)
20.08.2019 21:17 12,0 °C 95 % 1023,3 hPa 0,0 mm 0,0 km/h (0 Bft) S-SO 156 ° 0 min 0,000 mm 0,0 UV-I 0 W/m² 11,2 °C 12,0 °C 0,0 km/h (0 Bft)
20.08.2019 21:18 12,1 °C 95 % 1023,3 hPa 0,0 mm 0,0 km/h (0 Bft) S-SO 156 ° 0 min 0,000 mm 0,0 UV-I 0 W/m² 11,3 °C 12,1 °C 0,0 km/h (0 Bft)
20.08.2019 21:19 12,0 °C 95 % 1023,3 hPa 0,0 mm 0,0 km/h (0 Bft) S-SO 156 ° 0 min 0,000 mm 0,0 UV-I 0 W/m² 11,2 °C 12,0 °C 0,0 km/h (0 Bft)
20.08.2019 21:20 12,0 °C 95 % 1023,3 hPa 0,0 mm 0,0 km/h (0 Bft) S-SO 156 ° 0 min 0,000 mm 0,0 UV-I 0 W/m² 11,2 °C 12,0 °C 0,0 km/h (0 Bft)
20.08.2019 21:21 12,0 °C 95 % 1023,4 hPa 0,0 mm 0,3 km/h (0 Bft) S-SO 156 ° 0 min 0,000 mm 0,0 UV-I 0 W/m² 11,2 °C 12,0 °C 1,6 km/h (1 Bft)
20.08.2019 21:22 12,0 °C 95 % 1023,4 hPa 0,0 mm 0,9 km/h (0 Bft) S-SO 156 ° 0 min 0,000 mm 0,0 UV-I 0 W/m² 11,2 °C 12,0 °C 3,2 km/h (1 Bft)
20.08.2019 21:23 11,9 °C 95 % 1023,5 hPa 0,0 mm 0,0 km/h (0 Bft) S-SO 156 ° 0 min 0,000 mm 0,0 UV-I 0 W/m² 11,1 °C 11,9 °C 0,0 km/h (0 Bft)
20.08.2019 21:24 11,9 °C 95 % 1023,5 hPa 0,0 mm 0,0 km/h (0 Bft) S-SO 156 ° 0 min 0,000 mm 0,0 UV-I 0 W/m² 11,1 °C 11,9 °C 0,0 km/h (0 Bft)
20.08.2019 21:25 11,9 °C 95 % 1023,5 hPa 0,0 mm 2,2 km/h (1 Bft) S-SO 157 ° 0 min 0,000 mm 0,0 UV-I 0 W/m² 11,1 °C 11,9 °C 4,8 km/h (1 Bft)
20.08.2019 21:26 11,9 °C 95 % 1023,5 hPa 0,2 mm 0,7 km/h (0 Bft) S-SO 157 ° 0 min 0,000 mm 0,0 UV-I 0 W/m² 11,1 °C 11,9 °C 1,6 km/h (1 Bft)
20.08.2019 21:27 11,9 °C 95 % 1023,4 hPa 0,0 mm 0,0 km/h (0 Bft) S-SO 157 ° 0 min 0,000 mm 0,0 UV-I 0 W/m² 11,1 °C 11,9 °C 0,0 km/h (0 Bft)
20.08.2019 21:28 11,9 °C 95 % 1023,4 hPa 0,0 mm 0,1 km/h (0 Bft) S-SO 157 ° 0 min 0,000 mm 0,0 UV-I 0 W/m² 11,1 °C 11,9 °C 1,6 km/h (1 Bft)
20.08.2019 21:29 11,9 °C 95 % 1023,3 hPa 0,0 mm 0,0 km/h (0 Bft) S-SO 157 ° 0 min 0,000 mm 0,0 UV-I 0 W/m² 11,1 °C 11,9 °C 0,0 km/h (0 Bft)
20.08.2019 21:30 11,9 °C 95 % 1023,3 hPa 0,0 mm 0,0 km/h (0 Bft) S-SO 157 ° 0 min 0,000 mm 0,0 UV-I 0 W/m² 11,1 °C 11,9 °C 0,0 km/h (0 Bft)
20.08.2019 21:31 11,9 °C 95 % 1023,3 hPa 0,0 mm 0,0 km/h (0 Bft) S-SO 157 ° 0 min 0,000 mm 0,0 UV-I 0 W/m² 11,1 °C 11,9 °C 0,0 km/h (0 Bft)
20.08.2019 21:32 11,9 °C 95 % 1023,2 hPa 0,0 mm 0,0 km/h (0 Bft) S-SO 157 ° 0 min 0,000 mm 0,0 UV-I 0 W/m² 11,1 °C 11,9 °C 0,0 km/h (0 Bft)
20.08.2019 21:33 11,9 °C 95 % 1023,3 hPa 0,0 mm 0,0 km/h (0 Bft) S-SO 157 ° 0 min 0,000 mm 0,0 UV-I 0 W/m² 11,1 °C 11,9 °C 0,0 km/h (0 Bft)
20.08.2019 21:34 11,9 °C 95 % 1023,2 hPa 0,0 mm 0,0 km/h (0 Bft) S-SO 157 ° 0 min 0,000 mm 0,0 UV-I 0 W/m² 11,1 °C 11,9 °C 0,0 km/h (0 Bft)
20.08.2019 21:35 11,9 °C 95 % 1023,3 hPa 0,0 mm 0,0 km/h (0 Bft) S-SO 157 ° 0 min 0,000 mm 0,0 UV-I 0 W/m² 11,1 °C 11,9 °C 0,0 km/h (0 Bft)
20.08.2019 21:36 12,0 °C 95 % 1023,3 hPa 0,0 mm 0,0 km/h (0 Bft) S-SO 157 ° 0 min 0,000 mm 0,0 UV-I 0 W/m² 11,2 °C 12,0 °C 0,0 km/h (0 Bft)
20.08.2019 21:37 12,0 °C 95 % 1023,4 hPa 0,0 mm 0,0 km/h (0 Bft) S-SO 157 ° 0 min 0,000 mm 0,0 UV-I 0 W/m² 11,2 °C 12,0 °C 0,0 km/h (0 Bft)
20.08.2019 21:38 12,0 °C 95 % 1023,5 hPa 0,0 mm 0,0 km/h (0 Bft) S-SO 157 ° 0 min 0,000 mm 0,0 UV-I 0 W/m² 11,2 °C 12,0 °C 0,0 km/h (0 Bft)
20.08.2019 21:39 12,1 °C 95 % 1023,5 hPa 0,2 mm 0,0 km/h (0 Bft) S-SO 157 ° 0 min 0,000 mm 0,0 UV-I 0 W/m² 11,3 °C 12,1 °C 0,0 km/h (0 Bft)
20.08.2019 21:40 12,1 °C 95 % 1023,7 hPa 0,0 mm 0,0 km/h (0 Bft) S-SO 157 ° 0 min 0,000 mm 0,0 UV-I 0 W/m² 11,3 °C 12,1 °C 0,0 km/h (0 Bft)
20.08.2019 21:41 12,1 °C 95 % 1023,7 hPa 0,0 mm 0,0 km/h (0 Bft) S-SO 157 ° 0 min 0,000 mm 0,0 UV-I 0 W/m² 11,3 °C 12,1 °C 0,0 km/h (0 Bft)
20.08.2019 21:42 12,1 °C 95 % 1023,7 hPa 0,0 mm 0,0 km/h (0 Bft) S-SO 157 ° 0 min 0,000 mm 0,0 UV-I 0 W/m² 11,3 °C 12,1 °C 0,0 km/h (0 Bft)
20.08.2019 21:43 12,1 °C 95 % 1023,7 hPa 0,0 mm 1,1 km/h (1 Bft) W 270 ° 0 min 0,000 mm 0,0 UV-I 0 W/m² 11,3 °C 12,1 °C 3,2 km/h (1 Bft)
20.08.2019 21:44 12,1 °C 95 % 1023,8 hPa 0,0 mm 1,4 km/h (1 Bft) W 270 ° 0 min 0,000 mm 0,0 UV-I 0 W/m² 11,3 °C 12,1 °C 3,2 km/h (1 Bft)
20.08.2019 21:45 12,1 °C 95 % 1023,8 hPa 0,0 mm 0,9 km/h (0 Bft) W 270 ° 0 min 0,000 mm 0,0 UV-I 0 W/m² 11,3 °C 12,1 °C 3,2 km/h (1 Bft)
20.08.2019 21:46 12,1 °C 95 % 1023,7 hPa 0,0 mm 0,0 km/h (0 Bft) W 270 ° 0 min 0,000 mm 0,0 UV-I 0 W/m² 11,3 °C 12,1 °C 0,0 km/h (0 Bft)
20.08.2019 21:47 12,1 °C 95 % 1023,8 hPa 0,0 mm 1,1 km/h (1 Bft) W 270 ° 0 min 0,000 mm 0,0 UV-I 0 W/m² 11,3 °C 12,1 °C 3,2 km/h (1 Bft)
20.08.2019 21:48 12,1 °C 95 % 1023,8 hPa 0,0 mm 1,7 km/h (1 Bft) W 269 ° 0 min 0,000 mm 0,0 UV-I 0 W/m² 11,3 °C 12,1 °C 3,2 km/h (1 Bft)
20.08.2019 21:49 12,1 °C 95 % 1023,7 hPa 0,0 mm 0,0 km/h (0 Bft) W 269 ° 0 min 0,000 mm 0,0 UV-I 0 W/m² 11,3 °C 12,1 °C 0,0 km/h (0 Bft)
20.08.2019 21:50 12,1 °C 95 % 1023,7 hPa 0,0 mm 0,1 km/h (0 Bft) W 269 ° 0 min 0,000 mm 0,0 UV-I 0 W/m² 11,3 °C 12,1 °C 1,6 km/h (1 Bft)
20.08.2019 21:51 12,1 °C 95 % 1023,7 hPa 0,2 mm 0,0 km/h (0 Bft) W 269 ° 0 min 0,000 mm 0,0 UV-I 0 W/m² 11,3 °C 12,1 °C 0,0 km/h (0 Bft)
20.08.2019 21:52 12,1 °C 95 % 1023,8 hPa 0,0 mm 0,0 km/h (0 Bft) W 269 ° 0 min 0,000 mm 0,0 UV-I 0 W/m² 11,3 °C 12,1 °C 0,0 km/h (0 Bft)
20.08.2019 21:53 12,1 °C 95 % 1023,8 hPa 0,0 mm 0,0 km/h (0 Bft) W 269 ° 0 min 0,000 mm 0,0 UV-I 0 W/m² 11,3 °C 12,1 °C 0,0 km/h (0 Bft)
20.08.2019 21:54 12,1 °C 95 % 1023,9 hPa 0,0 mm 0,0 km/h (0 Bft) W 269 ° 0 min 0,000 mm 0,0 UV-I 0 W/m² 11,3 °C 12,1 °C 0,0 km/h (0 Bft)
20.08.2019 21:55 12,1 °C 95 % 1023,9 hPa 0,0 mm 0,0 km/h (0 Bft) W 269 ° 0 min 0,000 mm 0,0 UV-I 0 W/m² 11,3 °C 12,1 °C 0,0 km/h (0 Bft)
20.08.2019 21:56 12,1 °C 95 % 1023,9 hPa 0,0 mm 0,0 km/h (0 Bft) W 269 ° 0 min 0,000 mm 0,0 UV-I 0 W/m² 11,3 °C 12,1 °C 0,0 km/h (0 Bft)
20.08.2019 21:57 12,1 °C 95 % 1024,0 hPa 0,0 mm 0,0 km/h (0 Bft) W 269 ° 0 min 0,000 mm 0,0 UV-I 0 W/m² 11,3 °C 12,1 °C 0,0 km/h (0 Bft)
20.08.2019 21:58 12,1 °C 95 % 1024,0 hPa 0,0 mm 0,0 km/h (0 Bft) W 269 ° 0 min 0,000 mm 0,0 UV-I 0 W/m² 11,3 °C 12,1 °C 0,0 km/h (0 Bft)
20.08.2019 21:59 12,1 °C 95 % 1023,9 hPa 0,0 mm 0,0 km/h (0 Bft) W 269 ° 0 min 0,000 mm 0,0 UV-I 0 W/m² 11,3 °C 12,1 °C 0,0 km/h (0 Bft)
20.08.2019 22:00 12,1 °C 95 % 1024,0 hPa 0,0 mm 0,0 km/h (0 Bft) W 269 ° 0 min 0,000 mm 0,0 UV-I 0 W/m² 11,3 °C 12,1 °C 0,0 km/h (0 Bft)
20.08.2019 22:01 12,1 °C 95 % 1024,1 hPa 0,0 mm 0,0 km/h (0 Bft) W 269 ° 0 min 0,000 mm 0,0 UV-I 0 W/m² 11,3 °C 12,1 °C 0,0 km/h (0 Bft)
20.08.2019 22:02 12,1 °C 95 % 1024,0 hPa 0,0 mm 0,0 km/h (0 Bft) W 269 ° 0 min 0,000 mm 0,0 UV-I 0 W/m² 11,3 °C 12,1 °C 0,0 km/h (0 Bft)
20.08.2019 22:03 12,1 °C 95 % 1024,1 hPa 0,2 mm 0,0 km/h (0 Bft) W 279 ° 0 min 0,000 mm 0,0 UV-I 0 W/m² 11,3 °C 12,1 °C 0,0 km/h (0 Bft)
20.08.2019 22:04 12,1 °C 95 % 1024,2 hPa 0,0 mm 4,0 km/h (1 Bft) W-SW 251 ° 0 min 0,000 mm 0,0 UV-I 0 W/m² 11,3 °C 12,1 °C 6,4 km/h (2 Bft)
20.08.2019 22:05 12,1 °C 95 % 1024,2 hPa 0,0 mm 4,9 km/h (1 Bft) NW 318 ° 0 min 0,000 mm 0,0 UV-I 0 W/m² 11,3 °C 12,1 °C 6,4 km/h (2 Bft)
20.08.2019 22:06 12,1 °C 95 % 1024,2 hPa 0,0 mm 3,9 km/h (1 Bft) W 279 ° 0 min 0,000 mm 0,0 UV-I 0 W/m² 11,3 °C 12,1 °C 6,4 km/h (2 Bft)
20.08.2019 22:07 12,1 °C 95 % 1024,3 hPa 0,0 mm 4,1 km/h (1 Bft) NW 309 ° 0 min 0,000 mm 0,0 UV-I 0 W/m² 11,3 °C 12,1 °C 6,4 km/h (2 Bft)
20.08.2019 22:08 12,1 °C 95 % 1024,2 hPa 0,0 mm 3,7 km/h (1 Bft) NW 317 ° 0 min 0,000 mm 0,0 UV-I 0 W/m² 11,3 °C 12,1 °C 6,4 km/h (2 Bft)
20.08.2019 22:09 12,1 °C 95 % 1024,2 hPa 0,0 mm 7,0 km/h (2 Bft) N-NW 334 ° 0 min 0,000 mm 0,0 UV-I 0 W/m² 11,3 °C 12,1 °C 9,7 km/h (2 Bft)
20.08.2019 22:10 12,1 °C 95 % 1024,2 hPa 0,0 mm 7,1 km/h (2 Bft) W-NW 291 ° 0 min 0,000 mm 0,0 UV-I 0 W/m² 11,3 °C 12,1 °C 11,3 km/h (2 Bft)
20.08.2019 22:11 12,0 °C 95 % 1024,1 hPa 0,0 mm 9,0 km/h (2 Bft) NW 325 ° 0 min 0,000 mm 0,0 UV-I 0 W/m² 11,2 °C 12,0 °C 12,9 km/h (3 Bft)
20.08.2019 22:12 11,9 °C 95 % 1024,1 hPa 0,0 mm 4,3 km/h (1 Bft) N-NW 333 ° 0 min 0,000 mm 0,0 UV-I 0 W/m² 11,1 °C 11,9 °C 6,4 km/h (2 Bft)
20.08.2019 22:13 11,9 °C 95 % 1024,1 hPa 0,2 mm 3,8 km/h (1 Bft) W-NW 286 ° 0 min 0,000 mm 0,0 UV-I 0 W/m² 11,1 °C 11,9 °C 4,8 km/h (1 Bft)
20.08.2019 22:14 11,9 °C 95 % 1024,1 hPa 0,0 mm 5,0 km/h (1 Bft) NW 324 ° 0 min 0,000 mm 0,0 UV-I 0 W/m² 11,1 °C 11,9 °C 8,0 km/h (2 Bft)
20.08.2019 22:15 11,9 °C 95 % 1024,1 hPa 0,0 mm 5,8 km/h (2 Bft) NW 326 ° 0 min 0,000 mm 0,0 UV-I 0 W/m² 11,1 °C 11,9 °C 8,0 km/h (2 Bft)
20.08.2019 22:16 11,9 °C 95 % 1024,1 hPa 0,0 mm 2,7 km/h (1 Bft) NW 307 ° 0 min 0,000 mm 0,0 UV-I 0 W/m² 11,1 °C 11,9 °C 6,4 km/h (2 Bft)
20.08.2019 22:17 11,9 °C 95 % 1024,1 hPa 0,0 mm 0,7 km/h (0 Bft) NW 308 ° 0 min 0,000 mm 0,0 UV-I 0 W/m² 11,1 °C 11,9 °C 3,2 km/h (1 Bft)
20.08.2019 22:18 11,9 °C 95 % 1024,1 hPa 0,0 mm 1,7 km/h (1 Bft) NW 308 ° 0 min 0,000 mm 0,0 UV-I 0 W/m² 11,1 °C 11,9 °C 3,2 km/h (1 Bft)
20.08.2019 22:19 11,9 °C 95 % 1024,1 hPa 0,0 mm 2,1 km/h (1 Bft) NW 313 ° 0 min 0,000 mm 0,0 UV-I 0 W/m² 11,1 °C 11,9 °C 3,2 km/h (1 Bft)
20.08.2019 22:20 11,8 °C 95 % 1024,2 hPa 0,0 mm 0,8 km/h (0 Bft) NW 313 ° 0 min 0,000 mm 0,0 UV-I 0 W/m² 11,0 °C 11,8 °C 3,2 km/h (1 Bft)
20.08.2019 22:21 11,8 °C 95 % 1024,2 hPa 0,0 mm 0,0 km/h (0 Bft) NW 313 ° 0 min 0,000 mm 0,0 UV-I 0 W/m² 11,0 °C 11,8 °C 0,0 km/h (0 Bft)
20.08.2019 22:22 11,8 °C 95 % 1024,2 hPa 0,0 mm 3,4 km/h (1 Bft) NW 319 ° 0 min 0,000 mm 0,0 UV-I 0 W/m² 11,0 °C 11,8 °C 8,0 km/h (2 Bft)
20.08.2019 22:23 11,8 °C 95 % 1024,2 hPa 0,0 mm 3,5 km/h (1 Bft) N-NW 330 ° 0 min 0,000 mm 0,0 UV-I 0 W/m² 11,0 °C 11,8 °C 4,8 km/h (1 Bft)
20.08.2019 22:24 11,8 °C 95 % 1024,3 hPa 0,0 mm 4,7 km/h (1 Bft) W-NW 299 ° 0 min 0,000 mm 0,0 UV-I 0 W/m² 11,0 °C 11,8 °C 8,0 km/h (2 Bft)
20.08.2019 22:25 11,8 °C 95 % 1024,3 hPa 0,2 mm 2,1 km/h (1 Bft) N-NW 327 ° 0 min 0,000 mm 0,0 UV-I 0 W/m² 11,0 °C 11,8 °C 8,0 km/h (2 Bft)
20.08.2019 22:26 11,8 °C 95 % 1024,3 hPa 0,0 mm 4,3 km/h (1 Bft) NW 318 ° 0 min 0,000 mm 0,0 UV-I 0 W/m² 11,0 °C 11,8 °C 6,4 km/h (2 Bft)
20.08.2019 22:27 11,8 °C 95 % 1024,4 hPa 0,0 mm 5,6 km/h (1 Bft) N-NW 329 ° 0 min 0,000 mm 0,0 UV-I 0 W/m² 11,0 °C 11,8 °C 11,3 km/h (2 Bft)
20.08.2019 22:28 11,8 °C 95 % 1024,3 hPa 0,0 mm 4,5 km/h (1 Bft) W 275 ° 0 min 0,000 mm 0,0 UV-I 0 W/m² 11,0 °C 11,8 °C 8,0 km/h (2 Bft)
20.08.2019 22:29 11,8 °C 95 % 1024,4 hPa 0,0 mm 5,1 km/h (1 Bft) W-NW 282 ° 0 min 0,000 mm 0,0 UV-I 0 W/m² 11,0 °C 11,8 °C 9,7 km/h (2 Bft)
20.08.2019 22:30 11,8 °C 95 % 1024,4 hPa 0,0 mm 4,8 km/h (1 Bft) W-NW 293 ° 0 min 0,000 mm 0,0 UV-I 0 W/m² 11,0 °C 11,8 °C 6,4 km/h (2 Bft)
20.08.2019 22:31 11,7 °C 95 % 1024,4 hPa 0,0 mm 4,6 km/h (1 Bft) W-SW 248 ° 0 min 0,000 mm 0,0 UV-I 0 W/m² 10,9 °C 11,7 °C 6,4 km/h (2 Bft)
20.08.2019 22:32 11,7 °C 95 % 1024,4 hPa 0,0 mm 3,4 km/h (1 Bft) W-SW 249 ° 0 min 0,000 mm 0,0 UV-I 0 W/m² 10,9 °C 11,7 °C 4,8 km/h (1 Bft)
20.08.2019 22:33 11,7 °C 95 % 1024,5 hPa 0,0 mm 4,0 km/h (1 Bft) W-SW 250 ° 0 min 0,000 mm 0,0 UV-I 0 W/m² 10,9 °C 11,7 °C 6,4 km/h (2 Bft)
20.08.2019 22:34 11,7 °C 95 % 1024,4 hPa 0,0 mm 4,6 km/h (1 Bft) W 265 ° 0 min 0,000 mm 0,0 UV-I 0 W/m² 10,9 °C 11,7 °C 8,0 km/h (2 Bft)
20.08.2019 22:35 11,7 °C 95 % 1024,5 hPa 0,0 mm 2,4 km/h (1 Bft) W-NW 293 ° 0 min 0,000 mm 0,0 UV-I 0 W/m² 10,9 °C 11,7 °C 4,8 km/h (1 Bft)
20.08.2019 22:36 11,7 °C 95 % 1024,4 hPa 0,2 mm 0,9 km/h (0 Bft) W-NW 293 ° 0 min 0,000 mm 0,0 UV-I 0 W/m² 10,9 °C 11,7 °C 1,6 km/h (1 Bft)
20.08.2019 22:37 11,7 °C 95 % 1024,5 hPa 0,0 mm 5,0 km/h (1 Bft) W 280 ° 0 min 0,000 mm 0,0 UV-I 0 W/m² 10,9 °C 11,7 °C 9,7 km/h (2 Bft)
20.08.2019 22:38 11,7 °C 95 % 1024,4 hPa 0,0 mm 4,4 km/h (1 Bft) W-NW 287 ° 0 min 0,000 mm 0,0 UV-I 0 W/m² 10,9 °C 11,7 °C 6,4 km/h (2 Bft)
20.08.2019 22:39 11,6 °C 95 % 1024,4 hPa 0,0 mm 5,2 km/h (1 Bft) W-NW 288 ° 0 min 0,000 mm 0,0 UV-I 0 W/m² 10,8 °C 11,6 °C 6,4 km/h (2 Bft)
20.08.2019 22:40 11,6 °C 95 % 1024,4 hPa 0,0 mm 4,2 km/h (1 Bft) W-NW 294 ° 0 min 0,000 mm 0,0 UV-I 0 W/m² 10,8 °C 11,6 °C 6,4 km/h (2 Bft)
20.08.2019 22:41 11,6 °C 95 % 1024,4 hPa 0,0 mm 4,0 km/h (1 Bft) W-NW 285 ° 0 min 0,000 mm 0,0 UV-I 0 W/m² 10,8 °C 11,6 °C 9,7 km/h (2 Bft)
20.08.2019 22:42 11,6 °C 95 % 1024,3 hPa 0,0 mm 3,5 km/h (1 Bft) W-NW 299 ° 0 min 0,000 mm 0,0 UV-I 0 W/m² 10,8 °C 11,6 °C 6,4 km/h (2 Bft)
20.08.2019 22:43 11,6 °C 95 % 1024,3 hPa 0,0 mm 4,7 km/h (1 Bft) NW 323 ° 0 min 0,000 mm 0,0 UV-I 0 W/m² 10,8 °C 11,6 °C 6,4 km/h (2 Bft)
20.08.2019 22:44 11,6 °C 95 % 1024,3 hPa 0,0 mm 2,1 km/h (1 Bft) NW 323 ° 0 min 0,000 mm 0,0 UV-I 0 W/m² 10,8 °C 11,6 °C 4,8 km/h (1 Bft)
20.08.2019 22:45 11,6 °C 95 % 1024,3 hPa 0,0 mm 0,1 km/h (0 Bft) NW 323 ° 0 min 0,000 mm 0,0 UV-I 0 W/m² 10,8 °C 11,6 °C 1,6 km/h (1 Bft)
20.08.2019 22:46 11,6 °C 95 % 1024,2 hPa 0,0 mm 3,2 km/h (1 Bft) NW 307 ° 0 min 0,000 mm 0,0 UV-I 0 W/m² 10,8 °C 11,6 °C 4,8 km/h (1 Bft)
20.08.2019 22:47 11,6 °C 95 % 1024,4 hPa 0,2 mm 2,0 km/h (1 Bft) W-NW 302 ° 0 min 0,000 mm 0,0 UV-I 0 W/m² 10,8 °C 11,6 °C 3,2 km/h (1 Bft)
20.08.2019 22:48 11,6 °C 95 % 1024,4 hPa 0,0 mm 2,3 km/h (1 Bft) NW 310 ° 0 min 0,000 mm 0,0 UV-I 0 W/m² 10,8 °C 11,6 °C 6,4 km/h (2 Bft)
20.08.2019 22:49 11,6 °C 95 % 1024,3 hPa 0,0 mm 1,8 km/h (1 Bft) NW 304 ° 0 min 0,000 mm 0,0 UV-I 0 W/m² 10,8 °C 11,6 °C 6,4 km/h (2 Bft)
20.08.2019 22:50 11,6 °C 95 % 1024,3 hPa 0,0 mm 1,7 km/h (1 Bft) NW 304 ° 0 min 0,000 mm 0,0 UV-I 0 W/m² 10,8 °C 11,6 °C 3,2 km/h (1 Bft)
20.08.2019 22:51 11,6 °C 95 % 1024,3 hPa 0,0 mm 2,3 km/h (1 Bft) NW 304 ° 0 min 0,000 mm 0,0 UV-I 0 W/m² 10,8 °C 11,6 °C 3,2 km/h (1 Bft)
20.08.2019 22:52 11,6 °C 95 % 1024,3 hPa 0,0 mm 1,3 km/h (1 Bft) W-NW 303 ° 0 min 0,000 mm 0,0 UV-I 0 W/m² 10,8 °C 11,6 °C 4,8 km/h (1 Bft)
20.08.2019 22:53 11,6 °C 95 % 1024,3 hPa 0,0 mm 3,6 km/h (1 Bft) NW 306 ° 0 min 0,000 mm 0,0 UV-I 0 W/m² 10,8 °C 11,6 °C 4,8 km/h (1 Bft)
20.08.2019 22:54 11,6 °C 95 % 1024,3 hPa 0,0 mm 4,6 km/h (1 Bft) W-NW 296 ° 0 min 0,000 mm 0,0 UV-I 0 W/m² 10,8 °C 11,6 °C 8,0 km/h (2 Bft)
20.08.2019 22:55 11,6 °C 95 % 1024,4 hPa 0,0 mm 3,6 km/h (1 Bft) N-NW 338 ° 0 min 0,000 mm 0,0 UV-I 0 W/m² 10,8 °C 11,6 °C 6,4 km/h (2 Bft)
20.08.2019 22:56 11,6 °C 95 % 1024,3 hPa 0,0 mm 2,7 km/h (1 Bft) N-NW 345 ° 0 min 0,000 mm 0,0 UV-I 0 W/m² 10,8 °C 11,6 °C 4,8 km/h (1 Bft)
20.08.2019 22:57 11,6 °C 95 % 1024,3 hPa 0,2 mm 6,0 km/h (2 Bft) NW 311 ° 0 min 0,000 mm 0,0 UV-I 0 W/m² 10,8 °C 11,6 °C 9,7 km/h (2 Bft)
20.08.2019 22:58 11,6 °C 95 % 1024,4 hPa 0,0 mm 4,2 km/h (1 Bft) N 351 ° 0 min 0,000 mm 0,0 UV-I 0 W/m² 10,8 °C 11,6 °C 6,4 km/h (2 Bft)
20.08.2019 22:59 11,6 °C 95 % 1024,3 hPa 0,0 mm 5,0 km/h (1 Bft) N-NW 329 ° 0 min 0,000 mm 0,0 UV-I 0 W/m² 10,8 °C 11,6 °C 8,0 km/h (2 Bft)
20.08.2019 23:00 11,6 °C 95 % 1024,4 hPa 0,0 mm 3,6 km/h (1 Bft) NW 317 ° 0 min 0,000 mm 0,0 UV-I 0 W/m² 10,8 °C 11,6 °C 6,4 km/h (2 Bft)
20.08.2019 23:01 11,6 °C 95 % 1024,4 hPa 0,0 mm 5,1 km/h (1 Bft) W-NW 298 ° 0 min 0,000 mm 0,0 UV-I 0 W/m² 10,8 °C 11,6 °C 6,4 km/h (2 Bft)
20.08.2019 23:02 11,6 °C 95 % 1024,4 hPa 0,0 mm 4,1 km/h (1 Bft) NW 318 ° 0 min 0,000 mm 0,0 UV-I 0 W/m² 10,8 °C 11,6 °C 8,0 km/h (2 Bft)
20.08.2019 23:03 11,6 °C 95 % 1024,4 hPa 0,0 mm 1,0 km/h (0 Bft) NW 318 ° 0 min 0,000 mm 0,0 UV-I 0 W/m² 10,8 °C 11,6 °C 3,2 km/h (1 Bft)
20.08.2019 23:04 11,5 °C 95 % 1024,5 hPa 0,0 mm 1,5 km/h (1 Bft) NW 311 ° 0 min 0,000 mm 0,0 UV-I 0 W/m² 10,7 °C 11,5 °C 3,2 km/h (1 Bft)
20.08.2019 23:05 11,5 °C 95 % 1024,6 hPa 0,0 mm 3,0 km/h (1 Bft) W-NW 302 ° 0 min 0,000 mm 0,0 UV-I 0 W/m² 10,7 °C 11,5 °C 4,8 km/h (1 Bft)
20.08.2019 23:06 11,6 °C 95 % 1024,6 hPa 0,0 mm 3,5 km/h (1 Bft) W 280 ° 0 min 0,000 mm 0,0 UV-I 0 W/m² 10,8 °C 11,6 °C 6,4 km/h (2 Bft)
20.08.2019 23:07 11,5 °C 95 % 1024,6 hPa 0,0 mm 3,5 km/h (1 Bft) W-NW 293 ° 0 min 0,000 mm 0,0 UV-I 0 W/m² 10,7 °C 11,5 °C 4,8 km/h (1 Bft)
20.08.2019 23:08 11,6 °C 95 % 1024,6 hPa 0,2 mm 1,7 km/h (1 Bft) W-NW 284 ° 0 min 0,000 mm 0,0 UV-I 0 W/m² 10,8 °C 11,6 °C 3,2 km/h (1 Bft)
20.08.2019 23:09 11,5 °C 95 % 1024,6 hPa 0,0 mm 1,0 km/h (0 Bft) W-NW 285 ° 0 min 0,000 mm 0,0 UV-I 0 W/m² 10,7 °C 11,5 °C 3,2 km/h (1 Bft)
20.08.2019 23:10 11,5 °C 95 % 1024,6 hPa 0,0 mm 0,0 km/h (0 Bft) W-NW 285 ° 0 min 0,000 mm 0,0 UV-I 0 W/m² 10,7 °C 11,5 °C 0,0 km/h (0 Bft)
20.08.2019 23:11 11,6 °C 95 % 1024,6 hPa 0,0 mm 0,0 km/h (0 Bft) W-NW 285 ° 0 min 0,000 mm 0,0 UV-I 0 W/m² 10,8 °C 11,6 °C 0,0 km/h (0 Bft)
20.08.2019 23:12 11,5 °C 95 % 1024,6 hPa 0,0 mm 0,0 km/h (0 Bft) W-NW 285 ° 0 min 0,000 mm 0,0 UV-I 0 W/m² 10,7 °C 11,5 °C 0,0 km/h (0 Bft)
20.08.2019 23:13 11,5 °C 95 % 1024,6 hPa 0,0 mm 0,0 km/h (0 Bft) W-NW 285 ° 0 min 0,000 mm 0,0 UV-I 0 W/m² 10,7 °C 11,5 °C 0,0 km/h (0 Bft)
20.08.2019 23:14 11,5 °C 95 % 1024,7 hPa 0,0 mm 0,0 km/h (0 Bft) W-NW 285 ° 0 min 0,000 mm 0,0 UV-I 0 W/m² 10,7 °C 11,5 °C 0,0 km/h (0 Bft)
20.08.2019 23:15 11,6 °C 95 % 1024,7 hPa 0,0 mm 0,0 km/h (0 Bft) W-NW 285 ° 0 min 0,000 mm 0,0 UV-I 0 W/m² 10,8 °C 11,6 °C 0,0 km/h (0 Bft)
20.08.2019 23:16 11,6 °C 95 % 1024,7 hPa 0,0 mm 0,1 km/h (0 Bft) W-NW 285 ° 0 min 0,000 mm 0,0 UV-I 0 W/m² 10,8 °C 11,6 °C 1,6 km/h (1 Bft)
20.08.2019 23:17 11,6 °C 95 % 1024,7 hPa 0,0 mm 0,6 km/h (0 Bft) W-NW 285 ° 0 min 0,000 mm 0,0 UV-I 0 W/m² 10,8 °C 11,6 °C 1,6 km/h (1 Bft)
20.08.2019 23:18 11,6 °C 95 % 1024,7 hPa 0,2 mm 2,5 km/h (1 Bft) W-NW 285 ° 0 min 0,000 mm 0,0 UV-I 0 W/m² 10,8 °C 11,6 °C 3,2 km/h (1 Bft)
20.08.2019 23:19 11,6 °C 95 % 1024,7 hPa 0,0 mm 0,4 km/h (0 Bft) W-NW 285 ° 0 min 0,000 mm 0,0 UV-I 0 W/m² 10,8 °C 11,6 °C 1,6 km/h (1 Bft)
20.08.2019 23:20 11,5 °C 95 % 1024,7 hPa 0,0 mm 0,0 km/h (0 Bft) W-NW 285 ° 0 min 0,000 mm 0,0 UV-I 0 W/m² 10,7 °C 11,5 °C 0,0 km/h (0 Bft)
20.08.2019 23:21 11,6 °C 95 % 1024,7 hPa 0,0 mm 0,1 km/h (0 Bft) W-NW 285 ° 0 min 0,000 mm 0,0 UV-I 0 W/m² 10,8 °C 11,6 °C 1,6 km/h (1 Bft)
20.08.2019 23:22 11,6 °C 95 % 1024,7 hPa 0,0 mm 0,5 km/h (0 Bft) W-NW 285 ° 0 min 0,000 mm 0,0 UV-I 0 W/m² 10,8 °C 11,6 °C 3,2 km/h (1 Bft)
20.08.2019 23:23 11,6 °C 95 % 1024,7 hPa 0,0 mm 0,0 km/h (0 Bft) W-NW 285 ° 0 min 0,000 mm 0,0 UV-I 0 W/m² 10,8 °C 11,6 °C 0,0 km/h (0 Bft)
20.08.2019 23:24 11,5 °C 95 % 1024,8 hPa 0,0 mm 0,0 km/h (0 Bft) W-NW 285 ° 0 min 0,000 mm 0,0 UV-I 0 W/m² 10,7 °C 11,5 °C 0,0 km/h (0 Bft)
20.08.2019 23:25 11,5 °C 95 % 1024,8 hPa 0,0 mm 0,0 km/h (0 Bft) W-NW 285 ° 0 min 0,000 mm 0,0 UV-I 0 W/m² 10,7 °C 11,5 °C 0,0 km/h (0 Bft)
20.08.2019 23:26 11,5 °C 95 % 1024,8 hPa 0,0 mm 0,0 km/h (0 Bft) W-NW 285 ° 0 min 0,000 mm 0,0 UV-I 0 W/m² 10,7 °C 11,5 °C 0,0 km/h (0 Bft)
20.08.2019 23:27 11,5 °C 95 % 1024,9 hPa 0,0 mm 0,0 km/h (0 Bft) W-NW 285 ° 0 min 0,000 mm 0,0 UV-I 0 W/m² 10,7 °C 11,5 °C 0,0 km/h (0 Bft)
20.08.2019 23:28 11,5 °C 95 % 1024,9 hPa 0,0 mm 0,0 km/h (0 Bft) W-NW 285 ° 0 min 0,000 mm 0,0 UV-I 0 W/m² 10,7 °C 11,5 °C 0,0 km/h (0 Bft)
20.08.2019 23:29 11,6 °C 95 % 1024,9 hPa 0,2 mm 0,0 km/h (0 Bft) W-NW 285 ° 0 min 0,000 mm 0,0 UV-I 0 W/m² 10,8 °C 11,6 °C 0,0 km/h (0 Bft)
20.08.2019 23:30 11,6 °C 95 % 1024,9 hPa 0,0 mm 0,0 km/h (0 Bft) W-NW 285 ° 0 min 0,000 mm 0,0 UV-I 0 W/m² 10,8 °C 11,6 °C 0,0 km/h (0 Bft)
20.08.2019 23:31 11,6 °C 95 % 1024,9 hPa 0,0 mm 0,0 km/h (0 Bft) W-NW 285 ° 0 min 0,000 mm 0,0 UV-I 0 W/m² 10,8 °C 11,6 °C 0,0 km/h (0 Bft)
20.08.2019 23:32 11,6 °C 95 % 1024,9 hPa 0,0 mm 0,0 km/h (0 Bft) W-NW 285 ° 0 min 0,000 mm 0,0 UV-I 0 W/m² 10,8 °C 11,6 °C 0,0 km/h (0 Bft)
20.08.2019 23:33 11,5 °C 95 % 1024,9 hPa 0,0 mm 0,0 km/h (0 Bft) W-NW 285 ° 0 min 0,000 mm 0,0 UV-I 0 W/m² 10,7 °C 11,5 °C 0,0 km/h (0 Bft)
20.08.2019 23:34 11,5 °C 95 % 1024,9 hPa 0,0 mm 0,0 km/h (0 Bft) W-NW 285 ° 0 min 0,000 mm 0,0 UV-I 0 W/m² 10,7 °C 11,5 °C 0,0 km/h (0 Bft)
20.08.2019 23:35 11,5 °C 95 % 1024,9 hPa 0,0 mm 0,0 km/h (0 Bft) W-NW 285 ° 0 min 0,000 mm 0,0 UV-I 0 W/m² 10,7 °C 11,5 °C 0,0 km/h (0 Bft)
20.08.2019 23:36 11,5 °C 95 % 1024,9 hPa 0,0 mm 0,0 km/h (0 Bft) W-NW 285 ° 0 min 0,000 mm 0,0 UV-I 0 W/m² 10,7 °C 11,5 °C 0,0 km/h (0 Bft)
20.08.2019 23:37 11,5 °C 95 % 1025,0 hPa 0,0 mm 0,0 km/h (0 Bft) W-NW 285 ° 0 min 0,000 mm 0,0 UV-I 0 W/m² 10,7 °C 11,5 °C 0,0 km/h (0 Bft)
20.08.2019 23:38 11,5 °C 95 % 1025,0 hPa 0,0 mm 0,0 km/h (0 Bft) W-NW 285 ° 0 min 0,000 mm 0,0 UV-I 0 W/m² 10,7 °C 11,5 °C 0,0 km/h (0 Bft)
20.08.2019 23:39 11,5 °C 95 % 1024,9 hPa 0,2 mm 0,0 km/h (0 Bft) W-NW 285 ° 0 min 0,000 mm 0,0 UV-I 0 W/m² 10,7 °C 11,5 °C 0,0 km/h (0 Bft)
20.08.2019 23:40 11,5 °C 95 % 1024,9 hPa 0,0 mm 0,0 km/h (0 Bft) W-NW 285 ° 0 min 0,000 mm 0,0 UV-I 0 W/m² 10,7 °C 11,5 °C 0,0 km/h (0 Bft)
20.08.2019 23:41 11,5 °C 95 % 1024,9 hPa 0,0 mm 0,0 km/h (0 Bft) W-NW 285 ° 0 min 0,000 mm 0,0 UV-I 0 W/m² 10,7 °C 11,5 °C 0,0 km/h (0 Bft)
20.08.2019 23:42 11,5 °C 95 % 1024,8 hPa 0,0 mm 0,0 km/h (0 Bft) W-NW 285 ° 0 min 0,000 mm 0,0 UV-I 0 W/m² 10,7 °C 11,5 °C 0,0 km/h (0 Bft)
20.08.2019 23:43 11,6 °C 95 % 1024,9 hPa 0,0 mm 0,0 km/h (0 Bft) W-NW 285 ° 0 min 0,000 mm 0,0 UV-I 0 W/m² 10,8 °C 11,6 °C 0,0 km/h (0 Bft)
20.08.2019 23:44 11,6 °C 95 % 1024,9 hPa 0,0 mm 0,0 km/h (0 Bft) W-NW 285 ° 0 min 0,000 mm 0,0 UV-I 0 W/m² 10,8 °C 11,6 °C 0,0 km/h (0 Bft)
20.08.2019 23:45 11,6 °C 95 % 1024,9 hPa 0,0 mm 0,0 km/h (0 Bft) W-NW 285 ° 0 min 0,000 mm 0,0 UV-I 0 W/m² 10,8 °C 11,6 °C 0,0 km/h (0 Bft)
20.08.2019 23:46 11,6 °C 95 % 1024,9 hPa 0,0 mm 0,0 km/h (0 Bft) W-NW 285 ° 0 min 0,000 mm 0,0 UV-I 0 W/m² 10,8 °C 11,6 °C 0,0 km/h (0 Bft)
20.08.2019 23:47 11,6 °C 95 % 1024,9 hPa 0,0 mm 0,0 km/h (0 Bft) W-NW 285 ° 0 min 0,000 mm 0,0 UV-I 0 W/m² 10,8 °C 11,6 °C 0,0 km/h (0 Bft)
20.08.2019 23:48 11,5 °C 95 % 1024,9 hPa 0,0 mm 0,0 km/h (0 Bft) W-NW 285 ° 0 min 0,000 mm 0,0 UV-I 0 W/m² 10,7 °C 11,5 °C 0,0 km/h (0 Bft)
20.08.2019 23:49 11,5 °C 95 % 1024,9 hPa 0,0 mm 0,0 km/h (0 Bft) W-NW 285 ° 0 min 0,000 mm 0,0 UV-I 0 W/m² 10,7 °C 11,5 °C 0,0 km/h (0 Bft)
20.08.2019 23:50 11,5 °C 95 % 1024,9 hPa 0,0 mm 0,0 km/h (0 Bft) W-NW 285 ° 0 min 0,000 mm 0,0 UV-I 0 W/m² 10,7 °C 11,5 °C 0,0 km/h (0 Bft)
20.08.2019 23:51 11,5 °C 95 % 1024,9 hPa 0,2 mm 0,0 km/h (0 Bft) W-NW 285 ° 0 min 0,000 mm 0,0 UV-I 0 W/m² 10,7 °C 11,5 °C 0,0 km/h (0 Bft)
20.08.2019 23:52 11,5 °C 95 % 1025,0 hPa 0,0 mm 0,0 km/h (0 Bft) W-NW 285 ° 0 min 0,000 mm 0,0 UV-I 0 W/m² 10,7 °C 11,5 °C 0,0 km/h (0 Bft)
20.08.2019 23:53 11,5 °C 95 % 1025,0 hPa 0,0 mm 0,0 km/h (0 Bft) W-NW 285 ° 0 min 0,000 mm 0,0 UV-I 0 W/m² 10,7 °C 11,5 °C 0,0 km/h (0 Bft)
20.08.2019 23:54 11,5 °C 95 % 1024,9 hPa 0,0 mm 0,0 km/h (0 Bft) W-NW 285 ° 0 min 0,000 mm 0,0 UV-I 0 W/m² 10,7 °C 11,5 °C 0,0 km/h (0 Bft)
20.08.2019 23:55 11,4 °C 95 % 1025,0 hPa 0,0 mm 0,0 km/h (0 Bft) W-NW 285 ° 0 min 0,000 mm 0,0 UV-I 0 W/m² 10,6 °C 11,4 °C 0,0 km/h (0 Bft)
20.08.2019 23:56 11,4 °C 95 % 1025,0 hPa 0,0 mm 0,0 km/h (0 Bft) N 0 ° 0 min 0,000 mm 0,0 UV-I 0 W/m² 10,6 °C 11,4 °C 0,0 km/h (0 Bft)
20.08.2019 23:57 11,4 °C 95 % 1024,9 hPa 0,0 mm 0,0 km/h (0 Bft) N 0 ° 0 min 0,000 mm 0,0 UV-I 0 W/m² 10,6 °C 11,4 °C 0,0 km/h (0 Bft)
20.08.2019 23:58 11,4 °C 95 % 1024,9 hPa 0,0 mm 0,0 km/h (0 Bft) N 0 ° 0 min 0,000 mm 0,0 UV-I 0 W/m² 10,6 °C 11,4 °C 0,0 km/h (0 Bft)
20.08.2019 23:59 11,4 °C 95 % 1024,9 hPa 0,0 mm 0,0 km/h (0 Bft) N 0 ° 0 min 0,000 mm 0,0 UV-I 0 W/m² 10,6 °C 11,4 °C 0,0 km/h (0 Bft)
_ Min-Zeit 23:59 14:20 05:04 - 23:59 - - - - - - 23:59 23:59 23:59
Minimum _ 11,4 °C 88 % 1016,5 hPa - 0,0 km/h (0 Bft) - - - - - - 10,6 °C 11,4 °C 0,0 km/h (0 Bft)
_ Max-Zeit 14:19 10:16 23:56 23:51 18:29 - - 23:59 15:00 14:12 14:11 14:11 14:19 18:28
Maximum _ 18,1 °C 96 % 1025,0 hPa 0,2 mm 14,6 km/h
W-SW (3 Bft)
- - 0 min 0,127 mm 3,6 UV-I 396 W/m² 16,7 °C 18,1 °C 25,7 km/h
W (4 Bft)
Durchschnitt _ 14,9 °C 95 % 1018,9 hPa #13,8 mm 1,3 km/h (1 Bft) W - #0 min. #0,660 mm 1,2 UV-I 47 W/m² 14,0 °C 14,9 °C 2,5 km/h (1 Bft)